<?xml version="1.0" encoding="UTF-8" standalone="no" ?>
<gpx xmlns="http://www.topografix.com/GPX/1/1" xmlns:xsi="http://www.w3.org/2001/XMLSchema-instance" xsi:schemaLocation="http://www.topografix.com/GPX/1/1 http://www.topografix.com/GPX/1/1/gpx.xsd" version="1.1" creator="VisuGPX - https://www.visugpx.com">
  <metadata>
    <name>2022-04-25 12:11:05</name>
  </metadata>
  <trk>
    <name><![CDATA[2022-04-25 12:11:05]]></name>
    <trkseg>
      <trkpt lat="44.82617" lon="4.68021">
        <ele>156.83</ele>
        <time>2022-04-25T05:01:01Z</time>
      </trkpt>
      <trkpt lat="44.82619" lon="4.68021">
        <ele>156.35</ele>
        <time>2022-04-25T05:01:19Z</time>
      </trkpt>
      <trkpt lat="44.82619" lon="4.68019">
        <ele>156.35</ele>
        <time>2022-04-25T05:01:43Z</time>
      </trkpt>
      <trkpt lat="44.82615" lon="4.68018">
        <ele>152.03</ele>
        <time>2022-04-25T05:02:05Z</time>
      </trkpt>
      <trkpt lat="44.82617" lon="4.68036">
        <ele>152.03</ele>
        <time>2022-04-25T05:02:19Z</time>
      </trkpt>
      <trkpt lat="44.82623" lon="4.68046">
        <ele>152.51</ele>
        <time>2022-04-25T05:02:34Z</time>
      </trkpt>
      <trkpt lat="44.82631" lon="4.68055">
        <ele>155.87</ele>
        <time>2022-04-25T05:02:48Z</time>
      </trkpt>
      <trkpt lat="44.82644" lon="4.6805">
        <ele>160.68</ele>
        <time>2022-04-25T05:03:03Z</time>
      </trkpt>
      <trkpt lat="44.82642" lon="4.68036">
        <ele>164.04</ele>
        <time>2022-04-25T05:03:13Z</time>
      </trkpt>
      <trkpt lat="44.82646" lon="4.68013">
        <ele>161.64</ele>
        <time>2022-04-25T05:03:24Z</time>
      </trkpt>
      <trkpt lat="44.82648" lon="4.67993">
        <ele>158.75</ele>
        <time>2022-04-25T05:03:34Z</time>
      </trkpt>
      <trkpt lat="44.82646" lon="4.67975">
        <ele>153.95</ele>
        <time>2022-04-25T05:03:49Z</time>
      </trkpt>
      <trkpt lat="44.82641" lon="4.67952">
        <ele>155.39</ele>
        <time>2022-04-25T05:04:03Z</time>
      </trkpt>
      <trkpt lat="44.82638" lon="4.67932">
        <ele>158.27</ele>
        <time>2022-04-25T05:04:17Z</time>
      </trkpt>
      <trkpt lat="44.82632" lon="4.67935">
        <ele>163.08</ele>
        <time>2022-04-25T05:04:28Z</time>
      </trkpt>
      <trkpt lat="44.82635" lon="4.67957">
        <ele>172.21</ele>
        <time>2022-04-25T05:04:45Z</time>
      </trkpt>
      <trkpt lat="44.82637" lon="4.67966">
        <ele>175.58</ele>
        <time>2022-04-25T05:04:51Z</time>
      </trkpt>
      <trkpt lat="44.8264" lon="4.6799">
        <ele>188.08</ele>
        <time>2022-04-25T05:05:07Z</time>
      </trkpt>
      <trkpt lat="44.82635" lon="4.67997">
        <ele>192.4</ele>
        <time>2022-04-25T05:05:18Z</time>
      </trkpt>
      <trkpt lat="44.8263" lon="4.68011">
        <ele>190.96</ele>
        <time>2022-04-25T05:05:32Z</time>
      </trkpt>
      <trkpt lat="44.8263" lon="4.68033">
        <ele>191.44</ele>
        <time>2022-04-25T05:05:47Z</time>
      </trkpt>
      <trkpt lat="44.8263" lon="4.68039">
        <ele>191.44</ele>
        <time>2022-04-25T05:05:50Z</time>
      </trkpt>
      <trkpt lat="44.82634" lon="4.68069">
        <ele>192.4</ele>
        <time>2022-04-25T05:06:03Z</time>
      </trkpt>
      <trkpt lat="44.82638" lon="4.6809">
        <ele>192.88</ele>
        <time>2022-04-25T05:06:17Z</time>
      </trkpt>
      <trkpt lat="44.82632" lon="4.68112">
        <ele>181.35</ele>
        <time>2022-04-25T05:06:32Z</time>
      </trkpt>
      <trkpt lat="44.8263" lon="4.68143">
        <ele>171.25</ele>
        <time>2022-04-25T05:06:47Z</time>
      </trkpt>
      <trkpt lat="44.82628" lon="4.68162">
        <ele>168.85</ele>
        <time>2022-04-25T05:06:56Z</time>
      </trkpt>
      <trkpt lat="44.82628" lon="4.6819">
        <ele>165.96</ele>
        <time>2022-04-25T05:07:08Z</time>
      </trkpt>
      <trkpt lat="44.82614" lon="4.68222">
        <ele>158.75</ele>
        <time>2022-04-25T05:07:28Z</time>
      </trkpt>
      <trkpt lat="44.82604" lon="4.6825">
        <ele>162.12</ele>
        <time>2022-04-25T05:07:45Z</time>
      </trkpt>
      <trkpt lat="44.82602" lon="4.68257">
        <ele>161.16</ele>
        <time>2022-04-25T05:07:49Z</time>
      </trkpt>
      <trkpt lat="44.82588" lon="4.68289">
        <ele>161.64</ele>
        <time>2022-04-25T05:08:10Z</time>
      </trkpt>
      <trkpt lat="44.82581" lon="4.6831">
        <ele>164.52</ele>
        <time>2022-04-25T05:08:25Z</time>
      </trkpt>
      <trkpt lat="44.82577" lon="4.68332">
        <ele>165</ele>
        <time>2022-04-25T05:08:40Z</time>
      </trkpt>
      <trkpt lat="44.82571" lon="4.68356">
        <ele>162.6</ele>
        <time>2022-04-25T05:08:55Z</time>
      </trkpt>
      <trkpt lat="44.82564" lon="4.68355">
        <ele>162.6</ele>
        <time>2022-04-25T05:09:08Z</time>
      </trkpt>
      <trkpt lat="44.82554" lon="4.68373">
        <ele>164.52</ele>
        <time>2022-04-25T05:09:22Z</time>
      </trkpt>
      <trkpt lat="44.82547" lon="4.68389">
        <ele>165.48</ele>
        <time>2022-04-25T05:09:33Z</time>
      </trkpt>
      <trkpt lat="44.82534" lon="4.68416">
        <ele>165</ele>
        <time>2022-04-25T05:09:51Z</time>
      </trkpt>
      <trkpt lat="44.82523" lon="4.68436">
        <ele>166.93</ele>
        <time>2022-04-25T05:10:06Z</time>
      </trkpt>
      <trkpt lat="44.82511" lon="4.68462">
        <ele>167.89</ele>
        <time>2022-04-25T05:10:23Z</time>
      </trkpt>
      <trkpt lat="44.82506" lon="4.6848">
        <ele>168.37</ele>
        <time>2022-04-25T05:10:33Z</time>
      </trkpt>
      <trkpt lat="44.82502" lon="4.68504">
        <ele>168.85</ele>
        <time>2022-04-25T05:10:46Z</time>
      </trkpt>
      <trkpt lat="44.82502" lon="4.68528">
        <ele>168.85</ele>
        <time>2022-04-25T05:11:00Z</time>
      </trkpt>
      <trkpt lat="44.82506" lon="4.68539">
        <ele>168.85</ele>
        <time>2022-04-25T05:11:07Z</time>
      </trkpt>
      <trkpt lat="44.82514" lon="4.6856">
        <ele>169.33</ele>
        <time>2022-04-25T05:11:21Z</time>
      </trkpt>
      <trkpt lat="44.82521" lon="4.68587">
        <ele>169.81</ele>
        <time>2022-04-25T05:11:36Z</time>
      </trkpt>
      <trkpt lat="44.82517" lon="4.68606">
        <ele>169.33</ele>
        <time>2022-04-25T05:11:47Z</time>
      </trkpt>
      <trkpt lat="44.82529" lon="4.68627">
        <ele>169.81</ele>
        <time>2022-04-25T05:12:09Z</time>
      </trkpt>
      <trkpt lat="44.82531" lon="4.68631">
        <ele>168.85</ele>
        <time>2022-04-25T05:12:30Z</time>
      </trkpt>
      <trkpt lat="44.82535" lon="4.68651">
        <ele>168.85</ele>
        <time>2022-04-25T05:12:44Z</time>
      </trkpt>
      <trkpt lat="44.82537" lon="4.68682">
        <ele>168.85</ele>
        <time>2022-04-25T05:13:01Z</time>
      </trkpt>
      <trkpt lat="44.82537" lon="4.687">
        <ele>168.85</ele>
        <time>2022-04-25T05:13:12Z</time>
      </trkpt>
      <trkpt lat="44.8253" lon="4.68744">
        <ele>166.45</ele>
        <time>2022-04-25T05:13:28Z</time>
      </trkpt>
      <trkpt lat="44.82525" lon="4.68761">
        <ele>163.08</ele>
        <time>2022-04-25T05:13:38Z</time>
      </trkpt>
      <trkpt lat="44.82518" lon="4.68782">
        <ele>159.24</ele>
        <time>2022-04-25T05:13:54Z</time>
      </trkpt>
      <trkpt lat="44.82517" lon="4.68804">
        <ele>159.72</ele>
        <time>2022-04-25T05:14:10Z</time>
      </trkpt>
      <trkpt lat="44.82519" lon="4.6883">
        <ele>165.48</ele>
        <time>2022-04-25T05:14:28Z</time>
      </trkpt>
      <trkpt lat="44.82525" lon="4.68864">
        <ele>165</ele>
        <time>2022-04-25T05:14:45Z</time>
      </trkpt>
      <trkpt lat="44.8253" lon="4.68895">
        <ele>169.33</ele>
        <time>2022-04-25T05:15:02Z</time>
      </trkpt>
      <trkpt lat="44.82526" lon="4.68908">
        <ele>171.25</ele>
        <time>2022-04-25T05:15:13Z</time>
      </trkpt>
      <trkpt lat="44.82521" lon="4.68937">
        <ele>172.21</ele>
        <time>2022-04-25T05:15:29Z</time>
      </trkpt>
      <trkpt lat="44.8252" lon="4.68961">
        <ele>173.17</ele>
        <time>2022-04-25T05:15:39Z</time>
      </trkpt>
      <trkpt lat="44.82518" lon="4.69012">
        <ele>170.29</ele>
        <time>2022-04-25T05:15:58Z</time>
      </trkpt>
      <trkpt lat="44.82507" lon="4.69042">
        <ele>173.17</ele>
        <time>2022-04-25T05:16:18Z</time>
      </trkpt>
      <trkpt lat="44.82493" lon="4.69074">
        <ele>180.38</ele>
        <time>2022-04-25T05:16:37Z</time>
      </trkpt>
      <trkpt lat="44.82479" lon="4.69103">
        <ele>181.83</ele>
        <time>2022-04-25T05:16:55Z</time>
      </trkpt>
      <trkpt lat="44.82479" lon="4.69128">
        <ele>191.44</ele>
        <time>2022-04-25T05:17:08Z</time>
      </trkpt>
      <trkpt lat="44.82481" lon="4.69157">
        <ele>206.82</ele>
        <time>2022-04-25T05:17:26Z</time>
      </trkpt>
      <trkpt lat="44.82478" lon="4.69179">
        <ele>213.55</ele>
        <time>2022-04-25T05:17:40Z</time>
      </trkpt>
      <trkpt lat="44.82474" lon="4.69188">
        <ele>213.07</ele>
        <time>2022-04-25T05:17:44Z</time>
      </trkpt>
      <trkpt lat="44.82465" lon="4.69219">
        <ele>210.67</ele>
        <time>2022-04-25T05:18:00Z</time>
      </trkpt>
      <trkpt lat="44.82453" lon="4.69249">
        <ele>207.78</ele>
        <time>2022-04-25T05:18:17Z</time>
      </trkpt>
      <trkpt lat="44.82448" lon="4.69257">
        <ele>205.38</ele>
        <time>2022-04-25T05:18:23Z</time>
      </trkpt>
      <trkpt lat="44.82437" lon="4.69281">
        <ele>199.61</ele>
        <time>2022-04-25T05:18:36Z</time>
      </trkpt>
      <trkpt lat="44.82434" lon="4.69285">
        <ele>197.69</ele>
        <time>2022-04-25T05:18:38Z</time>
      </trkpt>
      <trkpt lat="44.82425" lon="4.69313">
        <ele>200.57</ele>
        <time>2022-04-25T05:18:55Z</time>
      </trkpt>
      <trkpt lat="44.82415" lon="4.6934">
        <ele>203.46</ele>
        <time>2022-04-25T05:19:11Z</time>
      </trkpt>
      <trkpt lat="44.82404" lon="4.69367">
        <ele>200.57</ele>
        <time>2022-04-25T05:19:27Z</time>
      </trkpt>
      <trkpt lat="44.82404" lon="4.69368">
        <ele>201.05</ele>
        <time>2022-04-25T05:19:28Z</time>
      </trkpt>
      <trkpt lat="44.82388" lon="4.69399">
        <ele>201.05</ele>
        <time>2022-04-25T05:19:46Z</time>
      </trkpt>
      <trkpt lat="44.82377" lon="4.69423">
        <ele>206.34</ele>
        <time>2022-04-25T05:20:03Z</time>
      </trkpt>
      <trkpt lat="44.82368" lon="4.69452">
        <ele>213.07</ele>
        <time>2022-04-25T05:20:21Z</time>
      </trkpt>
      <trkpt lat="44.82356" lon="4.69474">
        <ele>214.51</ele>
        <time>2022-04-25T05:20:37Z</time>
      </trkpt>
      <trkpt lat="44.82336" lon="4.69495">
        <ele>220.28</ele>
        <time>2022-04-25T05:20:55Z</time>
      </trkpt>
      <trkpt lat="44.8232" lon="4.69513">
        <ele>225.57</ele>
        <time>2022-04-25T05:21:11Z</time>
      </trkpt>
      <trkpt lat="44.8229" lon="4.69534">
        <ele>215.47</ele>
        <time>2022-04-25T05:21:28Z</time>
      </trkpt>
      <trkpt lat="44.82266" lon="4.69549">
        <ele>207.3</ele>
        <time>2022-04-25T05:21:44Z</time>
      </trkpt>
      <trkpt lat="44.82233" lon="4.69575">
        <ele>192.4</ele>
        <time>2022-04-25T05:22:03Z</time>
      </trkpt>
      <trkpt lat="44.82207" lon="4.69586">
        <ele>187.11</ele>
        <time>2022-04-25T05:22:17Z</time>
      </trkpt>
      <trkpt lat="44.82189" lon="4.69584">
        <ele>189.04</ele>
        <time>2022-04-25T05:22:33Z</time>
      </trkpt>
      <trkpt lat="44.82157" lon="4.69585">
        <ele>180.87</ele>
        <time>2022-04-25T05:22:50Z</time>
      </trkpt>
      <trkpt lat="44.82152" lon="4.69583">
        <ele>177.5</ele>
        <time>2022-04-25T05:22:52Z</time>
      </trkpt>
      <trkpt lat="44.82132" lon="4.69567">
        <ele>165.96</ele>
        <time>2022-04-25T05:23:05Z</time>
      </trkpt>
      <trkpt lat="44.82115" lon="4.69552">
        <ele>165.48</ele>
        <time>2022-04-25T05:23:19Z</time>
      </trkpt>
      <trkpt lat="44.82096" lon="4.69534">
        <ele>165.48</ele>
        <time>2022-04-25T05:23:36Z</time>
      </trkpt>
      <trkpt lat="44.82078" lon="4.69517">
        <ele>167.41</ele>
        <time>2022-04-25T05:23:52Z</time>
      </trkpt>
      <trkpt lat="44.82064" lon="4.69498">
        <ele>166.45</ele>
        <time>2022-04-25T05:24:06Z</time>
      </trkpt>
      <trkpt lat="44.82043" lon="4.69479">
        <ele>165.48</ele>
        <time>2022-04-25T05:24:22Z</time>
      </trkpt>
      <trkpt lat="44.82021" lon="4.69461">
        <ele>163.56</ele>
        <time>2022-04-25T05:24:39Z</time>
      </trkpt>
      <trkpt lat="44.82001" lon="4.69442">
        <ele>161.16</ele>
        <time>2022-04-25T05:24:56Z</time>
      </trkpt>
      <trkpt lat="44.8198" lon="4.69427">
        <ele>159.24</ele>
        <time>2022-04-25T05:25:14Z</time>
      </trkpt>
      <trkpt lat="44.81952" lon="4.69416">
        <ele>159.24</ele>
        <time>2022-04-25T05:25:33Z</time>
      </trkpt>
      <trkpt lat="44.81932" lon="4.69411">
        <ele>156.83</ele>
        <time>2022-04-25T05:25:50Z</time>
      </trkpt>
      <trkpt lat="44.8191" lon="4.6941">
        <ele>158.27</ele>
        <time>2022-04-25T05:26:07Z</time>
      </trkpt>
      <trkpt lat="44.8189" lon="4.69414">
        <ele>161.64</ele>
        <time>2022-04-25T05:26:23Z</time>
      </trkpt>
      <trkpt lat="44.81866" lon="4.69415">
        <ele>166.45</ele>
        <time>2022-04-25T05:26:42Z</time>
      </trkpt>
      <trkpt lat="44.81843" lon="4.69428">
        <ele>164.52</ele>
        <time>2022-04-25T05:26:58Z</time>
      </trkpt>
      <trkpt lat="44.81822" lon="4.69436">
        <ele>168.85</ele>
        <time>2022-04-25T05:27:14Z</time>
      </trkpt>
      <trkpt lat="44.81808" lon="4.69441">
        <ele>172.21</ele>
        <time>2022-04-25T05:27:27Z</time>
      </trkpt>
      <trkpt lat="44.81786" lon="4.69449">
        <ele>171.25</ele>
        <time>2022-04-25T05:27:42Z</time>
      </trkpt>
      <trkpt lat="44.81765" lon="4.69461">
        <ele>175.1</ele>
        <time>2022-04-25T05:27:59Z</time>
      </trkpt>
      <trkpt lat="44.81744" lon="4.69471">
        <ele>175.58</ele>
        <time>2022-04-25T05:28:15Z</time>
      </trkpt>
      <trkpt lat="44.81726" lon="4.6949">
        <ele>177.02</ele>
        <time>2022-04-25T05:28:33Z</time>
      </trkpt>
      <trkpt lat="44.81708" lon="4.69508">
        <ele>176.06</ele>
        <time>2022-04-25T05:28:51Z</time>
      </trkpt>
      <trkpt lat="44.81703" lon="4.69532">
        <ele>177.02</ele>
        <time>2022-04-25T05:29:06Z</time>
      </trkpt>
      <trkpt lat="44.81702" lon="4.69554">
        <ele>185.19</ele>
        <time>2022-04-25T05:29:20Z</time>
      </trkpt>
      <trkpt lat="44.81701" lon="4.69559">
        <ele>185.19</ele>
        <time>2022-04-25T05:29:23Z</time>
      </trkpt>
      <trkpt lat="44.81696" lon="4.69595">
        <ele>183.75</ele>
        <time>2022-04-25T05:29:40Z</time>
      </trkpt>
      <trkpt lat="44.81686" lon="4.69619">
        <ele>177.98</ele>
        <time>2022-04-25T05:29:53Z</time>
      </trkpt>
      <trkpt lat="44.8168" lon="4.69649">
        <ele>170.77</ele>
        <time>2022-04-25T05:30:05Z</time>
      </trkpt>
      <trkpt lat="44.81667" lon="4.69682">
        <ele>168.37</ele>
        <time>2022-04-25T05:30:24Z</time>
      </trkpt>
      <trkpt lat="44.81655" lon="4.69689">
        <ele>163.56</ele>
        <time>2022-04-25T05:30:38Z</time>
      </trkpt>
      <trkpt lat="44.81649" lon="4.69697">
        <ele>158.27</ele>
        <time>2022-04-25T05:30:55Z</time>
      </trkpt>
      <trkpt lat="44.81643" lon="4.69708">
        <ele>152.99</ele>
        <time>2022-04-25T05:31:06Z</time>
      </trkpt>
      <trkpt lat="44.81637" lon="4.69733">
        <ele>152.03</ele>
        <time>2022-04-25T05:31:23Z</time>
      </trkpt>
      <trkpt lat="44.81638" lon="4.69742">
        <ele>154.91</ele>
        <time>2022-04-25T05:31:45Z</time>
      </trkpt>
      <trkpt lat="44.81638" lon="4.69751">
        <ele>155.87</ele>
        <time>2022-04-25T05:31:53Z</time>
      </trkpt>
      <trkpt lat="44.8164" lon="4.69775">
        <ele>158.27</ele>
        <time>2022-04-25T05:32:08Z</time>
      </trkpt>
      <trkpt lat="44.81645" lon="4.69801">
        <ele>162.12</ele>
        <time>2022-04-25T05:32:25Z</time>
      </trkpt>
      <trkpt lat="44.81644" lon="4.69816">
        <ele>162.12</ele>
        <time>2022-04-25T05:32:37Z</time>
      </trkpt>
      <trkpt lat="44.8166" lon="4.69855">
        <ele>159.72</ele>
        <time>2022-04-25T05:32:51Z</time>
      </trkpt>
      <trkpt lat="44.81664" lon="4.69882">
        <ele>157.31</ele>
        <time>2022-04-25T05:33:05Z</time>
      </trkpt>
      <trkpt lat="44.81665" lon="4.69891">
        <ele>156.35</ele>
        <time>2022-04-25T05:33:09Z</time>
      </trkpt>
      <trkpt lat="44.81669" lon="4.69919">
        <ele>154.91</ele>
        <time>2022-04-25T05:33:24Z</time>
      </trkpt>
      <trkpt lat="44.81668" lon="4.69932">
        <ele>152.99</ele>
        <time>2022-04-25T05:33:31Z</time>
      </trkpt>
      <trkpt lat="44.81666" lon="4.69942">
        <ele>151.06</ele>
        <time>2022-04-25T05:33:37Z</time>
      </trkpt>
      <trkpt lat="44.81668" lon="4.69973">
        <ele>149.14</ele>
        <time>2022-04-25T05:33:51Z</time>
      </trkpt>
      <trkpt lat="44.8167" lon="4.69984">
        <ele>150.58</ele>
        <time>2022-04-25T05:33:57Z</time>
      </trkpt>
      <trkpt lat="44.81669" lon="4.69995">
        <ele>152.99</ele>
        <time>2022-04-25T05:34:02Z</time>
      </trkpt>
      <trkpt lat="44.81669" lon="4.70006">
        <ele>155.39</ele>
        <time>2022-04-25T05:34:07Z</time>
      </trkpt>
      <trkpt lat="44.81667" lon="4.70038">
        <ele>165</ele>
        <time>2022-04-25T05:34:25Z</time>
      </trkpt>
      <trkpt lat="44.81668" lon="4.70069">
        <ele>177.5</ele>
        <time>2022-04-25T05:34:42Z</time>
      </trkpt>
      <trkpt lat="44.81673" lon="4.70087">
        <ele>190.96</ele>
        <time>2022-04-25T05:34:59Z</time>
      </trkpt>
      <trkpt lat="44.81676" lon="4.7009">
        <ele>197.21</ele>
        <time>2022-04-25T05:35:13Z</time>
      </trkpt>
      <trkpt lat="44.81672" lon="4.70095">
        <ele>201.53</ele>
        <time>2022-04-25T05:35:28Z</time>
      </trkpt>
      <trkpt lat="44.81658" lon="4.70101">
        <ele>191.44</ele>
        <time>2022-04-25T05:35:46Z</time>
      </trkpt>
      <trkpt lat="44.81652" lon="4.70102">
        <ele>190.96</ele>
        <time>2022-04-25T05:36:01Z</time>
      </trkpt>
      <trkpt lat="44.81648" lon="4.70096">
        <ele>192.88</ele>
        <time>2022-04-25T05:36:17Z</time>
      </trkpt>
      <trkpt lat="44.81641" lon="4.70087">
        <ele>193.36</ele>
        <time>2022-04-25T05:36:31Z</time>
      </trkpt>
      <trkpt lat="44.8163" lon="4.70077">
        <ele>193.84</ele>
        <time>2022-04-25T05:36:48Z</time>
      </trkpt>
      <trkpt lat="44.81622" lon="4.70067">
        <ele>196.73</ele>
        <time>2022-04-25T05:37:05Z</time>
      </trkpt>
      <trkpt lat="44.81612" lon="4.70062">
        <ele>202.49</ele>
        <time>2022-04-25T05:37:25Z</time>
      </trkpt>
      <trkpt lat="44.81604" lon="4.70063">
        <ele>205.38</ele>
        <time>2022-04-25T05:37:40Z</time>
      </trkpt>
      <trkpt lat="44.81589" lon="4.70073">
        <ele>194.8</ele>
        <time>2022-04-25T05:38:00Z</time>
      </trkpt>
      <trkpt lat="44.81576" lon="4.70092">
        <ele>192.88</ele>
        <time>2022-04-25T05:38:20Z</time>
      </trkpt>
      <trkpt lat="44.81566" lon="4.70106">
        <ele>188.56</ele>
        <time>2022-04-25T05:38:38Z</time>
      </trkpt>
      <trkpt lat="44.81564" lon="4.70121">
        <ele>189.52</ele>
        <time>2022-04-25T05:38:55Z</time>
      </trkpt>
      <trkpt lat="44.81558" lon="4.70124">
        <ele>192.4</ele>
        <time>2022-04-25T05:39:09Z</time>
      </trkpt>
      <trkpt lat="44.81549" lon="4.70124">
        <ele>195.28</ele>
        <time>2022-04-25T05:39:28Z</time>
      </trkpt>
      <trkpt lat="44.81532" lon="4.70129">
        <ele>195.77</ele>
        <time>2022-04-25T05:39:45Z</time>
      </trkpt>
      <trkpt lat="44.81528" lon="4.70135">
        <ele>198.17</ele>
        <time>2022-04-25T05:40:01Z</time>
      </trkpt>
      <trkpt lat="44.81519" lon="4.70133">
        <ele>198.65</ele>
        <time>2022-04-25T05:40:16Z</time>
      </trkpt>
      <trkpt lat="44.81511" lon="4.70138">
        <ele>202.98</ele>
        <time>2022-04-25T05:40:37Z</time>
      </trkpt>
      <trkpt lat="44.81505" lon="4.70143">
        <ele>207.78</ele>
        <time>2022-04-25T05:40:53Z</time>
      </trkpt>
      <trkpt lat="44.815" lon="4.70144">
        <ele>210.19</ele>
        <time>2022-04-25T05:41:06Z</time>
      </trkpt>
      <trkpt lat="44.81492" lon="4.70151">
        <ele>212.59</ele>
        <time>2022-04-25T05:41:26Z</time>
      </trkpt>
      <trkpt lat="44.81485" lon="4.70155">
        <ele>214.51</ele>
        <time>2022-04-25T05:41:44Z</time>
      </trkpt>
      <trkpt lat="44.81477" lon="4.70161">
        <ele>217.88</ele>
        <time>2022-04-25T05:42:02Z</time>
      </trkpt>
      <trkpt lat="44.81469" lon="4.70165">
        <ele>220.76</ele>
        <time>2022-04-25T05:42:19Z</time>
      </trkpt>
      <trkpt lat="44.8146" lon="4.70166">
        <ele>226.05</ele>
        <time>2022-04-25T05:42:40Z</time>
      </trkpt>
      <trkpt lat="44.81455" lon="4.70167">
        <ele>228.93</ele>
        <time>2022-04-25T05:43:00Z</time>
      </trkpt>
      <trkpt lat="44.81451" lon="4.7017">
        <ele>233.26</ele>
        <time>2022-04-25T05:43:19Z</time>
      </trkpt>
      <trkpt lat="44.81443" lon="4.7017">
        <ele>233.74</ele>
        <time>2022-04-25T05:43:38Z</time>
      </trkpt>
      <trkpt lat="44.8144" lon="4.70152">
        <ele>233.26</ele>
        <time>2022-04-25T05:43:55Z</time>
      </trkpt>
      <trkpt lat="44.8143" lon="4.70154">
        <ele>236.14</ele>
        <time>2022-04-25T05:44:15Z</time>
      </trkpt>
      <trkpt lat="44.81421" lon="4.70159">
        <ele>237.58</ele>
        <time>2022-04-25T05:44:36Z</time>
      </trkpt>
      <trkpt lat="44.8141" lon="4.70153">
        <ele>240.95</ele>
        <time>2022-04-25T05:44:57Z</time>
      </trkpt>
      <trkpt lat="44.81402" lon="4.70152">
        <ele>243.35</ele>
        <time>2022-04-25T05:45:15Z</time>
      </trkpt>
      <trkpt lat="44.81397" lon="4.70149">
        <ele>248.64</ele>
        <time>2022-04-25T05:45:30Z</time>
      </trkpt>
      <trkpt lat="44.81396" lon="4.70141">
        <ele>250.56</ele>
        <time>2022-04-25T05:45:45Z</time>
      </trkpt>
      <trkpt lat="44.81396" lon="4.70135">
        <ele>256.81</ele>
        <time>2022-04-25T05:46:03Z</time>
      </trkpt>
      <trkpt lat="44.81397" lon="4.70131">
        <ele>253.93</ele>
        <time>2022-04-25T05:46:16Z</time>
      </trkpt>
      <trkpt lat="44.81397" lon="4.70127">
        <ele>249.6</ele>
        <time>2022-04-25T05:46:31Z</time>
      </trkpt>
      <trkpt lat="44.81395" lon="4.70127">
        <ele>244.79</ele>
        <time>2022-04-25T05:47:01Z</time>
      </trkpt>
      <trkpt lat="44.81398" lon="4.7012">
        <ele>239.02</ele>
        <time>2022-04-25T05:47:27Z</time>
      </trkpt>
      <trkpt lat="44.81396" lon="4.70112">
        <ele>244.79</ele>
        <time>2022-04-25T05:47:43Z</time>
      </trkpt>
      <trkpt lat="44.81391" lon="4.70106">
        <ele>250.56</ele>
        <time>2022-04-25T05:48:01Z</time>
      </trkpt>
      <trkpt lat="44.81386" lon="4.70104">
        <ele>250.08</ele>
        <time>2022-04-25T05:48:20Z</time>
      </trkpt>
      <trkpt lat="44.81385" lon="4.70103">
        <ele>254.89</ele>
        <time>2022-04-25T05:48:38Z</time>
      </trkpt>
      <trkpt lat="44.8138" lon="4.70102">
        <ele>260.65</ele>
        <time>2022-04-25T05:48:54Z</time>
      </trkpt>
      <trkpt lat="44.81383" lon="4.70096">
        <ele>264.02</ele>
        <time>2022-04-25T05:49:10Z</time>
      </trkpt>
      <trkpt lat="44.81389" lon="4.7009">
        <ele>265.94</ele>
        <time>2022-04-25T05:49:24Z</time>
      </trkpt>
      <trkpt lat="44.8139" lon="4.7008">
        <ele>263.54</ele>
        <time>2022-04-25T05:49:39Z</time>
      </trkpt>
      <trkpt lat="44.81389" lon="4.70072">
        <ele>267.38</ele>
        <time>2022-04-25T05:49:54Z</time>
      </trkpt>
      <trkpt lat="44.81381" lon="4.70066">
        <ele>270.75</ele>
        <time>2022-04-25T05:50:11Z</time>
      </trkpt>
      <trkpt lat="44.81374" lon="4.70056">
        <ele>272.19</ele>
        <time>2022-04-25T05:50:27Z</time>
      </trkpt>
      <trkpt lat="44.81365" lon="4.70046">
        <ele>271.23</ele>
        <time>2022-04-25T05:50:44Z</time>
      </trkpt>
      <trkpt lat="44.81361" lon="4.70037">
        <ele>271.23</ele>
        <time>2022-04-25T05:50:59Z</time>
      </trkpt>
      <trkpt lat="44.81355" lon="4.70025">
        <ele>274.59</ele>
        <time>2022-04-25T05:51:17Z</time>
      </trkpt>
      <trkpt lat="44.81346" lon="4.70031">
        <ele>281.8</ele>
        <time>2022-04-25T05:51:36Z</time>
      </trkpt>
      <trkpt lat="44.81333" lon="4.70037">
        <ele>284.69</ele>
        <time>2022-04-25T05:51:56Z</time>
      </trkpt>
      <trkpt lat="44.81321" lon="4.70047">
        <ele>290.46</ele>
        <time>2022-04-25T05:52:16Z</time>
      </trkpt>
      <trkpt lat="44.81309" lon="4.7006">
        <ele>293.82</ele>
        <time>2022-04-25T05:52:34Z</time>
      </trkpt>
      <trkpt lat="44.8129" lon="4.70064">
        <ele>298.63</ele>
        <time>2022-04-25T05:52:54Z</time>
      </trkpt>
      <trkpt lat="44.81271" lon="4.70053">
        <ele>301.99</ele>
        <time>2022-04-25T05:53:11Z</time>
      </trkpt>
      <trkpt lat="44.81262" lon="4.70044">
        <ele>305.84</ele>
        <time>2022-04-25T05:53:26Z</time>
      </trkpt>
      <trkpt lat="44.81256" lon="4.70039">
        <ele>309.68</ele>
        <time>2022-04-25T05:53:38Z</time>
      </trkpt>
      <trkpt lat="44.81253" lon="4.70035">
        <ele>313.05</ele>
        <time>2022-04-25T05:53:58Z</time>
      </trkpt>
      <trkpt lat="44.81254" lon="4.70036">
        <ele>319.3</ele>
        <time>2022-04-25T05:54:27Z</time>
      </trkpt>
      <trkpt lat="44.81249" lon="4.70037">
        <ele>311.6</ele>
        <time>2022-04-25T05:54:56Z</time>
      </trkpt>
      <trkpt lat="44.81248" lon="4.70036">
        <ele>308.72</ele>
        <time>2022-04-25T05:55:29Z</time>
      </trkpt>
      <trkpt lat="44.8125" lon="4.70031">
        <ele>301.03</ele>
        <time>2022-04-25T05:55:56Z</time>
      </trkpt>
      <trkpt lat="44.81245" lon="4.70032">
        <ele>297.67</ele>
        <time>2022-04-25T05:56:13Z</time>
      </trkpt>
      <trkpt lat="44.81234" lon="4.70031">
        <ele>297.18</ele>
        <time>2022-04-25T05:56:31Z</time>
      </trkpt>
      <trkpt lat="44.81219" lon="4.70035">
        <ele>299.11</ele>
        <time>2022-04-25T05:56:50Z</time>
      </trkpt>
      <trkpt lat="44.81201" lon="4.70041">
        <ele>300.55</ele>
        <time>2022-04-25T05:57:09Z</time>
      </trkpt>
      <trkpt lat="44.81184" lon="4.70043">
        <ele>302.47</ele>
        <time>2022-04-25T05:57:26Z</time>
      </trkpt>
      <trkpt lat="44.81164" lon="4.70037">
        <ele>305.36</ele>
        <time>2022-04-25T05:57:45Z</time>
      </trkpt>
      <trkpt lat="44.81155" lon="4.70027">
        <ele>308.24</ele>
        <time>2022-04-25T05:57:58Z</time>
      </trkpt>
      <trkpt lat="44.81147" lon="4.70006">
        <ele>308.72</ele>
        <time>2022-04-25T05:58:13Z</time>
      </trkpt>
      <trkpt lat="44.8114" lon="4.70007">
        <ele>309.2</ele>
        <time>2022-04-25T05:58:29Z</time>
      </trkpt>
      <trkpt lat="44.81126" lon="4.70011">
        <ele>307.76</ele>
        <time>2022-04-25T05:58:43Z</time>
      </trkpt>
      <trkpt lat="44.81122" lon="4.70014">
        <ele>307.28</ele>
        <time>2022-04-25T05:58:46Z</time>
      </trkpt>
      <trkpt lat="44.81108" lon="4.70024">
        <ele>306.8</ele>
        <time>2022-04-25T05:59:01Z</time>
      </trkpt>
      <trkpt lat="44.8109" lon="4.70028">
        <ele>308.72</ele>
        <time>2022-04-25T05:59:19Z</time>
      </trkpt>
      <trkpt lat="44.81071" lon="4.70033">
        <ele>312.57</ele>
        <time>2022-04-25T05:59:37Z</time>
      </trkpt>
      <trkpt lat="44.81053" lon="4.70048">
        <ele>313.53</ele>
        <time>2022-04-25T05:59:55Z</time>
      </trkpt>
      <trkpt lat="44.81045" lon="4.70051">
        <ele>312.57</ele>
        <time>2022-04-25T06:00:13Z</time>
      </trkpt>
      <trkpt lat="44.81038" lon="4.70065">
        <ele>312.57</ele>
        <time>2022-04-25T06:00:27Z</time>
      </trkpt>
      <trkpt lat="44.81026" lon="4.70074">
        <ele>314.97</ele>
        <time>2022-04-25T06:00:44Z</time>
      </trkpt>
      <trkpt lat="44.81018" lon="4.70081">
        <ele>318.33</ele>
        <time>2022-04-25T06:00:59Z</time>
      </trkpt>
      <trkpt lat="44.81011" lon="4.70086">
        <ele>319.3</ele>
        <time>2022-04-25T06:01:15Z</time>
      </trkpt>
      <trkpt lat="44.81006" lon="4.70088">
        <ele>318.33</ele>
        <time>2022-04-25T06:01:46Z</time>
      </trkpt>
      <trkpt lat="44.81004" lon="4.70087">
        <ele>319.78</ele>
        <time>2022-04-25T06:02:04Z</time>
      </trkpt>
      <trkpt lat="44.81003" lon="4.70088">
        <ele>320.26</ele>
        <time>2022-04-25T06:02:24Z</time>
      </trkpt>
      <trkpt lat="44.80998" lon="4.70092">
        <ele>319.3</ele>
        <time>2022-04-25T06:02:42Z</time>
      </trkpt>
      <trkpt lat="44.80987" lon="4.70096">
        <ele>321.7</ele>
        <time>2022-04-25T06:02:59Z</time>
      </trkpt>
      <trkpt lat="44.80971" lon="4.70102">
        <ele>325.06</ele>
        <time>2022-04-25T06:03:19Z</time>
      </trkpt>
      <trkpt lat="44.80953" lon="4.70104">
        <ele>325.54</ele>
        <time>2022-04-25T06:03:36Z</time>
      </trkpt>
      <trkpt lat="44.80936" lon="4.70107">
        <ele>326.02</ele>
        <time>2022-04-25T06:03:55Z</time>
      </trkpt>
      <trkpt lat="44.80924" lon="4.7012">
        <ele>329.39</ele>
        <time>2022-04-25T06:04:12Z</time>
      </trkpt>
      <trkpt lat="44.80913" lon="4.70122">
        <ele>330.83</ele>
        <time>2022-04-25T06:04:28Z</time>
      </trkpt>
      <trkpt lat="44.80895" lon="4.70124">
        <ele>333.23</ele>
        <time>2022-04-25T06:04:49Z</time>
      </trkpt>
      <trkpt lat="44.80891" lon="4.70124">
        <ele>337.08</ele>
        <time>2022-04-25T06:05:10Z</time>
      </trkpt>
      <trkpt lat="44.80882" lon="4.7012">
        <ele>338.04</ele>
        <time>2022-04-25T06:05:26Z</time>
      </trkpt>
      <trkpt lat="44.80873" lon="4.70118">
        <ele>338.52</ele>
        <time>2022-04-25T06:05:42Z</time>
      </trkpt>
      <trkpt lat="44.80862" lon="4.70128">
        <ele>341.89</ele>
        <time>2022-04-25T06:05:57Z</time>
      </trkpt>
      <trkpt lat="44.80862" lon="4.7014">
        <ele>344.77</ele>
        <time>2022-04-25T06:06:13Z</time>
      </trkpt>
      <trkpt lat="44.80856" lon="4.70147">
        <ele>345.25</ele>
        <time>2022-04-25T06:06:31Z</time>
      </trkpt>
      <trkpt lat="44.80847" lon="4.70155">
        <ele>346.21</ele>
        <time>2022-04-25T06:06:48Z</time>
      </trkpt>
      <trkpt lat="44.80845" lon="4.70154">
        <ele>349.58</ele>
        <time>2022-04-25T06:07:04Z</time>
      </trkpt>
      <trkpt lat="44.80837" lon="4.70161">
        <ele>351.02</ele>
        <time>2022-04-25T06:07:21Z</time>
      </trkpt>
      <trkpt lat="44.80827" lon="4.70159">
        <ele>352.46</ele>
        <time>2022-04-25T06:07:38Z</time>
      </trkpt>
      <trkpt lat="44.8082" lon="4.70154">
        <ele>351.5</ele>
        <time>2022-04-25T06:07:55Z</time>
      </trkpt>
      <trkpt lat="44.80814" lon="4.70154">
        <ele>354.38</ele>
        <time>2022-04-25T06:08:11Z</time>
      </trkpt>
      <trkpt lat="44.80811" lon="4.70153">
        <ele>355.83</ele>
        <time>2022-04-25T06:08:32Z</time>
      </trkpt>
      <trkpt lat="44.80799" lon="4.70147">
        <ele>356.31</ele>
        <time>2022-04-25T06:08:49Z</time>
      </trkpt>
      <trkpt lat="44.80781" lon="4.70137">
        <ele>356.79</ele>
        <time>2022-04-25T06:09:07Z</time>
      </trkpt>
      <trkpt lat="44.80765" lon="4.70139">
        <ele>357.27</ele>
        <time>2022-04-25T06:09:24Z</time>
      </trkpt>
      <trkpt lat="44.80745" lon="4.70138">
        <ele>363.04</ele>
        <time>2022-04-25T06:09:43Z</time>
      </trkpt>
      <trkpt lat="44.80733" lon="4.70125">
        <ele>366.4</ele>
        <time>2022-04-25T06:10:00Z</time>
      </trkpt>
      <trkpt lat="44.80716" lon="4.70112">
        <ele>366.4</ele>
        <time>2022-04-25T06:10:17Z</time>
      </trkpt>
      <trkpt lat="44.80701" lon="4.70102">
        <ele>367.36</ele>
        <time>2022-04-25T06:10:33Z</time>
      </trkpt>
      <trkpt lat="44.80683" lon="4.70101">
        <ele>369.28</ele>
        <time>2022-04-25T06:10:49Z</time>
      </trkpt>
      <trkpt lat="44.8067" lon="4.70084">
        <ele>375.05</ele>
        <time>2022-04-25T06:11:07Z</time>
      </trkpt>
      <trkpt lat="44.80659" lon="4.70066">
        <ele>379.86</ele>
        <time>2022-04-25T06:11:25Z</time>
      </trkpt>
      <trkpt lat="44.80654" lon="4.70046">
        <ele>381.78</ele>
        <time>2022-04-25T06:11:41Z</time>
      </trkpt>
      <trkpt lat="44.80647" lon="4.7003">
        <ele>383.22</ele>
        <time>2022-04-25T06:11:56Z</time>
      </trkpt>
      <trkpt lat="44.80635" lon="4.7002">
        <ele>386.59</ele>
        <time>2022-04-25T06:12:14Z</time>
      </trkpt>
      <trkpt lat="44.80626" lon="4.70016">
        <ele>390.43</ele>
        <time>2022-04-25T06:12:33Z</time>
      </trkpt>
      <trkpt lat="44.80614" lon="4.70017">
        <ele>394.76</ele>
        <time>2022-04-25T06:12:55Z</time>
      </trkpt>
      <trkpt lat="44.806" lon="4.70013">
        <ele>397.64</ele>
        <time>2022-04-25T06:13:13Z</time>
      </trkpt>
      <trkpt lat="44.80597" lon="4.7">
        <ele>401.97</ele>
        <time>2022-04-25T06:13:32Z</time>
      </trkpt>
      <trkpt lat="44.80596" lon="4.69985">
        <ele>408.7</ele>
        <time>2022-04-25T06:13:50Z</time>
      </trkpt>
      <trkpt lat="44.80592" lon="4.69979">
        <ele>414.47</ele>
        <time>2022-04-25T06:14:12Z</time>
      </trkpt>
      <trkpt lat="44.80597" lon="4.69966">
        <ele>411.58</ele>
        <time>2022-04-25T06:14:32Z</time>
      </trkpt>
      <trkpt lat="44.806" lon="4.69944">
        <ele>410.14</ele>
        <time>2022-04-25T06:14:51Z</time>
      </trkpt>
      <trkpt lat="44.80607" lon="4.69912">
        <ele>406.29</ele>
        <time>2022-04-25T06:15:10Z</time>
      </trkpt>
      <trkpt lat="44.80597" lon="4.699">
        <ele>405.81</ele>
        <time>2022-04-25T06:15:26Z</time>
      </trkpt>
      <trkpt lat="44.80584" lon="4.69889">
        <ele>406.29</ele>
        <time>2022-04-25T06:15:45Z</time>
      </trkpt>
      <trkpt lat="44.80566" lon="4.69878">
        <ele>413.98</ele>
        <time>2022-04-25T06:16:06Z</time>
      </trkpt>
      <trkpt lat="44.80548" lon="4.69882">
        <ele>419.75</ele>
        <time>2022-04-25T06:16:24Z</time>
      </trkpt>
      <trkpt lat="44.8054" lon="4.69878">
        <ele>423.12</ele>
        <time>2022-04-25T06:16:50Z</time>
      </trkpt>
      <trkpt lat="44.80543" lon="4.6988">
        <ele>426</ele>
        <time>2022-04-25T06:17:06Z</time>
      </trkpt>
      <trkpt lat="44.80551" lon="4.69887">
        <ele>426</ele>
        <time>2022-04-25T06:17:24Z</time>
      </trkpt>
      <trkpt lat="44.8056" lon="4.69907">
        <ele>431.29</ele>
        <time>2022-04-25T06:17:44Z</time>
      </trkpt>
      <trkpt lat="44.80563" lon="4.69928">
        <ele>435.61</ele>
        <time>2022-04-25T06:18:00Z</time>
      </trkpt>
      <trkpt lat="44.8055" lon="4.69938">
        <ele>437.06</ele>
        <time>2022-04-25T06:18:18Z</time>
      </trkpt>
      <trkpt lat="44.8053" lon="4.69937">
        <ele>437.06</ele>
        <time>2022-04-25T06:18:38Z</time>
      </trkpt>
      <trkpt lat="44.80506" lon="4.69939">
        <ele>435.13</ele>
        <time>2022-04-25T06:18:59Z</time>
      </trkpt>
      <trkpt lat="44.80483" lon="4.69939">
        <ele>433.21</ele>
        <time>2022-04-25T06:19:19Z</time>
      </trkpt>
      <trkpt lat="44.80463" lon="4.69942">
        <ele>436.58</ele>
        <time>2022-04-25T06:19:38Z</time>
      </trkpt>
      <trkpt lat="44.80449" lon="4.6995">
        <ele>439.94</ele>
        <time>2022-04-25T06:19:57Z</time>
      </trkpt>
      <trkpt lat="44.80436" lon="4.69959">
        <ele>441.86</ele>
        <time>2022-04-25T06:20:17Z</time>
      </trkpt>
      <trkpt lat="44.80415" lon="4.69968">
        <ele>446.19</ele>
        <time>2022-04-25T06:20:37Z</time>
      </trkpt>
      <trkpt lat="44.80395" lon="4.69976">
        <ele>450.52</ele>
        <time>2022-04-25T06:20:56Z</time>
      </trkpt>
      <trkpt lat="44.80379" lon="4.6998">
        <ele>452.44</ele>
        <time>2022-04-25T06:21:12Z</time>
      </trkpt>
      <trkpt lat="44.8036" lon="4.69977">
        <ele>452.92</ele>
        <time>2022-04-25T06:21:31Z</time>
      </trkpt>
      <trkpt lat="44.80348" lon="4.69972">
        <ele>457.72</ele>
        <time>2022-04-25T06:21:54Z</time>
      </trkpt>
      <trkpt lat="44.80342" lon="4.69973">
        <ele>459.17</ele>
        <time>2022-04-25T06:22:24Z</time>
      </trkpt>
      <trkpt lat="44.80329" lon="4.69967">
        <ele>459.65</ele>
        <time>2022-04-25T06:22:41Z</time>
      </trkpt>
      <trkpt lat="44.80313" lon="4.69972">
        <ele>460.13</ele>
        <time>2022-04-25T06:22:57Z</time>
      </trkpt>
      <trkpt lat="44.80295" lon="4.69976">
        <ele>460.61</ele>
        <time>2022-04-25T06:23:11Z</time>
      </trkpt>
      <trkpt lat="44.80269" lon="4.69982">
        <ele>458.69</ele>
        <time>2022-04-25T06:23:28Z</time>
      </trkpt>
      <trkpt lat="44.80257" lon="4.69989">
        <ele>459.17</ele>
        <time>2022-04-25T06:23:38Z</time>
      </trkpt>
      <trkpt lat="44.80239" lon="4.69995">
        <ele>459.17</ele>
        <time>2022-04-25T06:23:54Z</time>
      </trkpt>
      <trkpt lat="44.8022" lon="4.70005">
        <ele>459.17</ele>
        <time>2022-04-25T06:24:12Z</time>
      </trkpt>
      <trkpt lat="44.80215" lon="4.70009">
        <ele>459.17</ele>
        <time>2022-04-25T06:24:16Z</time>
      </trkpt>
      <trkpt lat="44.80204" lon="4.7002">
        <ele>461.09</ele>
        <time>2022-04-25T06:24:29Z</time>
      </trkpt>
      <trkpt lat="44.80197" lon="4.70041">
        <ele>463.97</ele>
        <time>2022-04-25T06:24:44Z</time>
      </trkpt>
      <trkpt lat="44.80183" lon="4.70023">
        <ele>464.45</ele>
        <time>2022-04-25T06:25:02Z</time>
      </trkpt>
      <trkpt lat="44.80177" lon="4.70023">
        <ele>463.97</ele>
        <time>2022-04-25T06:25:17Z</time>
      </trkpt>
      <trkpt lat="44.80167" lon="4.70032">
        <ele>468.78</ele>
        <time>2022-04-25T06:25:34Z</time>
      </trkpt>
      <trkpt lat="44.80151" lon="4.7005">
        <ele>475.03</ele>
        <time>2022-04-25T06:25:55Z</time>
      </trkpt>
      <trkpt lat="44.80142" lon="4.70062">
        <ele>477.91</ele>
        <time>2022-04-25T06:26:12Z</time>
      </trkpt>
      <trkpt lat="44.80129" lon="4.70078">
        <ele>483.2</ele>
        <time>2022-04-25T06:26:31Z</time>
      </trkpt>
      <trkpt lat="44.80122" lon="4.7009">
        <ele>483.68</ele>
        <time>2022-04-25T06:26:43Z</time>
      </trkpt>
      <trkpt lat="44.80119" lon="4.70114">
        <ele>486.56</ele>
        <time>2022-04-25T06:27:00Z</time>
      </trkpt>
      <trkpt lat="44.80121" lon="4.70116">
        <ele>486.56</ele>
        <time>2022-04-25T06:27:19Z</time>
      </trkpt>
      <trkpt lat="44.80121" lon="4.70115">
        <ele>486.08</ele>
        <time>2022-04-25T06:27:39Z</time>
      </trkpt>
      <trkpt lat="44.80118" lon="4.70132">
        <ele>486.56</ele>
        <time>2022-04-25T06:27:58Z</time>
      </trkpt>
      <trkpt lat="44.80109" lon="4.7016">
        <ele>488.49</ele>
        <time>2022-04-25T06:28:14Z</time>
      </trkpt>
      <trkpt lat="44.80089" lon="4.70179">
        <ele>490.89</ele>
        <time>2022-04-25T06:28:34Z</time>
      </trkpt>
      <trkpt lat="44.80081" lon="4.70179">
        <ele>490.89</ele>
        <time>2022-04-25T06:28:47Z</time>
      </trkpt>
      <trkpt lat="44.80081" lon="4.70179">
        <ele>490.41</ele>
        <time>2022-04-25T06:28:48Z</time>
      </trkpt>
      <trkpt lat="44.80091" lon="4.70151">
        <ele>490.41</ele>
        <time>2022-04-25T06:29:06Z</time>
      </trkpt>
      <trkpt lat="44.80094" lon="4.7013">
        <ele>490.41</ele>
        <time>2022-04-25T06:29:16Z</time>
      </trkpt>
      <trkpt lat="44.80087" lon="4.70102">
        <ele>492.33</ele>
        <time>2022-04-25T06:29:33Z</time>
      </trkpt>
      <trkpt lat="44.80072" lon="4.70091">
        <ele>493.29</ele>
        <time>2022-04-25T06:29:47Z</time>
      </trkpt>
      <trkpt lat="44.80067" lon="4.70091">
        <ele>494.26</ele>
        <time>2022-04-25T06:29:52Z</time>
      </trkpt>
      <trkpt lat="44.80039" lon="4.70092">
        <ele>496.66</ele>
        <time>2022-04-25T06:30:14Z</time>
      </trkpt>
      <trkpt lat="44.80012" lon="4.70091">
        <ele>498.1</ele>
        <time>2022-04-25T06:30:36Z</time>
      </trkpt>
      <trkpt lat="44.7999" lon="4.70083">
        <ele>499.06</ele>
        <time>2022-04-25T06:30:53Z</time>
      </trkpt>
      <trkpt lat="44.79965" lon="4.70081">
        <ele>501.95</ele>
        <time>2022-04-25T06:31:11Z</time>
      </trkpt>
      <trkpt lat="44.79941" lon="4.70071">
        <ele>503.39</ele>
        <time>2022-04-25T06:31:29Z</time>
      </trkpt>
      <trkpt lat="44.79913" lon="4.70053">
        <ele>505.31</ele>
        <time>2022-04-25T06:31:51Z</time>
      </trkpt>
      <trkpt lat="44.79892" lon="4.70034">
        <ele>507.23</ele>
        <time>2022-04-25T06:32:09Z</time>
      </trkpt>
      <trkpt lat="44.79869" lon="4.70016">
        <ele>508.67</ele>
        <time>2022-04-25T06:32:29Z</time>
      </trkpt>
      <trkpt lat="44.7984" lon="4.70009">
        <ele>510.6</ele>
        <time>2022-04-25T06:32:49Z</time>
      </trkpt>
      <trkpt lat="44.79814" lon="4.70015">
        <ele>510.6</ele>
        <time>2022-04-25T06:33:07Z</time>
      </trkpt>
      <trkpt lat="44.79787" lon="4.70027">
        <ele>511.56</ele>
        <time>2022-04-25T06:33:27Z</time>
      </trkpt>
      <trkpt lat="44.79759" lon="4.70033">
        <ele>514.44</ele>
        <time>2022-04-25T06:33:48Z</time>
      </trkpt>
      <trkpt lat="44.79726" lon="4.70044">
        <ele>513</ele>
        <time>2022-04-25T06:34:10Z</time>
      </trkpt>
      <trkpt lat="44.79698" lon="4.70046">
        <ele>513.96</ele>
        <time>2022-04-25T06:34:29Z</time>
      </trkpt>
      <trkpt lat="44.79665" lon="4.7004">
        <ele>513</ele>
        <time>2022-04-25T06:34:52Z</time>
      </trkpt>
      <trkpt lat="44.79638" lon="4.70045">
        <ele>514.92</ele>
        <time>2022-04-25T06:35:13Z</time>
      </trkpt>
      <trkpt lat="44.79622" lon="4.70047">
        <ele>514.92</ele>
        <time>2022-04-25T06:35:28Z</time>
      </trkpt>
      <trkpt lat="44.79603" lon="4.70052">
        <ele>513.96</ele>
        <time>2022-04-25T06:35:44Z</time>
      </trkpt>
      <trkpt lat="44.79575" lon="4.70044">
        <ele>513</ele>
        <time>2022-04-25T06:36:04Z</time>
      </trkpt>
      <trkpt lat="44.79547" lon="4.70027">
        <ele>512.04</ele>
        <time>2022-04-25T06:36:25Z</time>
      </trkpt>
      <trkpt lat="44.79525" lon="4.70002">
        <ele>514.44</ele>
        <time>2022-04-25T06:36:46Z</time>
      </trkpt>
      <trkpt lat="44.79523" lon="4.70001">
        <ele>517.81</ele>
        <time>2022-04-25T06:37:01Z</time>
      </trkpt>
      <trkpt lat="44.79521" lon="4.69998">
        <ele>517.33</ele>
        <time>2022-04-25T06:37:16Z</time>
      </trkpt>
      <trkpt lat="44.79521" lon="4.69998">
        <ele>517.33</ele>
        <time>2022-04-25T06:37:19Z</time>
      </trkpt>
      <trkpt lat="44.79521" lon="4.69995">
        <ele>517.33</ele>
        <time>2022-04-25T06:37:21Z</time>
      </trkpt>
      <trkpt lat="44.79539" lon="4.69973">
        <ele>516.85</ele>
        <time>2022-04-25T06:37:38Z</time>
      </trkpt>
      <trkpt lat="44.79566" lon="4.69956">
        <ele>515.88</ele>
        <time>2022-04-25T06:37:58Z</time>
      </trkpt>
      <trkpt lat="44.79591" lon="4.69941">
        <ele>515.88</ele>
        <time>2022-04-25T06:38:18Z</time>
      </trkpt>
      <trkpt lat="44.79613" lon="4.69912">
        <ele>517.81</ele>
        <time>2022-04-25T06:38:41Z</time>
      </trkpt>
      <trkpt lat="44.79633" lon="4.69877">
        <ele>518.77</ele>
        <time>2022-04-25T06:39:03Z</time>
      </trkpt>
      <trkpt lat="44.79653" lon="4.69846">
        <ele>517.81</ele>
        <time>2022-04-25T06:39:23Z</time>
      </trkpt>
      <trkpt lat="44.79665" lon="4.69815">
        <ele>516.85</ele>
        <time>2022-04-25T06:39:43Z</time>
      </trkpt>
      <trkpt lat="44.79667" lon="4.69801">
        <ele>517.33</ele>
        <time>2022-04-25T06:39:56Z</time>
      </trkpt>
      <trkpt lat="44.79669" lon="4.69769">
        <ele>519.73</ele>
        <time>2022-04-25T06:40:14Z</time>
      </trkpt>
      <trkpt lat="44.79666" lon="4.6973">
        <ele>521.17</ele>
        <time>2022-04-25T06:40:35Z</time>
      </trkpt>
      <trkpt lat="44.79662" lon="4.69697">
        <ele>520.21</ele>
        <time>2022-04-25T06:40:50Z</time>
      </trkpt>
      <trkpt lat="44.7964" lon="4.69669">
        <ele>518.77</ele>
        <time>2022-04-25T06:41:10Z</time>
      </trkpt>
      <trkpt lat="44.79616" lon="4.69641">
        <ele>515.88</ele>
        <time>2022-04-25T06:41:31Z</time>
      </trkpt>
      <trkpt lat="44.79609" lon="4.69606">
        <ele>512.52</ele>
        <time>2022-04-25T06:41:49Z</time>
      </trkpt>
      <trkpt lat="44.79612" lon="4.69569">
        <ele>509.64</ele>
        <time>2022-04-25T06:42:08Z</time>
      </trkpt>
      <trkpt lat="44.79614" lon="4.69557">
        <ele>518.29</ele>
        <time>2022-04-25T06:42:24Z</time>
      </trkpt>
      <trkpt lat="44.79598" lon="4.69531">
        <ele>520.69</ele>
        <time>2022-04-25T06:42:42Z</time>
      </trkpt>
      <trkpt lat="44.79582" lon="4.69526">
        <ele>524.54</ele>
        <time>2022-04-25T06:42:56Z</time>
      </trkpt>
      <trkpt lat="44.7955" lon="4.69535">
        <ele>525.5</ele>
        <time>2022-04-25T06:43:18Z</time>
      </trkpt>
      <trkpt lat="44.79531" lon="4.69518">
        <ele>522.61</ele>
        <time>2022-04-25T06:43:35Z</time>
      </trkpt>
      <trkpt lat="44.79515" lon="4.69488">
        <ele>517.81</ele>
        <time>2022-04-25T06:43:54Z</time>
      </trkpt>
      <trkpt lat="44.79511" lon="4.69483">
        <ele>515.88</ele>
        <time>2022-04-25T06:44:08Z</time>
      </trkpt>
      <trkpt lat="44.79497" lon="4.69466">
        <ele>517.81</ele>
        <time>2022-04-25T06:44:23Z</time>
      </trkpt>
      <trkpt lat="44.79484" lon="4.69449">
        <ele>529.82</ele>
        <time>2022-04-25T06:44:40Z</time>
      </trkpt>
      <trkpt lat="44.79465" lon="4.69433">
        <ele>533.67</ele>
        <time>2022-04-25T06:45:00Z</time>
      </trkpt>
      <trkpt lat="44.79439" lon="4.69407">
        <ele>535.59</ele>
        <time>2022-04-25T06:45:19Z</time>
      </trkpt>
      <trkpt lat="44.79436" lon="4.69395">
        <ele>534.63</ele>
        <time>2022-04-25T06:45:23Z</time>
      </trkpt>
      <trkpt lat="44.79435" lon="4.69368">
        <ele>537.99</ele>
        <time>2022-04-25T06:45:40Z</time>
      </trkpt>
      <trkpt lat="44.79437" lon="4.69364">
        <ele>538.96</ele>
        <time>2022-04-25T06:45:43Z</time>
      </trkpt>
      <trkpt lat="44.79451" lon="4.69336">
        <ele>544.24</ele>
        <time>2022-04-25T06:46:01Z</time>
      </trkpt>
      <trkpt lat="44.79469" lon="4.69308">
        <ele>550.01</ele>
        <time>2022-04-25T06:46:20Z</time>
      </trkpt>
      <trkpt lat="44.79483" lon="4.69289">
        <ele>549.53</ele>
        <time>2022-04-25T06:46:38Z</time>
      </trkpt>
      <trkpt lat="44.79493" lon="4.69279">
        <ele>543.28</ele>
        <time>2022-04-25T06:46:55Z</time>
      </trkpt>
      <trkpt lat="44.79498" lon="4.69279">
        <ele>543.76</ele>
        <time>2022-04-25T06:47:13Z</time>
      </trkpt>
      <trkpt lat="44.79509" lon="4.69274">
        <ele>543.76</ele>
        <time>2022-04-25T06:47:25Z</time>
      </trkpt>
      <trkpt lat="44.79525" lon="4.69242">
        <ele>541.84</ele>
        <time>2022-04-25T06:47:44Z</time>
      </trkpt>
      <trkpt lat="44.79528" lon="4.69212">
        <ele>536.55</ele>
        <time>2022-04-25T06:48:00Z</time>
      </trkpt>
      <trkpt lat="44.79529" lon="4.6917">
        <ele>527.9</ele>
        <time>2022-04-25T06:48:21Z</time>
      </trkpt>
      <trkpt lat="44.79533" lon="4.69134">
        <ele>523.58</ele>
        <time>2022-04-25T06:48:40Z</time>
      </trkpt>
      <trkpt lat="44.79535" lon="4.691">
        <ele>523.09</ele>
        <time>2022-04-25T06:48:57Z</time>
      </trkpt>
      <trkpt lat="44.79539" lon="4.69066">
        <ele>529.82</ele>
        <time>2022-04-25T06:49:15Z</time>
      </trkpt>
      <trkpt lat="44.79537" lon="4.69044">
        <ele>535.11</ele>
        <time>2022-04-25T06:49:28Z</time>
      </trkpt>
      <trkpt lat="44.79534" lon="4.69001">
        <ele>533.67</ele>
        <time>2022-04-25T06:49:47Z</time>
      </trkpt>
      <trkpt lat="44.79523" lon="4.68965">
        <ele>533.19</ele>
        <time>2022-04-25T06:50:04Z</time>
      </trkpt>
      <trkpt lat="44.79509" lon="4.6893">
        <ele>534.15</ele>
        <time>2022-04-25T06:50:25Z</time>
      </trkpt>
      <trkpt lat="44.79501" lon="4.68896">
        <ele>533.67</ele>
        <time>2022-04-25T06:50:45Z</time>
      </trkpt>
      <trkpt lat="44.79497" lon="4.68858">
        <ele>534.63</ele>
        <time>2022-04-25T06:51:04Z</time>
      </trkpt>
      <trkpt lat="44.79478" lon="4.68818">
        <ele>533.67</ele>
        <time>2022-04-25T06:51:26Z</time>
      </trkpt>
      <trkpt lat="44.79454" lon="4.68806">
        <ele>536.55</ele>
        <time>2022-04-25T06:51:45Z</time>
      </trkpt>
      <trkpt lat="44.79427" lon="4.68794">
        <ele>539.92</ele>
        <time>2022-04-25T06:52:05Z</time>
      </trkpt>
      <trkpt lat="44.79407" lon="4.68773">
        <ele>540.88</ele>
        <time>2022-04-25T06:52:23Z</time>
      </trkpt>
      <trkpt lat="44.79378" lon="4.68742">
        <ele>542.32</ele>
        <time>2022-04-25T06:52:48Z</time>
      </trkpt>
      <trkpt lat="44.79363" lon="4.6872">
        <ele>546.17</ele>
        <time>2022-04-25T06:53:06Z</time>
      </trkpt>
      <trkpt lat="44.79356" lon="4.68708">
        <ele>551.93</ele>
        <time>2022-04-25T06:53:22Z</time>
      </trkpt>
      <trkpt lat="44.79342" lon="4.68693">
        <ele>554.34</ele>
        <time>2022-04-25T06:53:38Z</time>
      </trkpt>
      <trkpt lat="44.79336" lon="4.68659">
        <ele>554.34</ele>
        <time>2022-04-25T06:53:54Z</time>
      </trkpt>
      <trkpt lat="44.79337" lon="4.68639">
        <ele>556.74</ele>
        <time>2022-04-25T06:54:09Z</time>
      </trkpt>
      <trkpt lat="44.79342" lon="4.68642">
        <ele>555.3</ele>
        <time>2022-04-25T06:54:28Z</time>
      </trkpt>
      <trkpt lat="44.79333" lon="4.68636">
        <ele>558.18</ele>
        <time>2022-04-25T06:54:41Z</time>
      </trkpt>
      <trkpt lat="44.79333" lon="4.68627">
        <ele>560.59</ele>
        <time>2022-04-25T06:54:46Z</time>
      </trkpt>
      <trkpt lat="44.79347" lon="4.68579">
        <ele>563.47</ele>
        <time>2022-04-25T06:55:04Z</time>
      </trkpt>
      <trkpt lat="44.7934" lon="4.68542">
        <ele>562.03</ele>
        <time>2022-04-25T06:55:22Z</time>
      </trkpt>
      <trkpt lat="44.79316" lon="4.68512">
        <ele>559.14</ele>
        <time>2022-04-25T06:55:45Z</time>
      </trkpt>
      <trkpt lat="44.793" lon="4.68476">
        <ele>555.78</ele>
        <time>2022-04-25T06:56:06Z</time>
      </trkpt>
      <trkpt lat="44.79298" lon="4.68455">
        <ele>555.78</ele>
        <time>2022-04-25T06:56:23Z</time>
      </trkpt>
      <trkpt lat="44.79296" lon="4.68448">
        <ele>556.26</ele>
        <time>2022-04-25T06:56:45Z</time>
      </trkpt>
      <trkpt lat="44.79295" lon="4.68426">
        <ele>557.22</ele>
        <time>2022-04-25T06:57:00Z</time>
      </trkpt>
      <trkpt lat="44.79298" lon="4.68384">
        <ele>562.03</ele>
        <time>2022-04-25T06:57:24Z</time>
      </trkpt>
      <trkpt lat="44.79299" lon="4.68375">
        <ele>564.43</ele>
        <time>2022-04-25T06:57:32Z</time>
      </trkpt>
      <trkpt lat="44.79309" lon="4.68357">
        <ele>567.8</ele>
        <time>2022-04-25T06:57:45Z</time>
      </trkpt>
      <trkpt lat="44.79314" lon="4.68329">
        <ele>571.16</ele>
        <time>2022-04-25T06:58:01Z</time>
      </trkpt>
      <trkpt lat="44.79308" lon="4.68328">
        <ele>572.12</ele>
        <time>2022-04-25T06:58:10Z</time>
      </trkpt>
      <trkpt lat="44.79303" lon="4.68325">
        <ele>573.08</ele>
        <time>2022-04-25T06:58:14Z</time>
      </trkpt>
      <trkpt lat="44.79279" lon="4.6832">
        <ele>575.01</ele>
        <time>2022-04-25T06:58:34Z</time>
      </trkpt>
      <trkpt lat="44.79277" lon="4.68322">
        <ele>574.53</ele>
        <time>2022-04-25T06:58:36Z</time>
      </trkpt>
      <trkpt lat="44.79259" lon="4.6834">
        <ele>573.56</ele>
        <time>2022-04-25T06:58:54Z</time>
      </trkpt>
      <trkpt lat="44.79235" lon="4.68345">
        <ele>573.08</ele>
        <time>2022-04-25T06:59:12Z</time>
      </trkpt>
      <trkpt lat="44.79212" lon="4.68356">
        <ele>572.12</ele>
        <time>2022-04-25T06:59:29Z</time>
      </trkpt>
      <trkpt lat="44.79196" lon="4.68363">
        <ele>569.72</ele>
        <time>2022-04-25T06:59:44Z</time>
      </trkpt>
      <trkpt lat="44.79179" lon="4.68369">
        <ele>566.35</ele>
        <time>2022-04-25T07:00:00Z</time>
      </trkpt>
      <trkpt lat="44.79168" lon="4.68374">
        <ele>564.91</ele>
        <time>2022-04-25T07:00:15Z</time>
      </trkpt>
      <trkpt lat="44.79147" lon="4.6838">
        <ele>562.03</ele>
        <time>2022-04-25T07:00:31Z</time>
      </trkpt>
      <trkpt lat="44.79131" lon="4.6838">
        <ele>559.14</ele>
        <time>2022-04-25T07:00:48Z</time>
      </trkpt>
      <trkpt lat="44.79113" lon="4.6838">
        <ele>559.62</ele>
        <time>2022-04-25T07:01:04Z</time>
      </trkpt>
      <trkpt lat="44.79093" lon="4.6838">
        <ele>559.62</ele>
        <time>2022-04-25T07:01:21Z</time>
      </trkpt>
      <trkpt lat="44.79076" lon="4.68378">
        <ele>559.62</ele>
        <time>2022-04-25T07:01:36Z</time>
      </trkpt>
      <trkpt lat="44.79074" lon="4.68378">
        <ele>559.62</ele>
        <time>2022-04-25T07:01:38Z</time>
      </trkpt>
      <trkpt lat="44.7905" lon="4.68364">
        <ele>557.22</ele>
        <time>2022-04-25T07:01:56Z</time>
      </trkpt>
      <trkpt lat="44.79024" lon="4.68342">
        <ele>557.22</ele>
        <time>2022-04-25T07:02:17Z</time>
      </trkpt>
      <trkpt lat="44.78993" lon="4.68334">
        <ele>559.14</ele>
        <time>2022-04-25T07:02:39Z</time>
      </trkpt>
      <trkpt lat="44.78968" lon="4.68328">
        <ele>560.59</ele>
        <time>2022-04-25T07:02:57Z</time>
      </trkpt>
      <trkpt lat="44.78951" lon="4.68305">
        <ele>559.62</ele>
        <time>2022-04-25T07:03:14Z</time>
      </trkpt>
      <trkpt lat="44.78932" lon="4.68279">
        <ele>562.51</ele>
        <time>2022-04-25T07:03:34Z</time>
      </trkpt>
      <trkpt lat="44.7892" lon="4.68263">
        <ele>562.51</ele>
        <time>2022-04-25T07:03:49Z</time>
      </trkpt>
      <trkpt lat="44.78899" lon="4.68233">
        <ele>565.39</ele>
        <time>2022-04-25T07:04:11Z</time>
      </trkpt>
      <trkpt lat="44.78884" lon="4.68225">
        <ele>567.32</ele>
        <time>2022-04-25T07:04:27Z</time>
      </trkpt>
      <trkpt lat="44.78891" lon="4.68196">
        <ele>571.64</ele>
        <time>2022-04-25T07:04:47Z</time>
      </trkpt>
      <trkpt lat="44.78892" lon="4.68184">
        <ele>573.08</ele>
        <time>2022-04-25T07:04:53Z</time>
      </trkpt>
      <trkpt lat="44.7889" lon="4.68175">
        <ele>573.08</ele>
        <time>2022-04-25T07:04:57Z</time>
      </trkpt>
      <trkpt lat="44.78885" lon="4.68145">
        <ele>575.01</ele>
        <time>2022-04-25T07:05:16Z</time>
      </trkpt>
      <trkpt lat="44.78876" lon="4.68111">
        <ele>577.89</ele>
        <time>2022-04-25T07:05:38Z</time>
      </trkpt>
      <trkpt lat="44.78875" lon="4.68109">
        <ele>578.37</ele>
        <time>2022-04-25T07:05:40Z</time>
      </trkpt>
      <trkpt lat="44.78866" lon="4.68059">
        <ele>583.18</ele>
        <time>2022-04-25T07:06:06Z</time>
      </trkpt>
      <trkpt lat="44.78857" lon="4.68031">
        <ele>582.22</ele>
        <time>2022-04-25T07:06:25Z</time>
      </trkpt>
      <trkpt lat="44.78855" lon="4.68026">
        <ele>582.7</ele>
        <time>2022-04-25T07:06:39Z</time>
      </trkpt>
      <trkpt lat="44.78852" lon="4.67998">
        <ele>585.1</ele>
        <time>2022-04-25T07:06:59Z</time>
      </trkpt>
      <trkpt lat="44.78852" lon="4.67992">
        <ele>587.98</ele>
        <time>2022-04-25T07:07:14Z</time>
      </trkpt>
      <trkpt lat="44.78851" lon="4.67991">
        <ele>589.43</ele>
        <time>2022-04-25T07:07:32Z</time>
      </trkpt>
      <trkpt lat="44.78852" lon="4.6799">
        <ele>591.83</ele>
        <time>2022-04-25T07:08:03Z</time>
      </trkpt>
      <trkpt lat="44.78852" lon="4.67989">
        <ele>589.91</ele>
        <time>2022-04-25T07:08:21Z</time>
      </trkpt>
      <trkpt lat="44.78851" lon="4.6799">
        <ele>589.91</ele>
        <time>2022-04-25T07:08:43Z</time>
      </trkpt>
      <trkpt lat="44.78852" lon="4.6799">
        <ele>589.91</ele>
        <time>2022-04-25T07:09:10Z</time>
      </trkpt>
      <trkpt lat="44.78852" lon="4.67988">
        <ele>589.91</ele>
        <time>2022-04-25T07:09:32Z</time>
      </trkpt>
      <trkpt lat="44.78844" lon="4.67959">
        <ele>589.43</ele>
        <time>2022-04-25T07:09:51Z</time>
      </trkpt>
      <trkpt lat="44.78839" lon="4.6793">
        <ele>589.43</ele>
        <time>2022-04-25T07:10:09Z</time>
      </trkpt>
      <trkpt lat="44.78844" lon="4.67909">
        <ele>591.83</ele>
        <time>2022-04-25T07:10:24Z</time>
      </trkpt>
      <trkpt lat="44.78854" lon="4.67897">
        <ele>594.23</ele>
        <time>2022-04-25T07:10:35Z</time>
      </trkpt>
      <trkpt lat="44.78856" lon="4.67894">
        <ele>595.19</ele>
        <time>2022-04-25T07:10:38Z</time>
      </trkpt>
      <trkpt lat="44.78879" lon="4.67884">
        <ele>598.56</ele>
        <time>2022-04-25T07:10:57Z</time>
      </trkpt>
      <trkpt lat="44.78889" lon="4.67871">
        <ele>601.44</ele>
        <time>2022-04-25T07:11:15Z</time>
      </trkpt>
      <trkpt lat="44.78889" lon="4.67867">
        <ele>601.44</ele>
        <time>2022-04-25T07:11:18Z</time>
      </trkpt>
      <trkpt lat="44.78889" lon="4.67838">
        <ele>603.85</ele>
        <time>2022-04-25T07:11:36Z</time>
      </trkpt>
      <trkpt lat="44.7889" lon="4.67808">
        <ele>605.29</ele>
        <time>2022-04-25T07:11:55Z</time>
      </trkpt>
      <trkpt lat="44.78884" lon="4.67776">
        <ele>604.81</ele>
        <time>2022-04-25T07:12:13Z</time>
      </trkpt>
      <trkpt lat="44.78878" lon="4.67744">
        <ele>605.77</ele>
        <time>2022-04-25T07:12:31Z</time>
      </trkpt>
      <trkpt lat="44.78872" lon="4.67715">
        <ele>606.25</ele>
        <time>2022-04-25T07:12:49Z</time>
      </trkpt>
      <trkpt lat="44.78873" lon="4.67703">
        <ele>608.17</ele>
        <time>2022-04-25T07:13:04Z</time>
      </trkpt>
      <trkpt lat="44.78875" lon="4.67667">
        <ele>611.54</ele>
        <time>2022-04-25T07:13:26Z</time>
      </trkpt>
      <trkpt lat="44.78876" lon="4.6763">
        <ele>613.94</ele>
        <time>2022-04-25T07:13:46Z</time>
      </trkpt>
      <trkpt lat="44.78885" lon="4.67588">
        <ele>617.3</ele>
        <time>2022-04-25T07:14:10Z</time>
      </trkpt>
      <trkpt lat="44.78888" lon="4.67558">
        <ele>621.63</ele>
        <time>2022-04-25T07:14:28Z</time>
      </trkpt>
      <trkpt lat="44.78887" lon="4.67543">
        <ele>624.03</ele>
        <time>2022-04-25T07:14:47Z</time>
      </trkpt>
      <trkpt lat="44.78885" lon="4.67521">
        <ele>624.51</ele>
        <time>2022-04-25T07:15:02Z</time>
      </trkpt>
      <trkpt lat="44.78879" lon="4.67507">
        <ele>624.99</ele>
        <time>2022-04-25T07:15:13Z</time>
      </trkpt>
      <trkpt lat="44.78866" lon="4.67481">
        <ele>623.55</ele>
        <time>2022-04-25T07:15:30Z</time>
      </trkpt>
      <trkpt lat="44.7885" lon="4.6745">
        <ele>624.51</ele>
        <time>2022-04-25T07:15:50Z</time>
      </trkpt>
      <trkpt lat="44.78842" lon="4.67427">
        <ele>625.96</ele>
        <time>2022-04-25T07:16:05Z</time>
      </trkpt>
      <trkpt lat="44.78831" lon="4.67403">
        <ele>627.4</ele>
        <time>2022-04-25T07:16:23Z</time>
      </trkpt>
      <trkpt lat="44.78819" lon="4.67387">
        <ele>628.36</ele>
        <time>2022-04-25T07:16:39Z</time>
      </trkpt>
      <trkpt lat="44.7881" lon="4.67362">
        <ele>629.32</ele>
        <time>2022-04-25T07:16:55Z</time>
      </trkpt>
      <trkpt lat="44.7881" lon="4.67346">
        <ele>632.68</ele>
        <time>2022-04-25T07:17:10Z</time>
      </trkpt>
      <trkpt lat="44.78812" lon="4.67334">
        <ele>634.13</ele>
        <time>2022-04-25T07:17:27Z</time>
      </trkpt>
      <trkpt lat="44.78815" lon="4.67316">
        <ele>633.65</ele>
        <time>2022-04-25T07:17:47Z</time>
      </trkpt>
      <trkpt lat="44.78814" lon="4.67285">
        <ele>630.28</ele>
        <time>2022-04-25T07:18:04Z</time>
      </trkpt>
      <trkpt lat="44.78811" lon="4.67254">
        <ele>629.8</ele>
        <time>2022-04-25T07:18:21Z</time>
      </trkpt>
      <trkpt lat="44.78812" lon="4.67214">
        <ele>631.24</ele>
        <time>2022-04-25T07:18:42Z</time>
      </trkpt>
      <trkpt lat="44.7881" lon="4.67184">
        <ele>632.2</ele>
        <time>2022-04-25T07:19:02Z</time>
      </trkpt>
      <trkpt lat="44.78801" lon="4.67154">
        <ele>634.13</ele>
        <time>2022-04-25T07:19:21Z</time>
      </trkpt>
      <trkpt lat="44.78792" lon="4.67124">
        <ele>635.09</ele>
        <time>2022-04-25T07:19:40Z</time>
      </trkpt>
      <trkpt lat="44.78779" lon="4.67102">
        <ele>637.01</ele>
        <time>2022-04-25T07:19:58Z</time>
      </trkpt>
      <trkpt lat="44.78779" lon="4.671">
        <ele>637.01</ele>
        <time>2022-04-25T07:19:59Z</time>
      </trkpt>
      <trkpt lat="44.78772" lon="4.67078">
        <ele>637.01</ele>
        <time>2022-04-25T07:20:14Z</time>
      </trkpt>
      <trkpt lat="44.78769" lon="4.67068">
        <ele>637.97</ele>
        <time>2022-04-25T07:20:22Z</time>
      </trkpt>
      <trkpt lat="44.78766" lon="4.67054">
        <ele>638.45</ele>
        <time>2022-04-25T07:20:31Z</time>
      </trkpt>
      <trkpt lat="44.7876" lon="4.67028">
        <ele>639.41</ele>
        <time>2022-04-25T07:20:49Z</time>
      </trkpt>
      <trkpt lat="44.78759" lon="4.67002">
        <ele>640.38</ele>
        <time>2022-04-25T07:21:07Z</time>
      </trkpt>
      <trkpt lat="44.78757" lon="4.66978">
        <ele>641.82</ele>
        <time>2022-04-25T07:21:23Z</time>
      </trkpt>
      <trkpt lat="44.78758" lon="4.66953">
        <ele>643.74</ele>
        <time>2022-04-25T07:21:39Z</time>
      </trkpt>
      <trkpt lat="44.78757" lon="4.66946">
        <ele>646.14</ele>
        <time>2022-04-25T07:21:52Z</time>
      </trkpt>
      <trkpt lat="44.78749" lon="4.66929">
        <ele>648.55</ele>
        <time>2022-04-25T07:22:08Z</time>
      </trkpt>
      <trkpt lat="44.78739" lon="4.66903">
        <ele>651.91</ele>
        <time>2022-04-25T07:22:26Z</time>
      </trkpt>
      <trkpt lat="44.7873" lon="4.66882">
        <ele>654.8</ele>
        <time>2022-04-25T07:22:43Z</time>
      </trkpt>
      <trkpt lat="44.78722" lon="4.66869">
        <ele>656.72</ele>
        <time>2022-04-25T07:22:56Z</time>
      </trkpt>
      <trkpt lat="44.78713" lon="4.66853">
        <ele>656.72</ele>
        <time>2022-04-25T07:23:11Z</time>
      </trkpt>
      <trkpt lat="44.78711" lon="4.66849">
        <ele>656.72</ele>
        <time>2022-04-25T07:23:14Z</time>
      </trkpt>
      <trkpt lat="44.78706" lon="4.66839">
        <ele>657.2</ele>
        <time>2022-04-25T07:23:23Z</time>
      </trkpt>
      <trkpt lat="44.78684" lon="4.66829">
        <ele>659.12</ele>
        <time>2022-04-25T07:23:41Z</time>
      </trkpt>
      <trkpt lat="44.78664" lon="4.6682">
        <ele>660.56</ele>
        <time>2022-04-25T07:23:59Z</time>
      </trkpt>
      <trkpt lat="44.78656" lon="4.66817">
        <ele>661.52</ele>
        <time>2022-04-25T07:24:13Z</time>
      </trkpt>
      <trkpt lat="44.78642" lon="4.66805">
        <ele>663.45</ele>
        <time>2022-04-25T07:24:29Z</time>
      </trkpt>
      <trkpt lat="44.78634" lon="4.66793">
        <ele>663.45</ele>
        <time>2022-04-25T07:24:39Z</time>
      </trkpt>
      <trkpt lat="44.7863" lon="4.66773">
        <ele>665.37</ele>
        <time>2022-04-25T07:24:55Z</time>
      </trkpt>
      <trkpt lat="44.78623" lon="4.66748">
        <ele>666.81</ele>
        <time>2022-04-25T07:25:11Z</time>
      </trkpt>
      <trkpt lat="44.78619" lon="4.66724">
        <ele>669.22</ele>
        <time>2022-04-25T07:25:28Z</time>
      </trkpt>
      <trkpt lat="44.78619" lon="4.66704">
        <ele>672.1</ele>
        <time>2022-04-25T07:25:45Z</time>
      </trkpt>
      <trkpt lat="44.78618" lon="4.66688">
        <ele>673.54</ele>
        <time>2022-04-25T07:26:01Z</time>
      </trkpt>
      <trkpt lat="44.78618" lon="4.66673">
        <ele>674.98</ele>
        <time>2022-04-25T07:26:14Z</time>
      </trkpt>
      <trkpt lat="44.78613" lon="4.6665">
        <ele>676.91</ele>
        <time>2022-04-25T07:26:31Z</time>
      </trkpt>
      <trkpt lat="44.78603" lon="4.6663">
        <ele>675.46</ele>
        <time>2022-04-25T07:26:48Z</time>
      </trkpt>
      <trkpt lat="44.78602" lon="4.66622">
        <ele>674.98</ele>
        <time>2022-04-25T07:27:04Z</time>
      </trkpt>
      <trkpt lat="44.78597" lon="4.66611">
        <ele>675.94</ele>
        <time>2022-04-25T07:27:18Z</time>
      </trkpt>
      <trkpt lat="44.78588" lon="4.666">
        <ele>676.91</ele>
        <time>2022-04-25T07:27:35Z</time>
      </trkpt>
      <trkpt lat="44.78578" lon="4.66587">
        <ele>676.91</ele>
        <time>2022-04-25T07:27:48Z</time>
      </trkpt>
      <trkpt lat="44.7857" lon="4.66573">
        <ele>679.79</ele>
        <time>2022-04-25T07:28:05Z</time>
      </trkpt>
      <trkpt lat="44.78563" lon="4.66562">
        <ele>682.19</ele>
        <time>2022-04-25T07:28:21Z</time>
      </trkpt>
      <trkpt lat="44.78556" lon="4.6655">
        <ele>682.67</ele>
        <time>2022-04-25T07:28:35Z</time>
      </trkpt>
      <trkpt lat="44.78546" lon="4.66538">
        <ele>683.15</ele>
        <time>2022-04-25T07:28:50Z</time>
      </trkpt>
      <trkpt lat="44.78544" lon="4.66534">
        <ele>684.6</ele>
        <time>2022-04-25T07:29:05Z</time>
      </trkpt>
      <trkpt lat="44.78536" lon="4.66525">
        <ele>687</ele>
        <time>2022-04-25T07:29:20Z</time>
      </trkpt>
      <trkpt lat="44.78528" lon="4.6651">
        <ele>687.96</ele>
        <time>2022-04-25T07:29:36Z</time>
      </trkpt>
      <trkpt lat="44.78522" lon="4.66492">
        <ele>688.44</ele>
        <time>2022-04-25T07:29:51Z</time>
      </trkpt>
      <trkpt lat="44.7852" lon="4.66475">
        <ele>688.92</ele>
        <time>2022-04-25T07:30:03Z</time>
      </trkpt>
      <trkpt lat="44.78517" lon="4.66461">
        <ele>690.36</ele>
        <time>2022-04-25T07:30:13Z</time>
      </trkpt>
      <trkpt lat="44.78516" lon="4.66455">
        <ele>690.84</ele>
        <time>2022-04-25T07:30:17Z</time>
      </trkpt>
      <trkpt lat="44.78512" lon="4.66427">
        <ele>694.21</ele>
        <time>2022-04-25T07:30:36Z</time>
      </trkpt>
      <trkpt lat="44.78508" lon="4.66408">
        <ele>696.13</ele>
        <time>2022-04-25T07:30:52Z</time>
      </trkpt>
      <trkpt lat="44.78506" lon="4.66402">
        <ele>696.13</ele>
        <time>2022-04-25T07:30:56Z</time>
      </trkpt>
      <trkpt lat="44.78504" lon="4.664">
        <ele>696.13</ele>
        <time>2022-04-25T07:30:58Z</time>
      </trkpt>
      <trkpt lat="44.78498" lon="4.66376">
        <ele>698.53</ele>
        <time>2022-04-25T07:31:16Z</time>
      </trkpt>
      <trkpt lat="44.78493" lon="4.66352">
        <ele>700.46</ele>
        <time>2022-04-25T07:31:33Z</time>
      </trkpt>
      <trkpt lat="44.78493" lon="4.66348">
        <ele>700.46</ele>
        <time>2022-04-25T07:31:35Z</time>
      </trkpt>
      <trkpt lat="44.78493" lon="4.66344">
        <ele>700.94</ele>
        <time>2022-04-25T07:31:39Z</time>
      </trkpt>
      <trkpt lat="44.78488" lon="4.66318">
        <ele>702.86</ele>
        <time>2022-04-25T07:31:56Z</time>
      </trkpt>
      <trkpt lat="44.78487" lon="4.66313">
        <ele>703.34</ele>
        <time>2022-04-25T07:31:59Z</time>
      </trkpt>
      <trkpt lat="44.78487" lon="4.66296">
        <ele>704.78</ele>
        <time>2022-04-25T07:32:11Z</time>
      </trkpt>
      <trkpt lat="44.78486" lon="4.66289">
        <ele>706.23</ele>
        <time>2022-04-25T07:32:16Z</time>
      </trkpt>
      <trkpt lat="44.78481" lon="4.66271">
        <ele>709.59</ele>
        <time>2022-04-25T07:32:30Z</time>
      </trkpt>
      <trkpt lat="44.7848" lon="4.66269">
        <ele>711.99</ele>
        <time>2022-04-25T07:32:46Z</time>
      </trkpt>
      <trkpt lat="44.78479" lon="4.66263">
        <ele>711.51</ele>
        <time>2022-04-25T07:33:08Z</time>
      </trkpt>
      <trkpt lat="44.78478" lon="4.66259">
        <ele>711.51</ele>
        <time>2022-04-25T07:33:11Z</time>
      </trkpt>
      <trkpt lat="44.78473" lon="4.66231">
        <ele>712.47</ele>
        <time>2022-04-25T07:33:28Z</time>
      </trkpt>
      <trkpt lat="44.78474" lon="4.6621">
        <ele>714.4</ele>
        <time>2022-04-25T07:33:42Z</time>
      </trkpt>
      <trkpt lat="44.78477" lon="4.66196">
        <ele>714.88</ele>
        <time>2022-04-25T07:33:51Z</time>
      </trkpt>
      <trkpt lat="44.78478" lon="4.66189">
        <ele>715.36</ele>
        <time>2022-04-25T07:33:55Z</time>
      </trkpt>
      <trkpt lat="44.78484" lon="4.6615">
        <ele>716.8</ele>
        <time>2022-04-25T07:34:16Z</time>
      </trkpt>
      <trkpt lat="44.78484" lon="4.6611">
        <ele>716.8</ele>
        <time>2022-04-25T07:34:37Z</time>
      </trkpt>
      <trkpt lat="44.78484" lon="4.66106">
        <ele>717.76</ele>
        <time>2022-04-25T07:34:45Z</time>
      </trkpt>
      <trkpt lat="44.78485" lon="4.66098">
        <ele>718.24</ele>
        <time>2022-04-25T07:34:50Z</time>
      </trkpt>
      <trkpt lat="44.78486" lon="4.66063">
        <ele>719.2</ele>
        <time>2022-04-25T07:35:10Z</time>
      </trkpt>
      <trkpt lat="44.78485" lon="4.66033">
        <ele>722.09</ele>
        <time>2022-04-25T07:35:29Z</time>
      </trkpt>
      <trkpt lat="44.78488" lon="4.66002">
        <ele>724.01</ele>
        <time>2022-04-25T07:35:49Z</time>
      </trkpt>
      <trkpt lat="44.78494" lon="4.6599">
        <ele>727.86</ele>
        <time>2022-04-25T07:36:05Z</time>
      </trkpt>
      <trkpt lat="44.78495" lon="4.6599">
        <ele>727.86</ele>
        <time>2022-04-25T07:36:06Z</time>
      </trkpt>
      <trkpt lat="44.78497" lon="4.65991">
        <ele>729.3</ele>
        <time>2022-04-25T07:36:22Z</time>
      </trkpt>
      <trkpt lat="44.78498" lon="4.65988">
        <ele>729.78</ele>
        <time>2022-04-25T07:36:39Z</time>
      </trkpt>
      <trkpt lat="44.78498" lon="4.65988">
        <ele>730.26</ele>
        <time>2022-04-25T07:36:41Z</time>
      </trkpt>
      <trkpt lat="44.78497" lon="4.65993">
        <ele>731.22</ele>
        <time>2022-04-25T07:36:54Z</time>
      </trkpt>
      <trkpt lat="44.78497" lon="4.65992">
        <ele>731.7</ele>
        <time>2022-04-25T07:37:03Z</time>
      </trkpt>
      <trkpt lat="44.78498" lon="4.65992">
        <ele>731.22</ele>
        <time>2022-04-25T07:37:19Z</time>
      </trkpt>
      <trkpt lat="44.78498" lon="4.65991">
        <ele>732.18</ele>
        <time>2022-04-25T07:37:32Z</time>
      </trkpt>
      <trkpt lat="44.78497" lon="4.6599">
        <ele>731.7</ele>
        <time>2022-04-25T07:37:51Z</time>
      </trkpt>
      <trkpt lat="44.78497" lon="4.65989">
        <ele>730.26</ele>
        <time>2022-04-25T07:38:24Z</time>
      </trkpt>
      <trkpt lat="44.78498" lon="4.65989">
        <ele>730.74</ele>
        <time>2022-04-25T07:39:10Z</time>
      </trkpt>
      <trkpt lat="44.78497" lon="4.65989">
        <ele>730.74</ele>
        <time>2022-04-25T07:39:15Z</time>
      </trkpt>
      <trkpt lat="44.78507" lon="4.65986">
        <ele>730.74</ele>
        <time>2022-04-25T07:39:26Z</time>
      </trkpt>
      <trkpt lat="44.78515" lon="4.65982">
        <ele>727.86</ele>
        <time>2022-04-25T07:39:35Z</time>
      </trkpt>
      <trkpt lat="44.78518" lon="4.65966">
        <ele>726.41</ele>
        <time>2022-04-25T07:39:45Z</time>
      </trkpt>
      <trkpt lat="44.78516" lon="4.65946">
        <ele>725.93</ele>
        <time>2022-04-25T07:39:56Z</time>
      </trkpt>
      <trkpt lat="44.78514" lon="4.65942">
        <ele>725.45</ele>
        <time>2022-04-25T07:39:59Z</time>
      </trkpt>
      <trkpt lat="44.78513" lon="4.65936">
        <ele>725.45</ele>
        <time>2022-04-25T07:40:03Z</time>
      </trkpt>
      <trkpt lat="44.7851" lon="4.65928">
        <ele>724.49</ele>
        <time>2022-04-25T07:40:08Z</time>
      </trkpt>
      <trkpt lat="44.78507" lon="4.65923">
        <ele>723.53</ele>
        <time>2022-04-25T07:40:13Z</time>
      </trkpt>
      <trkpt lat="44.78503" lon="4.65909">
        <ele>721.61</ele>
        <time>2022-04-25T07:40:22Z</time>
      </trkpt>
      <trkpt lat="44.78499" lon="4.65898">
        <ele>720.65</ele>
        <time>2022-04-25T07:40:30Z</time>
      </trkpt>
      <trkpt lat="44.78495" lon="4.65888">
        <ele>719.2</ele>
        <time>2022-04-25T07:40:38Z</time>
      </trkpt>
      <trkpt lat="44.78494" lon="4.65875">
        <ele>717.28</ele>
        <time>2022-04-25T07:40:52Z</time>
      </trkpt>
      <trkpt lat="44.78493" lon="4.65874">
        <ele>716.32</ele>
        <time>2022-04-25T07:41:11Z</time>
      </trkpt>
      <trkpt lat="44.7849" lon="4.65867">
        <ele>715.84</ele>
        <time>2022-04-25T07:41:21Z</time>
      </trkpt>
      <trkpt lat="44.78486" lon="4.65853">
        <ele>713.92</ele>
        <time>2022-04-25T07:41:31Z</time>
      </trkpt>
      <trkpt lat="44.78485" lon="4.65837">
        <ele>714.4</ele>
        <time>2022-04-25T07:41:42Z</time>
      </trkpt>
      <trkpt lat="44.78483" lon="4.65811">
        <ele>713.44</ele>
        <time>2022-04-25T07:41:57Z</time>
      </trkpt>
      <trkpt lat="44.78484" lon="4.6579">
        <ele>712.95</ele>
        <time>2022-04-25T07:42:12Z</time>
      </trkpt>
      <trkpt lat="44.78482" lon="4.65777">
        <ele>711.51</ele>
        <time>2022-04-25T07:42:20Z</time>
      </trkpt>
      <trkpt lat="44.78476" lon="4.65762">
        <ele>708.15</ele>
        <time>2022-04-25T07:42:29Z</time>
      </trkpt>
      <trkpt lat="44.7847" lon="4.6574">
        <ele>701.9</ele>
        <time>2022-04-25T07:42:43Z</time>
      </trkpt>
      <trkpt lat="44.7847" lon="4.6572">
        <ele>700.46</ele>
        <time>2022-04-25T07:42:55Z</time>
      </trkpt>
      <trkpt lat="44.78468" lon="4.65706">
        <ele>699.5</ele>
        <time>2022-04-25T07:43:07Z</time>
      </trkpt>
      <trkpt lat="44.78471" lon="4.65686">
        <ele>700.94</ele>
        <time>2022-04-25T07:43:21Z</time>
      </trkpt>
      <trkpt lat="44.78475" lon="4.6567">
        <ele>704.78</ele>
        <time>2022-04-25T07:43:32Z</time>
      </trkpt>
      <trkpt lat="44.78475" lon="4.65665">
        <ele>705.26</ele>
        <time>2022-04-25T07:43:36Z</time>
      </trkpt>
      <trkpt lat="44.78477" lon="4.65651">
        <ele>707.19</ele>
        <time>2022-04-25T07:43:45Z</time>
      </trkpt>
      <trkpt lat="44.7849" lon="4.65634">
        <ele>711.99</ele>
        <time>2022-04-25T07:44:00Z</time>
      </trkpt>
      <trkpt lat="44.78503" lon="4.6562">
        <ele>711.03</ele>
        <time>2022-04-25T07:44:13Z</time>
      </trkpt>
      <trkpt lat="44.78512" lon="4.65603">
        <ele>703.82</ele>
        <time>2022-04-25T07:44:24Z</time>
      </trkpt>
      <trkpt lat="44.78512" lon="4.65601">
        <ele>703.82</ele>
        <time>2022-04-25T07:44:25Z</time>
      </trkpt>
      <trkpt lat="44.78521" lon="4.65586">
        <ele>701.42</ele>
        <time>2022-04-25T07:44:37Z</time>
      </trkpt>
      <trkpt lat="44.78537" lon="4.65566">
        <ele>701.42</ele>
        <time>2022-04-25T07:44:51Z</time>
      </trkpt>
      <trkpt lat="44.78552" lon="4.65551">
        <ele>700.94</ele>
        <time>2022-04-25T07:45:06Z</time>
      </trkpt>
      <trkpt lat="44.78572" lon="4.65529">
        <ele>700.94</ele>
        <time>2022-04-25T07:45:24Z</time>
      </trkpt>
      <trkpt lat="44.78583" lon="4.65517">
        <ele>700.46</ele>
        <time>2022-04-25T07:45:34Z</time>
      </trkpt>
      <trkpt lat="44.78594" lon="4.65493">
        <ele>699.5</ele>
        <time>2022-04-25T07:45:49Z</time>
      </trkpt>
      <trkpt lat="44.786" lon="4.65461">
        <ele>695.65</ele>
        <time>2022-04-25T07:46:04Z</time>
      </trkpt>
      <trkpt lat="44.78603" lon="4.65434">
        <ele>693.25</ele>
        <time>2022-04-25T07:46:18Z</time>
      </trkpt>
      <trkpt lat="44.78604" lon="4.65425">
        <ele>693.25</ele>
        <time>2022-04-25T07:46:23Z</time>
      </trkpt>
      <trkpt lat="44.78612" lon="4.65399">
        <ele>695.65</ele>
        <time>2022-04-25T07:46:37Z</time>
      </trkpt>
      <trkpt lat="44.78618" lon="4.65386">
        <ele>696.13</ele>
        <time>2022-04-25T07:46:46Z</time>
      </trkpt>
      <trkpt lat="44.7862" lon="4.6537">
        <ele>694.69</ele>
        <time>2022-04-25T07:46:51Z</time>
      </trkpt>
      <trkpt lat="44.78605" lon="4.65336">
        <ele>685.56</ele>
        <time>2022-04-25T07:47:08Z</time>
      </trkpt>
      <trkpt lat="44.78592" lon="4.65324">
        <ele>681.23</ele>
        <time>2022-04-25T07:47:20Z</time>
      </trkpt>
      <trkpt lat="44.78577" lon="4.65311">
        <ele>676.42</ele>
        <time>2022-04-25T07:47:35Z</time>
      </trkpt>
      <trkpt lat="44.78564" lon="4.65296">
        <ele>675.46</ele>
        <time>2022-04-25T07:47:51Z</time>
      </trkpt>
      <trkpt lat="44.78554" lon="4.65279">
        <ele>677.87</ele>
        <time>2022-04-25T07:48:04Z</time>
      </trkpt>
      <trkpt lat="44.78536" lon="4.65262">
        <ele>680.75</ele>
        <time>2022-04-25T07:48:20Z</time>
      </trkpt>
      <trkpt lat="44.78529" lon="4.65255">
        <ele>681.71</ele>
        <time>2022-04-25T07:48:31Z</time>
      </trkpt>
      <trkpt lat="44.78512" lon="4.65236">
        <ele>680.27</ele>
        <time>2022-04-25T07:48:47Z</time>
      </trkpt>
      <trkpt lat="44.78501" lon="4.65216">
        <ele>682.67</ele>
        <time>2022-04-25T07:49:02Z</time>
      </trkpt>
      <trkpt lat="44.78493" lon="4.65203">
        <ele>683.15</ele>
        <time>2022-04-25T07:49:13Z</time>
      </trkpt>
      <trkpt lat="44.78495" lon="4.65183">
        <ele>683.63</ele>
        <time>2022-04-25T07:49:29Z</time>
      </trkpt>
      <trkpt lat="44.78499" lon="4.65169">
        <ele>680.75</ele>
        <time>2022-04-25T07:49:42Z</time>
      </trkpt>
      <trkpt lat="44.785" lon="4.65159">
        <ele>678.35</ele>
        <time>2022-04-25T07:49:48Z</time>
      </trkpt>
      <trkpt lat="44.78499" lon="4.65153">
        <ele>677.39</ele>
        <time>2022-04-25T07:49:51Z</time>
      </trkpt>
      <trkpt lat="44.78498" lon="4.65142">
        <ele>674.5</ele>
        <time>2022-04-25T07:49:57Z</time>
      </trkpt>
      <trkpt lat="44.785" lon="4.65134">
        <ele>671.62</ele>
        <time>2022-04-25T07:50:04Z</time>
      </trkpt>
      <trkpt lat="44.78505" lon="4.65131">
        <ele>671.62</ele>
        <time>2022-04-25T07:50:12Z</time>
      </trkpt>
      <trkpt lat="44.78517" lon="4.65125">
        <ele>670.66</ele>
        <time>2022-04-25T07:50:26Z</time>
      </trkpt>
      <trkpt lat="44.78519" lon="4.65123">
        <ele>670.18</ele>
        <time>2022-04-25T07:50:30Z</time>
      </trkpt>
      <trkpt lat="44.78531" lon="4.65112">
        <ele>668.73</ele>
        <time>2022-04-25T07:50:41Z</time>
      </trkpt>
      <trkpt lat="44.7854" lon="4.65102">
        <ele>667.29</ele>
        <time>2022-04-25T07:50:53Z</time>
      </trkpt>
      <trkpt lat="44.78549" lon="4.65096">
        <ele>665.85</ele>
        <time>2022-04-25T07:51:03Z</time>
      </trkpt>
      <trkpt lat="44.78556" lon="4.65089">
        <ele>665.85</ele>
        <time>2022-04-25T07:51:12Z</time>
      </trkpt>
      <trkpt lat="44.78559" lon="4.65088">
        <ele>666.33</ele>
        <time>2022-04-25T07:51:15Z</time>
      </trkpt>
      <trkpt lat="44.7857" lon="4.65074">
        <ele>666.33</ele>
        <time>2022-04-25T07:51:26Z</time>
      </trkpt>
      <trkpt lat="44.78582" lon="4.65062">
        <ele>665.85</ele>
        <time>2022-04-25T07:51:38Z</time>
      </trkpt>
      <trkpt lat="44.78598" lon="4.65044">
        <ele>662.49</ele>
        <time>2022-04-25T07:51:52Z</time>
      </trkpt>
      <trkpt lat="44.78606" lon="4.65036">
        <ele>661.52</ele>
        <time>2022-04-25T07:52:01Z</time>
      </trkpt>
      <trkpt lat="44.78619" lon="4.65025">
        <ele>659.12</ele>
        <time>2022-04-25T07:52:13Z</time>
      </trkpt>
      <trkpt lat="44.78633" lon="4.65008">
        <ele>653.83</ele>
        <time>2022-04-25T07:52:27Z</time>
      </trkpt>
      <trkpt lat="44.78641" lon="4.64995">
        <ele>651.91</ele>
        <time>2022-04-25T07:52:37Z</time>
      </trkpt>
      <trkpt lat="44.78655" lon="4.6498">
        <ele>648.55</ele>
        <time>2022-04-25T07:52:50Z</time>
      </trkpt>
      <trkpt lat="44.78656" lon="4.64979">
        <ele>648.55</ele>
        <time>2022-04-25T07:52:51Z</time>
      </trkpt>
      <trkpt lat="44.78668" lon="4.64965">
        <ele>647.1</ele>
        <time>2022-04-25T07:53:04Z</time>
      </trkpt>
      <trkpt lat="44.78669" lon="4.64961">
        <ele>646.14</ele>
        <time>2022-04-25T07:53:06Z</time>
      </trkpt>
      <trkpt lat="44.78685" lon="4.64934">
        <ele>645.18</ele>
        <time>2022-04-25T07:53:23Z</time>
      </trkpt>
      <trkpt lat="44.78697" lon="4.64916">
        <ele>644.22</ele>
        <time>2022-04-25T07:53:37Z</time>
      </trkpt>
      <trkpt lat="44.78702" lon="4.6491">
        <ele>643.26</ele>
        <time>2022-04-25T07:53:42Z</time>
      </trkpt>
      <trkpt lat="44.78711" lon="4.64892">
        <ele>639.41</ele>
        <time>2022-04-25T07:53:55Z</time>
      </trkpt>
      <trkpt lat="44.78718" lon="4.64878">
        <ele>636.05</ele>
        <time>2022-04-25T07:54:07Z</time>
      </trkpt>
      <trkpt lat="44.78718" lon="4.64877">
        <ele>635.57</ele>
        <time>2022-04-25T07:54:08Z</time>
      </trkpt>
      <trkpt lat="44.78723" lon="4.64868">
        <ele>633.65</ele>
        <time>2022-04-25T07:54:20Z</time>
      </trkpt>
      <trkpt lat="44.78726" lon="4.64869">
        <ele>632.68</ele>
        <time>2022-04-25T07:54:25Z</time>
      </trkpt>
      <trkpt lat="44.78728" lon="4.64877">
        <ele>631.24</ele>
        <time>2022-04-25T07:54:37Z</time>
      </trkpt>
      <trkpt lat="44.78729" lon="4.64879">
        <ele>631.24</ele>
        <time>2022-04-25T07:54:39Z</time>
      </trkpt>
      <trkpt lat="44.78731" lon="4.64892">
        <ele>631.24</ele>
        <time>2022-04-25T07:54:50Z</time>
      </trkpt>
      <trkpt lat="44.78733" lon="4.64895">
        <ele>630.28</ele>
        <time>2022-04-25T07:54:52Z</time>
      </trkpt>
      <trkpt lat="44.78742" lon="4.64899">
        <ele>629.32</ele>
        <time>2022-04-25T07:54:57Z</time>
      </trkpt>
      <trkpt lat="44.78758" lon="4.64885">
        <ele>628.36</ele>
        <time>2022-04-25T07:55:12Z</time>
      </trkpt>
      <trkpt lat="44.78759" lon="4.64882">
        <ele>628.36</ele>
        <time>2022-04-25T07:55:14Z</time>
      </trkpt>
      <trkpt lat="44.7876" lon="4.64875">
        <ele>628.84</ele>
        <time>2022-04-25T07:55:18Z</time>
      </trkpt>
      <trkpt lat="44.78762" lon="4.64871">
        <ele>628.84</ele>
        <time>2022-04-25T07:55:20Z</time>
      </trkpt>
      <trkpt lat="44.78766" lon="4.64851">
        <ele>628.84</ele>
        <time>2022-04-25T07:55:34Z</time>
      </trkpt>
      <trkpt lat="44.78768" lon="4.64831">
        <ele>628.84</ele>
        <time>2022-04-25T07:55:46Z</time>
      </trkpt>
      <trkpt lat="44.78772" lon="4.64813">
        <ele>626.92</ele>
        <time>2022-04-25T07:55:57Z</time>
      </trkpt>
      <trkpt lat="44.78777" lon="4.64788">
        <ele>623.07</ele>
        <time>2022-04-25T07:56:11Z</time>
      </trkpt>
      <trkpt lat="44.78778" lon="4.64779">
        <ele>621.63</ele>
        <time>2022-04-25T07:56:18Z</time>
      </trkpt>
      <trkpt lat="44.78776" lon="4.64775">
        <ele>620.19</ele>
        <time>2022-04-25T07:56:21Z</time>
      </trkpt>
      <trkpt lat="44.78767" lon="4.64751">
        <ele>613.46</ele>
        <time>2022-04-25T07:56:31Z</time>
      </trkpt>
      <trkpt lat="44.78765" lon="4.64747">
        <ele>612.5</ele>
        <time>2022-04-25T07:56:33Z</time>
      </trkpt>
      <trkpt lat="44.78754" lon="4.64727">
        <ele>607.69</ele>
        <time>2022-04-25T07:56:46Z</time>
      </trkpt>
      <trkpt lat="44.78751" lon="4.64725">
        <ele>607.21</ele>
        <time>2022-04-25T07:56:50Z</time>
      </trkpt>
      <trkpt lat="44.78744" lon="4.64724">
        <ele>606.73</ele>
        <time>2022-04-25T07:56:56Z</time>
      </trkpt>
      <trkpt lat="44.78735" lon="4.64728">
        <ele>606.25</ele>
        <time>2022-04-25T07:57:03Z</time>
      </trkpt>
      <trkpt lat="44.78729" lon="4.64734">
        <ele>604.81</ele>
        <time>2022-04-25T07:57:09Z</time>
      </trkpt>
      <trkpt lat="44.78727" lon="4.64736">
        <ele>604.33</ele>
        <time>2022-04-25T07:57:11Z</time>
      </trkpt>
      <trkpt lat="44.78723" lon="4.64737">
        <ele>604.33</ele>
        <time>2022-04-25T07:57:14Z</time>
      </trkpt>
      <trkpt lat="44.78716" lon="4.64738">
        <ele>602.4</ele>
        <time>2022-04-25T07:57:19Z</time>
      </trkpt>
      <trkpt lat="44.78707" lon="4.64736">
        <ele>600.48</ele>
        <time>2022-04-25T07:57:28Z</time>
      </trkpt>
      <trkpt lat="44.78701" lon="4.64735">
        <ele>600</ele>
        <time>2022-04-25T07:57:32Z</time>
      </trkpt>
      <trkpt lat="44.78699" lon="4.64735">
        <ele>599.52</ele>
        <time>2022-04-25T07:57:34Z</time>
      </trkpt>
      <trkpt lat="44.7869" lon="4.64732">
        <ele>600</ele>
        <time>2022-04-25T07:57:42Z</time>
      </trkpt>
      <trkpt lat="44.78686" lon="4.64729">
        <ele>600.48</ele>
        <time>2022-04-25T07:57:47Z</time>
      </trkpt>
      <trkpt lat="44.78666" lon="4.64723">
        <ele>597.6</ele>
        <time>2022-04-25T07:58:01Z</time>
      </trkpt>
      <trkpt lat="44.78662" lon="4.64721">
        <ele>597.6</ele>
        <time>2022-04-25T07:58:03Z</time>
      </trkpt>
      <trkpt lat="44.78648" lon="4.6472">
        <ele>597.12</ele>
        <time>2022-04-25T07:58:15Z</time>
      </trkpt>
      <trkpt lat="44.78644" lon="4.6472">
        <ele>597.12</ele>
        <time>2022-04-25T07:58:19Z</time>
      </trkpt>
      <trkpt lat="44.78636" lon="4.64715">
        <ele>597.6</ele>
        <time>2022-04-25T07:58:27Z</time>
      </trkpt>
      <trkpt lat="44.78632" lon="4.64705">
        <ele>599.04</ele>
        <time>2022-04-25T07:58:37Z</time>
      </trkpt>
      <trkpt lat="44.78631" lon="4.64699">
        <ele>600</ele>
        <time>2022-04-25T07:58:41Z</time>
      </trkpt>
      <trkpt lat="44.78625" lon="4.64685">
        <ele>603.36</ele>
        <time>2022-04-25T07:58:56Z</time>
      </trkpt>
      <trkpt lat="44.78617" lon="4.64694">
        <ele>592.79</ele>
        <time>2022-04-25T07:59:14Z</time>
      </trkpt>
      <trkpt lat="44.78618" lon="4.6469">
        <ele>592.79</ele>
        <time>2022-04-25T07:59:26Z</time>
      </trkpt>
      <trkpt lat="44.78617" lon="4.64688">
        <ele>589.91</ele>
        <time>2022-04-25T07:59:39Z</time>
      </trkpt>
      <trkpt lat="44.78617" lon="4.64683">
        <ele>589.43</ele>
        <time>2022-04-25T07:59:42Z</time>
      </trkpt>
      <trkpt lat="44.78609" lon="4.64671">
        <ele>586.06</ele>
        <time>2022-04-25T07:59:53Z</time>
      </trkpt>
      <trkpt lat="44.78607" lon="4.64665">
        <ele>587.02</ele>
        <time>2022-04-25T07:59:57Z</time>
      </trkpt>
      <trkpt lat="44.78595" lon="4.64645">
        <ele>586.06</ele>
        <time>2022-04-25T08:00:11Z</time>
      </trkpt>
      <trkpt lat="44.78592" lon="4.64633">
        <ele>583.66</ele>
        <time>2022-04-25T08:00:22Z</time>
      </trkpt>
      <trkpt lat="44.78584" lon="4.64621">
        <ele>584.62</ele>
        <time>2022-04-25T08:00:34Z</time>
      </trkpt>
      <trkpt lat="44.78578" lon="4.6461">
        <ele>585.1</ele>
        <time>2022-04-25T08:00:44Z</time>
      </trkpt>
      <trkpt lat="44.78573" lon="4.64595">
        <ele>586.54</ele>
        <time>2022-04-25T08:00:56Z</time>
      </trkpt>
      <trkpt lat="44.78571" lon="4.64586">
        <ele>586.54</ele>
        <time>2022-04-25T08:01:07Z</time>
      </trkpt>
      <trkpt lat="44.78572" lon="4.64584">
        <ele>587.5</ele>
        <time>2022-04-25T08:01:13Z</time>
      </trkpt>
      <trkpt lat="44.78581" lon="4.64586">
        <ele>585.1</ele>
        <time>2022-04-25T08:01:28Z</time>
      </trkpt>
      <trkpt lat="44.78583" lon="4.64586">
        <ele>585.1</ele>
        <time>2022-04-25T08:01:30Z</time>
      </trkpt>
      <trkpt lat="44.78599" lon="4.6458">
        <ele>583.18</ele>
        <time>2022-04-25T08:01:43Z</time>
      </trkpt>
      <trkpt lat="44.78621" lon="4.64577">
        <ele>581.25</ele>
        <time>2022-04-25T08:01:55Z</time>
      </trkpt>
      <trkpt lat="44.78628" lon="4.64573">
        <ele>581.73</ele>
        <time>2022-04-25T08:02:00Z</time>
      </trkpt>
      <trkpt lat="44.78643" lon="4.64554">
        <ele>576.45</ele>
        <time>2022-04-25T08:02:15Z</time>
      </trkpt>
      <trkpt lat="44.78655" lon="4.64531">
        <ele>574.04</ele>
        <time>2022-04-25T08:02:29Z</time>
      </trkpt>
      <trkpt lat="44.78658" lon="4.64526">
        <ele>573.08</ele>
        <time>2022-04-25T08:02:33Z</time>
      </trkpt>
      <trkpt lat="44.7866" lon="4.64524">
        <ele>572.6</ele>
        <time>2022-04-25T08:02:35Z</time>
      </trkpt>
      <trkpt lat="44.78669" lon="4.64503">
        <ele>570.2</ele>
        <time>2022-04-25T08:02:47Z</time>
      </trkpt>
      <trkpt lat="44.78677" lon="4.64485">
        <ele>563.95</ele>
        <time>2022-04-25T08:03:01Z</time>
      </trkpt>
      <trkpt lat="44.78684" lon="4.64474">
        <ele>561.07</ele>
        <time>2022-04-25T08:03:11Z</time>
      </trkpt>
      <trkpt lat="44.78692" lon="4.6446">
        <ele>555.78</ele>
        <time>2022-04-25T08:03:22Z</time>
      </trkpt>
      <trkpt lat="44.78702" lon="4.64448">
        <ele>554.34</ele>
        <time>2022-04-25T08:03:32Z</time>
      </trkpt>
      <trkpt lat="44.78709" lon="4.64439">
        <ele>551.45</ele>
        <time>2022-04-25T08:03:39Z</time>
      </trkpt>
      <trkpt lat="44.78716" lon="4.64432">
        <ele>550.01</ele>
        <time>2022-04-25T08:03:46Z</time>
      </trkpt>
      <trkpt lat="44.78719" lon="4.64428">
        <ele>549.53</ele>
        <time>2022-04-25T08:03:50Z</time>
      </trkpt>
      <trkpt lat="44.78733" lon="4.64413">
        <ele>547.61</ele>
        <time>2022-04-25T08:04:03Z</time>
      </trkpt>
      <trkpt lat="44.78735" lon="4.64394">
        <ele>545.69</ele>
        <time>2022-04-25T08:04:18Z</time>
      </trkpt>
      <trkpt lat="44.78737" lon="4.64387">
        <ele>546.17</ele>
        <time>2022-04-25T08:04:30Z</time>
      </trkpt>
      <trkpt lat="44.78736" lon="4.64367">
        <ele>540.4</ele>
        <time>2022-04-25T08:04:44Z</time>
      </trkpt>
      <trkpt lat="44.78734" lon="4.64338">
        <ele>533.19</ele>
        <time>2022-04-25T08:04:58Z</time>
      </trkpt>
      <trkpt lat="44.78732" lon="4.64321">
        <ele>525.98</ele>
        <time>2022-04-25T08:05:09Z</time>
      </trkpt>
      <trkpt lat="44.78733" lon="4.64299">
        <ele>521.65</ele>
        <time>2022-04-25T08:05:21Z</time>
      </trkpt>
      <trkpt lat="44.78734" lon="4.64281">
        <ele>520.21</ele>
        <time>2022-04-25T08:05:34Z</time>
      </trkpt>
      <trkpt lat="44.78734" lon="4.64279">
        <ele>520.21</ele>
        <time>2022-04-25T08:05:35Z</time>
      </trkpt>
      <trkpt lat="44.78735" lon="4.64271">
        <ele>519.73</ele>
        <time>2022-04-25T08:05:39Z</time>
      </trkpt>
      <trkpt lat="44.78736" lon="4.64258">
        <ele>518.77</ele>
        <time>2022-04-25T08:05:46Z</time>
      </trkpt>
      <trkpt lat="44.78739" lon="4.64245">
        <ele>519.25</ele>
        <time>2022-04-25T08:05:57Z</time>
      </trkpt>
      <trkpt lat="44.78744" lon="4.64224">
        <ele>518.29</ele>
        <time>2022-04-25T08:06:09Z</time>
      </trkpt>
      <trkpt lat="44.78753" lon="4.64216">
        <ele>515.88</ele>
        <time>2022-04-25T08:06:22Z</time>
      </trkpt>
      <trkpt lat="44.78758" lon="4.64214">
        <ele>514.92</ele>
        <time>2022-04-25T08:06:29Z</time>
      </trkpt>
      <trkpt lat="44.78762" lon="4.64212">
        <ele>513.96</ele>
        <time>2022-04-25T08:06:34Z</time>
      </trkpt>
      <trkpt lat="44.7877" lon="4.64225">
        <ele>511.08</ele>
        <time>2022-04-25T08:06:48Z</time>
      </trkpt>
      <trkpt lat="44.78771" lon="4.64228">
        <ele>510.6</ele>
        <time>2022-04-25T08:06:51Z</time>
      </trkpt>
      <trkpt lat="44.78782" lon="4.64241">
        <ele>504.35</ele>
        <time>2022-04-25T08:07:03Z</time>
      </trkpt>
      <trkpt lat="44.78784" lon="4.64241">
        <ele>502.91</ele>
        <time>2022-04-25T08:07:06Z</time>
      </trkpt>
      <trkpt lat="44.78789" lon="4.6424">
        <ele>502.91</ele>
        <time>2022-04-25T08:07:11Z</time>
      </trkpt>
      <trkpt lat="44.78808" lon="4.64241">
        <ele>501.46</ele>
        <time>2022-04-25T08:07:27Z</time>
      </trkpt>
      <trkpt lat="44.78809" lon="4.64241">
        <ele>501.95</ele>
        <time>2022-04-25T08:07:28Z</time>
      </trkpt>
      <trkpt lat="44.7883" lon="4.64223">
        <ele>500.98</ele>
        <time>2022-04-25T08:07:46Z</time>
      </trkpt>
      <trkpt lat="44.78845" lon="4.64206">
        <ele>503.39</ele>
        <time>2022-04-25T08:07:59Z</time>
      </trkpt>
      <trkpt lat="44.78856" lon="4.64192">
        <ele>505.31</ele>
        <time>2022-04-25T08:08:09Z</time>
      </trkpt>
      <trkpt lat="44.78861" lon="4.64182">
        <ele>506.27</ele>
        <time>2022-04-25T08:08:15Z</time>
      </trkpt>
      <trkpt lat="44.7887" lon="4.64158">
        <ele>514.44</ele>
        <time>2022-04-25T08:08:31Z</time>
      </trkpt>
      <trkpt lat="44.78869" lon="4.64139">
        <ele>516.85</ele>
        <time>2022-04-25T08:08:42Z</time>
      </trkpt>
      <trkpt lat="44.78864" lon="4.64101">
        <ele>507.23</ele>
        <time>2022-04-25T08:08:49Z</time>
      </trkpt>
      <trkpt lat="44.78864" lon="4.64098">
        <ele>505.31</ele>
        <time>2022-04-25T08:08:51Z</time>
      </trkpt>
      <trkpt lat="44.78867" lon="4.64091">
        <ele>501.46</ele>
        <time>2022-04-25T08:09:05Z</time>
      </trkpt>
      <trkpt lat="44.78883" lon="4.64102">
        <ele>494.26</ele>
        <time>2022-04-25T08:09:20Z</time>
      </trkpt>
      <trkpt lat="44.78898" lon="4.64084">
        <ele>488.01</ele>
        <time>2022-04-25T08:09:33Z</time>
      </trkpt>
      <trkpt lat="44.78912" lon="4.64061">
        <ele>487.05</ele>
        <time>2022-04-25T08:09:49Z</time>
      </trkpt>
      <trkpt lat="44.78924" lon="4.6404">
        <ele>484.16</ele>
        <time>2022-04-25T08:10:03Z</time>
      </trkpt>
      <trkpt lat="44.78935" lon="4.64014">
        <ele>481.28</ele>
        <time>2022-04-25T08:10:17Z</time>
      </trkpt>
      <trkpt lat="44.78939" lon="4.6399">
        <ele>479.35</ele>
        <time>2022-04-25T08:10:31Z</time>
      </trkpt>
      <trkpt lat="44.78947" lon="4.63972">
        <ele>476.47</ele>
        <time>2022-04-25T08:10:46Z</time>
      </trkpt>
      <trkpt lat="44.78948" lon="4.63971">
        <ele>476.47</ele>
        <time>2022-04-25T08:10:47Z</time>
      </trkpt>
      <trkpt lat="44.78956" lon="4.63963">
        <ele>475.51</ele>
        <time>2022-04-25T08:10:58Z</time>
      </trkpt>
      <trkpt lat="44.78973" lon="4.63957">
        <ele>477.43</ele>
        <time>2022-04-25T08:11:14Z</time>
      </trkpt>
      <trkpt lat="44.78991" lon="4.63945">
        <ele>475.99</ele>
        <time>2022-04-25T08:11:29Z</time>
      </trkpt>
      <trkpt lat="44.79002" lon="4.63929">
        <ele>475.51</ele>
        <time>2022-04-25T08:11:42Z</time>
      </trkpt>
      <trkpt lat="44.79019" lon="4.63921">
        <ele>475.03</ele>
        <time>2022-04-25T08:11:56Z</time>
      </trkpt>
      <trkpt lat="44.79023" lon="4.63921">
        <ele>475.51</ele>
        <time>2022-04-25T08:12:00Z</time>
      </trkpt>
      <trkpt lat="44.79035" lon="4.63918">
        <ele>477.91</ele>
        <time>2022-04-25T08:12:13Z</time>
      </trkpt>
      <trkpt lat="44.7905" lon="4.63915">
        <ele>483.68</ele>
        <time>2022-04-25T08:12:27Z</time>
      </trkpt>
      <trkpt lat="44.7906" lon="4.63913">
        <ele>487.53</ele>
        <time>2022-04-25T08:12:42Z</time>
      </trkpt>
      <trkpt lat="44.79067" lon="4.6391">
        <ele>491.85</ele>
        <time>2022-04-25T08:13:01Z</time>
      </trkpt>
      <trkpt lat="44.79074" lon="4.63911">
        <ele>492.81</ele>
        <time>2022-04-25T08:13:08Z</time>
      </trkpt>
      <trkpt lat="44.79084" lon="4.63917">
        <ele>497.14</ele>
        <time>2022-04-25T08:13:19Z</time>
      </trkpt>
      <trkpt lat="44.791" lon="4.63916">
        <ele>496.18</ele>
        <time>2022-04-25T08:13:32Z</time>
      </trkpt>
      <trkpt lat="44.79114" lon="4.63918">
        <ele>500.5</ele>
        <time>2022-04-25T08:13:47Z</time>
      </trkpt>
      <trkpt lat="44.79141" lon="4.63929">
        <ele>489.93</ele>
        <time>2022-04-25T08:14:03Z</time>
      </trkpt>
      <trkpt lat="44.79158" lon="4.63944">
        <ele>480.32</ele>
        <time>2022-04-25T08:14:17Z</time>
      </trkpt>
      <trkpt lat="44.7916" lon="4.63952">
        <ele>477.43</ele>
        <time>2022-04-25T08:14:21Z</time>
      </trkpt>
      <trkpt lat="44.79161" lon="4.63972">
        <ele>468.78</ele>
        <time>2022-04-25T08:14:34Z</time>
      </trkpt>
      <trkpt lat="44.79156" lon="4.63992">
        <ele>466.86</ele>
        <time>2022-04-25T08:14:47Z</time>
      </trkpt>
      <trkpt lat="44.79156" lon="4.64002">
        <ele>469.26</ele>
        <time>2022-04-25T08:14:54Z</time>
      </trkpt>
      <trkpt lat="44.79156" lon="4.64008">
        <ele>472.14</ele>
        <time>2022-04-25T08:14:59Z</time>
      </trkpt>
      <trkpt lat="44.79157" lon="4.64032">
        <ele>479.84</ele>
        <time>2022-04-25T08:15:13Z</time>
      </trkpt>
      <trkpt lat="44.79156" lon="4.64045">
        <ele>485.12</ele>
        <time>2022-04-25T08:15:21Z</time>
      </trkpt>
      <trkpt lat="44.79154" lon="4.64048">
        <ele>485.6</ele>
        <time>2022-04-25T08:15:23Z</time>
      </trkpt>
      <trkpt lat="44.79153" lon="4.6405">
        <ele>485.6</ele>
        <time>2022-04-25T08:15:24Z</time>
      </trkpt>
      <trkpt lat="44.79152" lon="4.64053">
        <ele>485.12</ele>
        <time>2022-04-25T08:15:26Z</time>
      </trkpt>
      <trkpt lat="44.79152" lon="4.64062">
        <ele>484.16</ele>
        <time>2022-04-25T08:15:33Z</time>
      </trkpt>
      <trkpt lat="44.79151" lon="4.64064">
        <ele>483.68</ele>
        <time>2022-04-25T08:15:34Z</time>
      </trkpt>
      <trkpt lat="44.79139" lon="4.64084">
        <ele>479.84</ele>
        <time>2022-04-25T08:15:46Z</time>
      </trkpt>
      <trkpt lat="44.79125" lon="4.64103">
        <ele>474.07</ele>
        <time>2022-04-25T08:16:00Z</time>
      </trkpt>
      <trkpt lat="44.791" lon="4.6412">
        <ele>468.3</ele>
        <time>2022-04-25T08:16:14Z</time>
      </trkpt>
      <trkpt lat="44.79079" lon="4.64134">
        <ele>472.14</ele>
        <time>2022-04-25T08:16:30Z</time>
      </trkpt>
      <trkpt lat="44.79062" lon="4.64149">
        <ele>470.22</ele>
        <time>2022-04-25T08:16:40Z</time>
      </trkpt>
      <trkpt lat="44.79054" lon="4.6416">
        <ele>471.66</ele>
        <time>2022-04-25T08:16:51Z</time>
      </trkpt>
      <trkpt lat="44.79048" lon="4.64163">
        <ele>472.14</ele>
        <time>2022-04-25T08:16:54Z</time>
      </trkpt>
      <trkpt lat="44.79047" lon="4.64164">
        <ele>472.14</ele>
        <time>2022-04-25T08:16:55Z</time>
      </trkpt>
      <trkpt lat="44.79038" lon="4.64178">
        <ele>475.99</ele>
        <time>2022-04-25T08:17:08Z</time>
      </trkpt>
      <trkpt lat="44.79034" lon="4.64187">
        <ele>481.76</ele>
        <time>2022-04-25T08:17:19Z</time>
      </trkpt>
      <trkpt lat="44.79032" lon="4.6419">
        <ele>483.68</ele>
        <time>2022-04-25T08:17:23Z</time>
      </trkpt>
      <trkpt lat="44.79023" lon="4.64195">
        <ele>483.2</ele>
        <time>2022-04-25T08:17:34Z</time>
      </trkpt>
      <trkpt lat="44.79015" lon="4.64203">
        <ele>483.68</ele>
        <time>2022-04-25T08:17:44Z</time>
      </trkpt>
      <trkpt lat="44.7901" lon="4.64212">
        <ele>484.16</ele>
        <time>2022-04-25T08:17:54Z</time>
      </trkpt>
      <trkpt lat="44.79007" lon="4.64217">
        <ele>484.64</ele>
        <time>2022-04-25T08:17:58Z</time>
      </trkpt>
      <trkpt lat="44.79001" lon="4.64231">
        <ele>484.64</ele>
        <time>2022-04-25T08:18:10Z</time>
      </trkpt>
      <trkpt lat="44.78991" lon="4.6425">
        <ele>485.12</ele>
        <time>2022-04-25T08:18:25Z</time>
      </trkpt>
      <trkpt lat="44.78989" lon="4.64264">
        <ele>484.16</ele>
        <time>2022-04-25T08:18:37Z</time>
      </trkpt>
      <trkpt lat="44.78979" lon="4.64271">
        <ele>483.2</ele>
        <time>2022-04-25T08:18:48Z</time>
      </trkpt>
      <trkpt lat="44.78969" lon="4.64275">
        <ele>480.32</ele>
        <time>2022-04-25T08:18:59Z</time>
      </trkpt>
      <trkpt lat="44.78977" lon="4.64265">
        <ele>486.56</ele>
        <time>2022-04-25T08:19:14Z</time>
      </trkpt>
      <trkpt lat="44.78986" lon="4.64259">
        <ele>492.81</ele>
        <time>2022-04-25T08:19:24Z</time>
      </trkpt>
      <trkpt lat="44.78995" lon="4.64259">
        <ele>502.43</ele>
        <time>2022-04-25T08:19:36Z</time>
      </trkpt>
      <trkpt lat="44.79005" lon="4.64261">
        <ele>515.4</ele>
        <time>2022-04-25T08:19:50Z</time>
      </trkpt>
      <trkpt lat="44.79016" lon="4.64254">
        <ele>511.08</ele>
        <time>2022-04-25T08:20:02Z</time>
      </trkpt>
      <trkpt lat="44.79016" lon="4.64255">
        <ele>508.19</ele>
        <time>2022-04-25T08:20:10Z</time>
      </trkpt>
      <trkpt lat="44.79008" lon="4.64259">
        <ele>504.83</ele>
        <time>2022-04-25T08:20:26Z</time>
      </trkpt>
      <trkpt lat="44.79006" lon="4.6426">
        <ele>504.35</ele>
        <time>2022-04-25T08:20:28Z</time>
      </trkpt>
      <trkpt lat="44.79002" lon="4.64263">
        <ele>501.46</ele>
        <time>2022-04-25T08:20:33Z</time>
      </trkpt>
      <trkpt lat="44.78997" lon="4.64275">
        <ele>497.62</ele>
        <time>2022-04-25T08:20:46Z</time>
      </trkpt>
      <trkpt lat="44.78996" lon="4.64276">
        <ele>497.62</ele>
        <time>2022-04-25T08:20:47Z</time>
      </trkpt>
      <trkpt lat="44.78992" lon="4.64284">
        <ele>496.18</ele>
        <time>2022-04-25T08:20:55Z</time>
      </trkpt>
      <trkpt lat="44.78991" lon="4.64292">
        <ele>495.22</ele>
        <time>2022-04-25T08:21:07Z</time>
      </trkpt>
      <trkpt lat="44.78984" lon="4.64299">
        <ele>492.81</ele>
        <time>2022-04-25T08:21:19Z</time>
      </trkpt>
      <trkpt lat="44.78994" lon="4.643">
        <ele>499.06</ele>
        <time>2022-04-25T08:21:34Z</time>
      </trkpt>
      <trkpt lat="44.79006" lon="4.64302">
        <ele>506.75</ele>
        <time>2022-04-25T08:21:46Z</time>
      </trkpt>
      <trkpt lat="44.79013" lon="4.64303">
        <ele>508.19</ele>
        <time>2022-04-25T08:21:52Z</time>
      </trkpt>
      <trkpt lat="44.7902" lon="4.64303">
        <ele>508.19</ele>
        <time>2022-04-25T08:21:57Z</time>
      </trkpt>
      <trkpt lat="44.79021" lon="4.64304">
        <ele>507.71</ele>
        <time>2022-04-25T08:21:58Z</time>
      </trkpt>
      <trkpt lat="44.79023" lon="4.64304">
        <ele>507.71</ele>
        <time>2022-04-25T08:21:59Z</time>
      </trkpt>
      <trkpt lat="44.79024" lon="4.64304">
        <ele>507.71</ele>
        <time>2022-04-25T08:22:00Z</time>
      </trkpt>
      <trkpt lat="44.79026" lon="4.64304">
        <ele>507.71</ele>
        <time>2022-04-25T08:22:01Z</time>
      </trkpt>
      <trkpt lat="44.79027" lon="4.64305">
        <ele>507.71</ele>
        <time>2022-04-25T08:22:02Z</time>
      </trkpt>
      <trkpt lat="44.79028" lon="4.64305">
        <ele>507.71</ele>
        <time>2022-04-25T08:22:03Z</time>
      </trkpt>
      <trkpt lat="44.7903" lon="4.64305">
        <ele>507.71</ele>
        <time>2022-04-25T08:22:04Z</time>
      </trkpt>
      <trkpt lat="44.7905" lon="4.64304">
        <ele>504.35</ele>
        <time>2022-04-25T08:22:19Z</time>
      </trkpt>
      <trkpt lat="44.79054" lon="4.64304">
        <ele>504.35</ele>
        <time>2022-04-25T08:22:22Z</time>
      </trkpt>
      <trkpt lat="44.79075" lon="4.64306">
        <ele>502.43</ele>
        <time>2022-04-25T08:22:38Z</time>
      </trkpt>
      <trkpt lat="44.79089" lon="4.64309">
        <ele>502.43</ele>
        <time>2022-04-25T08:22:50Z</time>
      </trkpt>
      <trkpt lat="44.79094" lon="4.64312">
        <ele>501.46</ele>
        <time>2022-04-25T08:23:02Z</time>
      </trkpt>
      <trkpt lat="44.79095" lon="4.6431">
        <ele>495.7</ele>
        <time>2022-04-25T08:23:16Z</time>
      </trkpt>
      <trkpt lat="44.79096" lon="4.64316">
        <ele>493.77</ele>
        <time>2022-04-25T08:23:31Z</time>
      </trkpt>
      <trkpt lat="44.79099" lon="4.64316">
        <ele>488.49</ele>
        <time>2022-04-25T08:24:01Z</time>
      </trkpt>
      <trkpt lat="44.79104" lon="4.64312">
        <ele>483.68</ele>
        <time>2022-04-25T08:24:18Z</time>
      </trkpt>
      <trkpt lat="44.79103" lon="4.64323">
        <ele>483.2</ele>
        <time>2022-04-25T08:24:36Z</time>
      </trkpt>
      <trkpt lat="44.79103" lon="4.64317">
        <ele>481.76</ele>
        <time>2022-04-25T08:24:54Z</time>
      </trkpt>
      <trkpt lat="44.791" lon="4.6432">
        <ele>476.47</ele>
        <time>2022-04-25T08:25:12Z</time>
      </trkpt>
      <trkpt lat="44.79099" lon="4.64326">
        <ele>474.07</ele>
        <time>2022-04-25T08:25:30Z</time>
      </trkpt>
      <trkpt lat="44.79098" lon="4.64321">
        <ele>475.03</ele>
        <time>2022-04-25T08:25:46Z</time>
      </trkpt>
      <trkpt lat="44.79088" lon="4.6432">
        <ele>479.84</ele>
        <time>2022-04-25T08:25:58Z</time>
      </trkpt>
      <trkpt lat="44.79075" lon="4.64326">
        <ele>486.56</ele>
        <time>2022-04-25T08:26:14Z</time>
      </trkpt>
      <trkpt lat="44.79074" lon="4.64327">
        <ele>487.05</ele>
        <time>2022-04-25T08:26:15Z</time>
      </trkpt>
      <trkpt lat="44.79062" lon="4.64332">
        <ele>489.93</ele>
        <time>2022-04-25T08:26:28Z</time>
      </trkpt>
      <trkpt lat="44.79056" lon="4.64334">
        <ele>492.81</ele>
        <time>2022-04-25T08:26:35Z</time>
      </trkpt>
      <trkpt lat="44.79041" lon="4.64342">
        <ele>493.29</ele>
        <time>2022-04-25T08:26:47Z</time>
      </trkpt>
      <trkpt lat="44.79023" lon="4.64348">
        <ele>494.26</ele>
        <time>2022-04-25T08:27:02Z</time>
      </trkpt>
      <trkpt lat="44.7901" lon="4.64356">
        <ele>495.22</ele>
        <time>2022-04-25T08:27:15Z</time>
      </trkpt>
      <trkpt lat="44.79006" lon="4.64359">
        <ele>494.74</ele>
        <time>2022-04-25T08:27:19Z</time>
      </trkpt>
      <trkpt lat="44.79005" lon="4.64361">
        <ele>494.74</ele>
        <time>2022-04-25T08:27:20Z</time>
      </trkpt>
      <trkpt lat="44.79004" lon="4.64362">
        <ele>494.74</ele>
        <time>2022-04-25T08:27:21Z</time>
      </trkpt>
      <trkpt lat="44.78997" lon="4.64371">
        <ele>495.22</ele>
        <time>2022-04-25T08:27:30Z</time>
      </trkpt>
      <trkpt lat="44.78997" lon="4.64379">
        <ele>495.7</ele>
        <time>2022-04-25T08:27:34Z</time>
      </trkpt>
      <trkpt lat="44.78998" lon="4.64381">
        <ele>495.7</ele>
        <time>2022-04-25T08:27:35Z</time>
      </trkpt>
      <trkpt lat="44.79001" lon="4.64388">
        <ele>495.7</ele>
        <time>2022-04-25T08:27:42Z</time>
      </trkpt>
      <trkpt lat="44.79002" lon="4.64389">
        <ele>495.7</ele>
        <time>2022-04-25T08:27:43Z</time>
      </trkpt>
      <trkpt lat="44.79013" lon="4.64394">
        <ele>496.66</ele>
        <time>2022-04-25T08:27:57Z</time>
      </trkpt>
      <trkpt lat="44.79014" lon="4.64394">
        <ele>496.66</ele>
        <time>2022-04-25T08:27:58Z</time>
      </trkpt>
      <trkpt lat="44.79036" lon="4.64393">
        <ele>497.62</ele>
        <time>2022-04-25T08:28:16Z</time>
      </trkpt>
      <trkpt lat="44.79054" lon="4.64397">
        <ele>501.46</ele>
        <time>2022-04-25T08:28:32Z</time>
      </trkpt>
      <trkpt lat="44.79069" lon="4.64399">
        <ele>503.87</ele>
        <time>2022-04-25T08:28:46Z</time>
      </trkpt>
      <trkpt lat="44.79086" lon="4.64402">
        <ele>506.27</ele>
        <time>2022-04-25T08:29:01Z</time>
      </trkpt>
      <trkpt lat="44.79103" lon="4.64409">
        <ele>506.27</ele>
        <time>2022-04-25T08:29:16Z</time>
      </trkpt>
      <trkpt lat="44.79118" lon="4.64417">
        <ele>510.12</ele>
        <time>2022-04-25T08:29:30Z</time>
      </trkpt>
      <trkpt lat="44.79131" lon="4.64426">
        <ele>517.33</ele>
        <time>2022-04-25T08:29:45Z</time>
      </trkpt>
      <trkpt lat="44.79134" lon="4.64423">
        <ele>519.73</ele>
        <time>2022-04-25T08:30:10Z</time>
      </trkpt>
      <trkpt lat="44.79134" lon="4.64425">
        <ele>519.25</ele>
        <time>2022-04-25T08:30:28Z</time>
      </trkpt>
      <trkpt lat="44.79139" lon="4.64427">
        <ele>517.81</ele>
        <time>2022-04-25T08:30:40Z</time>
      </trkpt>
      <trkpt lat="44.79148" lon="4.64426">
        <ele>512.52</ele>
        <time>2022-04-25T08:30:50Z</time>
      </trkpt>
      <trkpt lat="44.79163" lon="4.64426">
        <ele>508.67</ele>
        <time>2022-04-25T08:31:03Z</time>
      </trkpt>
      <trkpt lat="44.79169" lon="4.64421">
        <ele>508.19</ele>
        <time>2022-04-25T08:31:09Z</time>
      </trkpt>
      <trkpt lat="44.79179" lon="4.64411">
        <ele>505.31</ele>
        <time>2022-04-25T08:31:19Z</time>
      </trkpt>
      <trkpt lat="44.79188" lon="4.64388">
        <ele>501.95</ele>
        <time>2022-04-25T08:31:35Z</time>
      </trkpt>
      <trkpt lat="44.7919" lon="4.64369">
        <ele>500.5</ele>
        <time>2022-04-25T08:31:46Z</time>
      </trkpt>
      <trkpt lat="44.79189" lon="4.64366">
        <ele>500.02</ele>
        <time>2022-04-25T08:31:47Z</time>
      </trkpt>
      <trkpt lat="44.7919" lon="4.64364">
        <ele>500.02</ele>
        <time>2022-04-25T08:31:48Z</time>
      </trkpt>
      <trkpt lat="44.79191" lon="4.64353">
        <ele>495.22</ele>
        <time>2022-04-25T08:32:00Z</time>
      </trkpt>
      <trkpt lat="44.79192" lon="4.64353">
        <ele>494.74</ele>
        <time>2022-04-25T08:32:01Z</time>
      </trkpt>
      <trkpt lat="44.79194" lon="4.64352">
        <ele>494.74</ele>
        <time>2022-04-25T08:32:02Z</time>
      </trkpt>
      <trkpt lat="44.79202" lon="4.64353">
        <ele>493.29</ele>
        <time>2022-04-25T08:32:10Z</time>
      </trkpt>
      <trkpt lat="44.79203" lon="4.64353">
        <ele>493.29</ele>
        <time>2022-04-25T08:32:11Z</time>
      </trkpt>
      <trkpt lat="44.79214" lon="4.64348">
        <ele>495.22</ele>
        <time>2022-04-25T08:32:23Z</time>
      </trkpt>
      <trkpt lat="44.7922" lon="4.64344">
        <ele>496.18</ele>
        <time>2022-04-25T08:32:36Z</time>
      </trkpt>
      <trkpt lat="44.79231" lon="4.64334">
        <ele>493.29</ele>
        <time>2022-04-25T08:32:49Z</time>
      </trkpt>
      <trkpt lat="44.79245" lon="4.6432">
        <ele>488.97</ele>
        <time>2022-04-25T08:33:02Z</time>
      </trkpt>
      <trkpt lat="44.79262" lon="4.64303">
        <ele>483.68</ele>
        <time>2022-04-25T08:33:17Z</time>
      </trkpt>
      <trkpt lat="44.79279" lon="4.64291">
        <ele>478.87</ele>
        <time>2022-04-25T08:33:32Z</time>
      </trkpt>
      <trkpt lat="44.79298" lon="4.64285">
        <ele>477.91</ele>
        <time>2022-04-25T08:33:46Z</time>
      </trkpt>
      <trkpt lat="44.7931" lon="4.64283">
        <ele>480.8</ele>
        <time>2022-04-25T08:33:57Z</time>
      </trkpt>
      <trkpt lat="44.79317" lon="4.64275">
        <ele>487.05</ele>
        <time>2022-04-25T08:34:09Z</time>
      </trkpt>
      <trkpt lat="44.79319" lon="4.64272">
        <ele>487.05</ele>
        <time>2022-04-25T08:34:10Z</time>
      </trkpt>
      <trkpt lat="44.7932" lon="4.64271">
        <ele>487.05</ele>
        <time>2022-04-25T08:34:11Z</time>
      </trkpt>
      <trkpt lat="44.79322" lon="4.64269">
        <ele>487.05</ele>
        <time>2022-04-25T08:34:12Z</time>
      </trkpt>
      <trkpt lat="44.79323" lon="4.64268">
        <ele>487.05</ele>
        <time>2022-04-25T08:34:13Z</time>
      </trkpt>
      <trkpt lat="44.79324" lon="4.64266">
        <ele>487.05</ele>
        <time>2022-04-25T08:34:14Z</time>
      </trkpt>
      <trkpt lat="44.79337" lon="4.64249">
        <ele>482.72</ele>
        <time>2022-04-25T08:34:26Z</time>
      </trkpt>
      <trkpt lat="44.79348" lon="4.64224">
        <ele>476.47</ele>
        <time>2022-04-25T08:34:40Z</time>
      </trkpt>
      <trkpt lat="44.79352" lon="4.64206">
        <ele>474.07</ele>
        <time>2022-04-25T08:34:52Z</time>
      </trkpt>
      <trkpt lat="44.79353" lon="4.64194">
        <ele>472.63</ele>
        <time>2022-04-25T08:34:58Z</time>
      </trkpt>
      <trkpt lat="44.79356" lon="4.64168">
        <ele>467.82</ele>
        <time>2022-04-25T08:35:14Z</time>
      </trkpt>
      <trkpt lat="44.79358" lon="4.64167">
        <ele>467.34</ele>
        <time>2022-04-25T08:35:16Z</time>
      </trkpt>
      <trkpt lat="44.7937" lon="4.64154">
        <ele>467.34</ele>
        <time>2022-04-25T08:35:28Z</time>
      </trkpt>
      <trkpt lat="44.79378" lon="4.64145">
        <ele>464.93</ele>
        <time>2022-04-25T08:35:37Z</time>
      </trkpt>
      <trkpt lat="44.79379" lon="4.64143">
        <ele>464.45</ele>
        <time>2022-04-25T08:35:38Z</time>
      </trkpt>
      <trkpt lat="44.7938" lon="4.64141">
        <ele>464.45</ele>
        <time>2022-04-25T08:35:39Z</time>
      </trkpt>
      <trkpt lat="44.79381" lon="4.64139">
        <ele>463.97</ele>
        <time>2022-04-25T08:35:40Z</time>
      </trkpt>
      <trkpt lat="44.79391" lon="4.64118">
        <ele>460.13</ele>
        <time>2022-04-25T08:35:52Z</time>
      </trkpt>
      <trkpt lat="44.79402" lon="4.64101">
        <ele>455.8</ele>
        <time>2022-04-25T08:36:04Z</time>
      </trkpt>
      <trkpt lat="44.79404" lon="4.64098">
        <ele>455.8</ele>
        <time>2022-04-25T08:36:07Z</time>
      </trkpt>
      <trkpt lat="44.79416" lon="4.6409">
        <ele>456.76</ele>
        <time>2022-04-25T08:36:19Z</time>
      </trkpt>
      <trkpt lat="44.79422" lon="4.64081">
        <ele>455.32</ele>
        <time>2022-04-25T08:36:32Z</time>
      </trkpt>
      <trkpt lat="44.79429" lon="4.64074">
        <ele>453.88</ele>
        <time>2022-04-25T08:36:45Z</time>
      </trkpt>
      <trkpt lat="44.7944" lon="4.64071">
        <ele>449.07</ele>
        <time>2022-04-25T08:36:57Z</time>
      </trkpt>
      <trkpt lat="44.79454" lon="4.6407">
        <ele>443.79</ele>
        <time>2022-04-25T08:37:08Z</time>
      </trkpt>
      <trkpt lat="44.79465" lon="4.64067">
        <ele>438.5</ele>
        <time>2022-04-25T08:37:22Z</time>
      </trkpt>
      <trkpt lat="44.7947" lon="4.64063">
        <ele>435.61</ele>
        <time>2022-04-25T08:37:31Z</time>
      </trkpt>
      <trkpt lat="44.79477" lon="4.64058">
        <ele>429.85</ele>
        <time>2022-04-25T08:37:43Z</time>
      </trkpt>
      <trkpt lat="44.79483" lon="4.64053">
        <ele>426.96</ele>
        <time>2022-04-25T08:37:55Z</time>
      </trkpt>
      <trkpt lat="44.79493" lon="4.64053">
        <ele>422.64</ele>
        <time>2022-04-25T08:38:09Z</time>
      </trkpt>
      <trkpt lat="44.79504" lon="4.64051">
        <ele>415.43</ele>
        <time>2022-04-25T08:38:22Z</time>
      </trkpt>
      <trkpt lat="44.79511" lon="4.64049">
        <ele>410.62</ele>
        <time>2022-04-25T08:38:33Z</time>
      </trkpt>
      <trkpt lat="44.79517" lon="4.64049">
        <ele>409.18</ele>
        <time>2022-04-25T08:38:44Z</time>
      </trkpt>
      <trkpt lat="44.79525" lon="4.64044">
        <ele>409.18</ele>
        <time>2022-04-25T08:38:57Z</time>
      </trkpt>
      <trkpt lat="44.79527" lon="4.64041">
        <ele>408.7</ele>
        <time>2022-04-25T08:39:00Z</time>
      </trkpt>
      <trkpt lat="44.79542" lon="4.64036">
        <ele>402.93</ele>
        <time>2022-04-25T08:39:13Z</time>
      </trkpt>
      <trkpt lat="44.79553" lon="4.64029">
        <ele>400.05</ele>
        <time>2022-04-25T08:39:25Z</time>
      </trkpt>
      <trkpt lat="44.79554" lon="4.64028">
        <ele>400.05</ele>
        <time>2022-04-25T08:39:26Z</time>
      </trkpt>
      <trkpt lat="44.79563" lon="4.6402">
        <ele>398.12</ele>
        <time>2022-04-25T08:39:37Z</time>
      </trkpt>
      <trkpt lat="44.79571" lon="4.6401">
        <ele>396.2</ele>
        <time>2022-04-25T08:39:47Z</time>
      </trkpt>
      <trkpt lat="44.79575" lon="4.64004">
        <ele>395.24</ele>
        <time>2022-04-25T08:39:52Z</time>
      </trkpt>
      <trkpt lat="44.79584" lon="4.63993">
        <ele>393.8</ele>
        <time>2022-04-25T08:40:05Z</time>
      </trkpt>
      <trkpt lat="44.7959" lon="4.63983">
        <ele>396.68</ele>
        <time>2022-04-25T08:40:18Z</time>
      </trkpt>
      <trkpt lat="44.79599" lon="4.63974">
        <ele>399.08</ele>
        <time>2022-04-25T08:40:33Z</time>
      </trkpt>
      <trkpt lat="44.7961" lon="4.63971">
        <ele>399.08</ele>
        <time>2022-04-25T08:40:45Z</time>
      </trkpt>
      <trkpt lat="44.79611" lon="4.6397">
        <ele>399.08</ele>
        <time>2022-04-25T08:40:46Z</time>
      </trkpt>
      <trkpt lat="44.79615" lon="4.63963">
        <ele>398.6</ele>
        <time>2022-04-25T08:40:50Z</time>
      </trkpt>
      <trkpt lat="44.79616" lon="4.6396">
        <ele>398.6</ele>
        <time>2022-04-25T08:40:52Z</time>
      </trkpt>
      <trkpt lat="44.79617" lon="4.63957">
        <ele>398.12</ele>
        <time>2022-04-25T08:40:55Z</time>
      </trkpt>
      <trkpt lat="44.79629" lon="4.63935">
        <ele>397.64</ele>
        <time>2022-04-25T08:41:09Z</time>
      </trkpt>
      <trkpt lat="44.79633" lon="4.63929">
        <ele>397.16</ele>
        <time>2022-04-25T08:41:13Z</time>
      </trkpt>
      <trkpt lat="44.79639" lon="4.63919">
        <ele>396.2</ele>
        <time>2022-04-25T08:41:20Z</time>
      </trkpt>
      <trkpt lat="44.7964" lon="4.63917">
        <ele>395.72</ele>
        <time>2022-04-25T08:41:21Z</time>
      </trkpt>
      <trkpt lat="44.79641" lon="4.63916">
        <ele>395.72</ele>
        <time>2022-04-25T08:41:22Z</time>
      </trkpt>
      <trkpt lat="44.79656" lon="4.63899">
        <ele>395.72</ele>
        <time>2022-04-25T08:41:36Z</time>
      </trkpt>
      <trkpt lat="44.79674" lon="4.63888">
        <ele>393.32</ele>
        <time>2022-04-25T08:41:49Z</time>
      </trkpt>
      <trkpt lat="44.79688" lon="4.63878">
        <ele>396.68</ele>
        <time>2022-04-25T08:42:02Z</time>
      </trkpt>
      <trkpt lat="44.79698" lon="4.63872">
        <ele>398.6</ele>
        <time>2022-04-25T08:42:11Z</time>
      </trkpt>
      <trkpt lat="44.79699" lon="4.63872">
        <ele>398.6</ele>
        <time>2022-04-25T08:42:12Z</time>
      </trkpt>
      <trkpt lat="44.79716" lon="4.63865">
        <ele>397.64</ele>
        <time>2022-04-25T08:42:25Z</time>
      </trkpt>
      <trkpt lat="44.79733" lon="4.63858">
        <ele>394.76</ele>
        <time>2022-04-25T08:42:37Z</time>
      </trkpt>
      <trkpt lat="44.7974" lon="4.6386">
        <ele>395.72</ele>
        <time>2022-04-25T08:42:44Z</time>
      </trkpt>
      <trkpt lat="44.79741" lon="4.6386">
        <ele>396.2</ele>
        <time>2022-04-25T08:42:45Z</time>
      </trkpt>
      <trkpt lat="44.79757" lon="4.63856">
        <ele>401.97</ele>
        <time>2022-04-25T08:42:56Z</time>
      </trkpt>
      <trkpt lat="44.79773" lon="4.63853">
        <ele>411.1</ele>
        <time>2022-04-25T08:43:10Z</time>
      </trkpt>
      <trkpt lat="44.79787" lon="4.63848">
        <ele>411.58</ele>
        <time>2022-04-25T08:43:20Z</time>
      </trkpt>
      <trkpt lat="44.798" lon="4.63848">
        <ele>407.74</ele>
        <time>2022-04-25T08:43:31Z</time>
      </trkpt>
      <trkpt lat="44.79811" lon="4.6385">
        <ele>401.49</ele>
        <time>2022-04-25T08:43:43Z</time>
      </trkpt>
      <trkpt lat="44.79823" lon="4.63852">
        <ele>391.87</ele>
        <time>2022-04-25T08:43:58Z</time>
      </trkpt>
      <trkpt lat="44.79829" lon="4.63858">
        <ele>390.91</ele>
        <time>2022-04-25T08:44:03Z</time>
      </trkpt>
      <trkpt lat="44.79842" lon="4.63871">
        <ele>390.91</ele>
        <time>2022-04-25T08:44:18Z</time>
      </trkpt>
      <trkpt lat="44.79857" lon="4.63882">
        <ele>392.84</ele>
        <time>2022-04-25T08:44:33Z</time>
      </trkpt>
      <trkpt lat="44.79868" lon="4.63897">
        <ele>394.76</ele>
        <time>2022-04-25T08:44:44Z</time>
      </trkpt>
      <trkpt lat="44.79881" lon="4.63917">
        <ele>390.43</ele>
        <time>2022-04-25T08:44:57Z</time>
      </trkpt>
      <trkpt lat="44.79892" lon="4.63933">
        <ele>378.42</ele>
        <time>2022-04-25T08:45:06Z</time>
      </trkpt>
      <trkpt lat="44.79892" lon="4.63936">
        <ele>378.42</ele>
        <time>2022-04-25T08:45:07Z</time>
      </trkpt>
      <trkpt lat="44.79892" lon="4.63937">
        <ele>378.42</ele>
        <time>2022-04-25T08:45:08Z</time>
      </trkpt>
      <trkpt lat="44.79895" lon="4.63944">
        <ele>377.94</ele>
        <time>2022-04-25T08:45:13Z</time>
      </trkpt>
      <trkpt lat="44.79895" lon="4.63946">
        <ele>377.45</ele>
        <time>2022-04-25T08:45:14Z</time>
      </trkpt>
      <trkpt lat="44.79894" lon="4.63947">
        <ele>377.45</ele>
        <time>2022-04-25T08:45:15Z</time>
      </trkpt>
      <trkpt lat="44.79882" lon="4.63958">
        <ele>378.9</ele>
        <time>2022-04-25T08:45:28Z</time>
      </trkpt>
      <trkpt lat="44.79872" lon="4.63971">
        <ele>378.9</ele>
        <time>2022-04-25T08:45:41Z</time>
      </trkpt>
      <trkpt lat="44.7987" lon="4.63972">
        <ele>379.38</ele>
        <time>2022-04-25T08:45:43Z</time>
      </trkpt>
      <trkpt lat="44.79869" lon="4.63972">
        <ele>379.38</ele>
        <time>2022-04-25T08:45:44Z</time>
      </trkpt>
      <trkpt lat="44.79867" lon="4.63973">
        <ele>379.86</ele>
        <time>2022-04-25T08:45:45Z</time>
      </trkpt>
      <trkpt lat="44.79865" lon="4.63974">
        <ele>379.86</ele>
        <time>2022-04-25T08:45:46Z</time>
      </trkpt>
      <trkpt lat="44.79863" lon="4.63975">
        <ele>380.34</ele>
        <time>2022-04-25T08:45:47Z</time>
      </trkpt>
      <trkpt lat="44.79842" lon="4.63991">
        <ele>384.66</ele>
        <time>2022-04-25T08:45:59Z</time>
      </trkpt>
      <trkpt lat="44.79832" lon="4.63998">
        <ele>385.63</ele>
        <time>2022-04-25T08:46:09Z</time>
      </trkpt>
      <trkpt lat="44.7984" lon="4.64004">
        <ele>380.34</ele>
        <time>2022-04-25T08:46:25Z</time>
      </trkpt>
      <trkpt lat="44.79846" lon="4.64012">
        <ele>378.42</ele>
        <time>2022-04-25T08:46:37Z</time>
      </trkpt>
      <trkpt lat="44.79848" lon="4.64007">
        <ele>374.09</ele>
        <time>2022-04-25T08:46:56Z</time>
      </trkpt>
      <trkpt lat="44.7985" lon="4.64016">
        <ele>371.21</ele>
        <time>2022-04-25T08:47:13Z</time>
      </trkpt>
      <trkpt lat="44.79852" lon="4.64018">
        <ele>365.92</ele>
        <time>2022-04-25T08:47:30Z</time>
      </trkpt>
      <trkpt lat="44.79852" lon="4.64019">
        <ele>365.44</ele>
        <time>2022-04-25T08:47:31Z</time>
      </trkpt>
      <trkpt lat="44.79853" lon="4.64021">
        <ele>365.44</ele>
        <time>2022-04-25T08:47:32Z</time>
      </trkpt>
      <trkpt lat="44.7986" lon="4.64028">
        <ele>364</ele>
        <time>2022-04-25T08:47:47Z</time>
      </trkpt>
      <trkpt lat="44.79864" lon="4.64029">
        <ele>362.55</ele>
        <time>2022-04-25T08:47:58Z</time>
      </trkpt>
      <trkpt lat="44.79864" lon="4.64032">
        <ele>361.11</ele>
        <time>2022-04-25T08:48:10Z</time>
      </trkpt>
      <trkpt lat="44.79866" lon="4.64033">
        <ele>361.11</ele>
        <time>2022-04-25T08:48:30Z</time>
      </trkpt>
      <trkpt lat="44.79874" lon="4.64034">
        <ele>362.55</ele>
        <time>2022-04-25T08:48:42Z</time>
      </trkpt>
      <trkpt lat="44.7988" lon="4.64031">
        <ele>365.44</ele>
        <time>2022-04-25T08:48:50Z</time>
      </trkpt>
      <trkpt lat="44.79882" lon="4.64031">
        <ele>365.92</ele>
        <time>2022-04-25T08:48:51Z</time>
      </trkpt>
      <trkpt lat="44.79897" lon="4.64025">
        <ele>376.97</ele>
        <time>2022-04-25T08:49:05Z</time>
      </trkpt>
      <trkpt lat="44.79909" lon="4.64019">
        <ele>388.03</ele>
        <time>2022-04-25T08:49:17Z</time>
      </trkpt>
      <trkpt lat="44.7991" lon="4.64018">
        <ele>389.47</ele>
        <time>2022-04-25T08:49:18Z</time>
      </trkpt>
      <trkpt lat="44.79912" lon="4.64017">
        <ele>390.43</ele>
        <time>2022-04-25T08:49:19Z</time>
      </trkpt>
      <trkpt lat="44.79912" lon="4.64016">
        <ele>391.39</ele>
        <time>2022-04-25T08:49:20Z</time>
      </trkpt>
      <trkpt lat="44.79929" lon="4.64006">
        <ele>408.7</ele>
        <time>2022-04-25T08:49:37Z</time>
      </trkpt>
      <trkpt lat="44.79934" lon="4.64005">
        <ele>411.58</ele>
        <time>2022-04-25T08:49:42Z</time>
      </trkpt>
      <trkpt lat="44.79949" lon="4.64005">
        <ele>411.1</ele>
        <time>2022-04-25T08:49:53Z</time>
      </trkpt>
      <trkpt lat="44.79963" lon="4.64004">
        <ele>409.66</ele>
        <time>2022-04-25T08:50:05Z</time>
      </trkpt>
      <trkpt lat="44.79978" lon="4.64004">
        <ele>405.33</ele>
        <time>2022-04-25T08:50:18Z</time>
      </trkpt>
      <trkpt lat="44.79979" lon="4.64004">
        <ele>404.37</ele>
        <time>2022-04-25T08:50:19Z</time>
      </trkpt>
      <trkpt lat="44.7998" lon="4.64006">
        <ele>404.37</ele>
        <time>2022-04-25T08:50:20Z</time>
      </trkpt>
      <trkpt lat="44.79987" lon="4.6402">
        <ele>403.41</ele>
        <time>2022-04-25T08:50:29Z</time>
      </trkpt>
      <trkpt lat="44.7999" lon="4.64021">
        <ele>400.53</ele>
        <time>2022-04-25T08:50:30Z</time>
      </trkpt>
      <trkpt lat="44.79991" lon="4.64022">
        <ele>399.57</ele>
        <time>2022-04-25T08:50:31Z</time>
      </trkpt>
      <trkpt lat="44.80011" lon="4.64019">
        <ele>398.6</ele>
        <time>2022-04-25T08:50:47Z</time>
      </trkpt>
      <trkpt lat="44.80028" lon="4.64014">
        <ele>399.57</ele>
        <time>2022-04-25T08:51:01Z</time>
      </trkpt>
      <trkpt lat="44.80048" lon="4.64004">
        <ele>390.43</ele>
        <time>2022-04-25T08:51:15Z</time>
      </trkpt>
      <trkpt lat="44.80069" lon="4.63988">
        <ele>383.7</ele>
        <time>2022-04-25T08:51:30Z</time>
      </trkpt>
      <trkpt lat="44.80081" lon="4.63989">
        <ele>385.15</ele>
        <time>2022-04-25T08:51:45Z</time>
      </trkpt>
      <trkpt lat="44.80098" lon="4.63996">
        <ele>385.15</ele>
        <time>2022-04-25T08:52:01Z</time>
      </trkpt>
      <trkpt lat="44.80109" lon="4.64005">
        <ele>382.26</ele>
        <time>2022-04-25T08:52:19Z</time>
      </trkpt>
      <trkpt lat="44.80116" lon="4.64011">
        <ele>383.7</ele>
        <time>2022-04-25T08:52:26Z</time>
      </trkpt>
      <trkpt lat="44.80117" lon="4.64012">
        <ele>383.7</ele>
        <time>2022-04-25T08:52:27Z</time>
      </trkpt>
      <trkpt lat="44.80119" lon="4.64013">
        <ele>384.18</ele>
        <time>2022-04-25T08:52:28Z</time>
      </trkpt>
      <trkpt lat="44.80132" lon="4.64021">
        <ele>387.07</ele>
        <time>2022-04-25T08:52:42Z</time>
      </trkpt>
      <trkpt lat="44.80153" lon="4.64037">
        <ele>388.99</ele>
        <time>2022-04-25T08:53:00Z</time>
      </trkpt>
      <trkpt lat="44.80159" lon="4.64036">
        <ele>389.47</ele>
        <time>2022-04-25T08:53:16Z</time>
      </trkpt>
      <trkpt lat="44.80161" lon="4.64038">
        <ele>388.99</ele>
        <time>2022-04-25T08:53:31Z</time>
      </trkpt>
      <trkpt lat="44.80167" lon="4.64049">
        <ele>388.99</ele>
        <time>2022-04-25T08:53:44Z</time>
      </trkpt>
      <trkpt lat="44.80181" lon="4.6407">
        <ele>387.07</ele>
        <time>2022-04-25T08:53:59Z</time>
      </trkpt>
      <trkpt lat="44.80186" lon="4.64077">
        <ele>385.63</ele>
        <time>2022-04-25T08:54:12Z</time>
      </trkpt>
      <trkpt lat="44.80195" lon="4.6409">
        <ele>387.55</ele>
        <time>2022-04-25T08:54:25Z</time>
      </trkpt>
      <trkpt lat="44.802" lon="4.64099">
        <ele>390.43</ele>
        <time>2022-04-25T08:54:38Z</time>
      </trkpt>
      <trkpt lat="44.80202" lon="4.64105">
        <ele>394.76</ele>
        <time>2022-04-25T08:54:52Z</time>
      </trkpt>
      <trkpt lat="44.80212" lon="4.64113">
        <ele>396.2</ele>
        <time>2022-04-25T08:55:06Z</time>
      </trkpt>
      <trkpt lat="44.8022" lon="4.64119">
        <ele>397.64</ele>
        <time>2022-04-25T08:55:21Z</time>
      </trkpt>
      <trkpt lat="44.80233" lon="4.64134">
        <ele>398.6</ele>
        <time>2022-04-25T08:55:36Z</time>
      </trkpt>
      <trkpt lat="44.80248" lon="4.64155">
        <ele>397.16</ele>
        <time>2022-04-25T08:55:53Z</time>
      </trkpt>
      <trkpt lat="44.80257" lon="4.64168">
        <ele>398.12</ele>
        <time>2022-04-25T08:56:07Z</time>
      </trkpt>
      <trkpt lat="44.80271" lon="4.64189">
        <ele>400.05</ele>
        <time>2022-04-25T08:56:22Z</time>
      </trkpt>
      <trkpt lat="44.80272" lon="4.6419">
        <ele>400.05</ele>
        <time>2022-04-25T08:56:23Z</time>
      </trkpt>
      <trkpt lat="44.8029" lon="4.64208">
        <ele>404.37</ele>
        <time>2022-04-25T08:56:40Z</time>
      </trkpt>
      <trkpt lat="44.80303" lon="4.64222">
        <ele>405.81</ele>
        <time>2022-04-25T08:56:51Z</time>
      </trkpt>
      <trkpt lat="44.80329" lon="4.64237">
        <ele>403.89</ele>
        <time>2022-04-25T08:57:11Z</time>
      </trkpt>
      <trkpt lat="44.8034" lon="4.64242">
        <ele>402.45</ele>
        <time>2022-04-25T08:57:18Z</time>
      </trkpt>
      <trkpt lat="44.80341" lon="4.64243">
        <ele>402.45</ele>
        <time>2022-04-25T08:57:19Z</time>
      </trkpt>
      <trkpt lat="44.80363" lon="4.64254">
        <ele>404.37</ele>
        <time>2022-04-25T08:57:35Z</time>
      </trkpt>
      <trkpt lat="44.80383" lon="4.64271">
        <ele>406.29</ele>
        <time>2022-04-25T08:57:52Z</time>
      </trkpt>
      <trkpt lat="44.80392" lon="4.64289">
        <ele>405.33</ele>
        <time>2022-04-25T08:58:06Z</time>
      </trkpt>
      <trkpt lat="44.80401" lon="4.64314">
        <ele>402.93</ele>
        <time>2022-04-25T08:58:22Z</time>
      </trkpt>
      <trkpt lat="44.80408" lon="4.6434">
        <ele>402.93</ele>
        <time>2022-04-25T08:58:37Z</time>
      </trkpt>
      <trkpt lat="44.80425" lon="4.64365">
        <ele>403.89</ele>
        <time>2022-04-25T08:58:56Z</time>
      </trkpt>
      <trkpt lat="44.80439" lon="4.64373">
        <ele>404.85</ele>
        <time>2022-04-25T08:59:10Z</time>
      </trkpt>
      <trkpt lat="44.80457" lon="4.64384">
        <ele>409.66</ele>
        <time>2022-04-25T08:59:26Z</time>
      </trkpt>
      <trkpt lat="44.80471" lon="4.64381">
        <ele>410.62</ele>
        <time>2022-04-25T08:59:39Z</time>
      </trkpt>
      <trkpt lat="44.80472" lon="4.64381">
        <ele>411.1</ele>
        <time>2022-04-25T08:59:40Z</time>
      </trkpt>
      <trkpt lat="44.80474" lon="4.64383">
        <ele>411.1</ele>
        <time>2022-04-25T08:59:41Z</time>
      </trkpt>
      <trkpt lat="44.80476" lon="4.64385">
        <ele>411.1</ele>
        <time>2022-04-25T08:59:42Z</time>
      </trkpt>
      <trkpt lat="44.80477" lon="4.64387">
        <ele>411.1</ele>
        <time>2022-04-25T08:59:43Z</time>
      </trkpt>
      <trkpt lat="44.80479" lon="4.64389">
        <ele>411.1</ele>
        <time>2022-04-25T08:59:44Z</time>
      </trkpt>
      <trkpt lat="44.80482" lon="4.64389">
        <ele>408.22</ele>
        <time>2022-04-25T08:59:55Z</time>
      </trkpt>
      <trkpt lat="44.80483" lon="4.64389">
        <ele>408.22</ele>
        <time>2022-04-25T08:59:57Z</time>
      </trkpt>
      <trkpt lat="44.805" lon="4.64395">
        <ele>408.7</ele>
        <time>2022-04-25T09:00:12Z</time>
      </trkpt>
      <trkpt lat="44.80501" lon="4.64395">
        <ele>409.18</ele>
        <time>2022-04-25T09:00:13Z</time>
      </trkpt>
      <trkpt lat="44.80518" lon="4.64406">
        <ele>406.29</ele>
        <time>2022-04-25T09:00:27Z</time>
      </trkpt>
      <trkpt lat="44.80523" lon="4.64411">
        <ele>406.29</ele>
        <time>2022-04-25T09:00:39Z</time>
      </trkpt>
      <trkpt lat="44.80525" lon="4.64412">
        <ele>404.85</ele>
        <time>2022-04-25T09:00:54Z</time>
      </trkpt>
      <trkpt lat="44.80525" lon="4.64412">
        <ele>402.45</ele>
        <time>2022-04-25T09:01:07Z</time>
      </trkpt>
      <trkpt lat="44.80526" lon="4.6441">
        <ele>401.97</ele>
        <time>2022-04-25T09:01:22Z</time>
      </trkpt>
      <trkpt lat="44.80529" lon="4.64409">
        <ele>402.45</ele>
        <time>2022-04-25T09:01:26Z</time>
      </trkpt>
      <trkpt lat="44.80538" lon="4.6441">
        <ele>404.37</ele>
        <time>2022-04-25T09:01:34Z</time>
      </trkpt>
      <trkpt lat="44.8054" lon="4.64411">
        <ele>404.85</ele>
        <time>2022-04-25T09:01:35Z</time>
      </trkpt>
      <trkpt lat="44.80541" lon="4.64412">
        <ele>405.33</ele>
        <time>2022-04-25T09:01:36Z</time>
      </trkpt>
      <trkpt lat="44.8056" lon="4.64423">
        <ele>406.29</ele>
        <time>2022-04-25T09:01:52Z</time>
      </trkpt>
      <trkpt lat="44.80562" lon="4.64424">
        <ele>406.77</ele>
        <time>2022-04-25T09:01:59Z</time>
      </trkpt>
      <trkpt lat="44.80571" lon="4.64425">
        <ele>407.26</ele>
        <time>2022-04-25T09:02:12Z</time>
      </trkpt>
      <trkpt lat="44.80573" lon="4.64431">
        <ele>407.74</ele>
        <time>2022-04-25T09:02:18Z</time>
      </trkpt>
      <trkpt lat="44.80573" lon="4.64432">
        <ele>407.74</ele>
        <time>2022-04-25T09:02:19Z</time>
      </trkpt>
      <trkpt lat="44.80581" lon="4.64454">
        <ele>407.74</ele>
        <time>2022-04-25T09:02:33Z</time>
      </trkpt>
      <trkpt lat="44.80583" lon="4.64461">
        <ele>408.22</ele>
        <time>2022-04-25T09:02:39Z</time>
      </trkpt>
      <trkpt lat="44.80584" lon="4.64462">
        <ele>408.22</ele>
        <time>2022-04-25T09:02:40Z</time>
      </trkpt>
      <trkpt lat="44.80587" lon="4.64466">
        <ele>408.7</ele>
        <time>2022-04-25T09:02:44Z</time>
      </trkpt>
      <trkpt lat="44.80588" lon="4.64489">
        <ele>408.7</ele>
        <time>2022-04-25T09:02:59Z</time>
      </trkpt>
      <trkpt lat="44.80587" lon="4.64488">
        <ele>408.22</ele>
        <time>2022-04-25T09:03:16Z</time>
      </trkpt>
      <trkpt lat="44.80591" lon="4.64509">
        <ele>406.29</ele>
        <time>2022-04-25T09:03:27Z</time>
      </trkpt>
      <trkpt lat="44.80592" lon="4.64511">
        <ele>406.29</ele>
        <time>2022-04-25T09:03:28Z</time>
      </trkpt>
      <trkpt lat="44.80595" lon="4.64527">
        <ele>405.33</ele>
        <time>2022-04-25T09:03:40Z</time>
      </trkpt>
      <trkpt lat="44.80599" lon="4.64539">
        <ele>403.41</ele>
        <time>2022-04-25T09:03:52Z</time>
      </trkpt>
      <trkpt lat="44.80605" lon="4.64564">
        <ele>404.85</ele>
        <time>2022-04-25T09:04:09Z</time>
      </trkpt>
      <trkpt lat="44.80612" lon="4.64588">
        <ele>404.85</ele>
        <time>2022-04-25T09:04:25Z</time>
      </trkpt>
      <trkpt lat="44.80617" lon="4.64599">
        <ele>406.29</ele>
        <time>2022-04-25T09:04:33Z</time>
      </trkpt>
      <trkpt lat="44.80628" lon="4.64612">
        <ele>408.7</ele>
        <time>2022-04-25T09:04:46Z</time>
      </trkpt>
      <trkpt lat="44.8064" lon="4.64624">
        <ele>412.06</ele>
        <time>2022-04-25T09:04:58Z</time>
      </trkpt>
      <trkpt lat="44.80641" lon="4.64625">
        <ele>412.06</ele>
        <time>2022-04-25T09:04:59Z</time>
      </trkpt>
      <trkpt lat="44.80656" lon="4.64639">
        <ele>416.87</ele>
        <time>2022-04-25T09:05:13Z</time>
      </trkpt>
      <trkpt lat="44.8066" lon="4.64649">
        <ele>419.27</ele>
        <time>2022-04-25T09:05:22Z</time>
      </trkpt>
      <trkpt lat="44.80665" lon="4.6467">
        <ele>420.23</ele>
        <time>2022-04-25T09:05:34Z</time>
      </trkpt>
      <trkpt lat="44.80665" lon="4.64672">
        <ele>420.23</ele>
        <time>2022-04-25T09:05:35Z</time>
      </trkpt>
      <trkpt lat="44.80665" lon="4.6469">
        <ele>422.16</ele>
        <time>2022-04-25T09:05:48Z</time>
      </trkpt>
      <trkpt lat="44.80665" lon="4.64692">
        <ele>422.16</ele>
        <time>2022-04-25T09:05:49Z</time>
      </trkpt>
      <trkpt lat="44.80666" lon="4.64694">
        <ele>422.16</ele>
        <time>2022-04-25T09:05:50Z</time>
      </trkpt>
      <trkpt lat="44.80669" lon="4.64717">
        <ele>424.08</ele>
        <time>2022-04-25T09:06:04Z</time>
      </trkpt>
      <trkpt lat="44.8067" lon="4.6473">
        <ele>424.56</ele>
        <time>2022-04-25T09:06:09Z</time>
      </trkpt>
      <trkpt lat="44.80671" lon="4.64732">
        <ele>424.56</ele>
        <time>2022-04-25T09:06:10Z</time>
      </trkpt>
      <trkpt lat="44.80671" lon="4.64752">
        <ele>421.19</ele>
        <time>2022-04-25T09:06:24Z</time>
      </trkpt>
      <trkpt lat="44.80678" lon="4.64766">
        <ele>422.64</ele>
        <time>2022-04-25T09:06:38Z</time>
      </trkpt>
      <trkpt lat="44.80684" lon="4.64779">
        <ele>421.19</ele>
        <time>2022-04-25T09:06:54Z</time>
      </trkpt>
      <trkpt lat="44.80691" lon="4.64796">
        <ele>423.6</ele>
        <time>2022-04-25T09:07:10Z</time>
      </trkpt>
      <trkpt lat="44.80693" lon="4.64806">
        <ele>424.56</ele>
        <time>2022-04-25T09:07:23Z</time>
      </trkpt>
      <trkpt lat="44.80696" lon="4.64826">
        <ele>426</ele>
        <time>2022-04-25T09:07:36Z</time>
      </trkpt>
      <trkpt lat="44.80698" lon="4.64841">
        <ele>428.4</ele>
        <time>2022-04-25T09:07:48Z</time>
      </trkpt>
      <trkpt lat="44.80698" lon="4.64854">
        <ele>429.37</ele>
        <time>2022-04-25T09:08:00Z</time>
      </trkpt>
      <trkpt lat="44.80696" lon="4.64871">
        <ele>430.81</ele>
        <time>2022-04-25T09:08:14Z</time>
      </trkpt>
      <trkpt lat="44.80696" lon="4.64879">
        <ele>434.65</ele>
        <time>2022-04-25T09:08:19Z</time>
      </trkpt>
      <trkpt lat="44.80692" lon="4.64898">
        <ele>439.94</ele>
        <time>2022-04-25T09:08:32Z</time>
      </trkpt>
      <trkpt lat="44.80689" lon="4.64906">
        <ele>441.38</ele>
        <time>2022-04-25T09:08:36Z</time>
      </trkpt>
      <trkpt lat="44.80689" lon="4.64908">
        <ele>441.86</ele>
        <time>2022-04-25T09:08:37Z</time>
      </trkpt>
      <trkpt lat="44.80688" lon="4.6491">
        <ele>442.34</ele>
        <time>2022-04-25T09:08:38Z</time>
      </trkpt>
      <trkpt lat="44.80687" lon="4.64912">
        <ele>442.34</ele>
        <time>2022-04-25T09:08:39Z</time>
      </trkpt>
      <trkpt lat="44.80683" lon="4.64918">
        <ele>443.31</ele>
        <time>2022-04-25T09:08:44Z</time>
      </trkpt>
      <trkpt lat="44.80681" lon="4.6492">
        <ele>443.79</ele>
        <time>2022-04-25T09:08:45Z</time>
      </trkpt>
      <trkpt lat="44.80676" lon="4.64936">
        <ele>446.19</ele>
        <time>2022-04-25T09:08:56Z</time>
      </trkpt>
      <trkpt lat="44.80671" lon="4.64955">
        <ele>448.59</ele>
        <time>2022-04-25T09:09:07Z</time>
      </trkpt>
      <trkpt lat="44.80671" lon="4.64958">
        <ele>449.07</ele>
        <time>2022-04-25T09:09:08Z</time>
      </trkpt>
      <trkpt lat="44.80671" lon="4.6496">
        <ele>449.07</ele>
        <time>2022-04-25T09:09:09Z</time>
      </trkpt>
      <trkpt lat="44.80679" lon="4.64988">
        <ele>449.07</ele>
        <time>2022-04-25T09:09:21Z</time>
      </trkpt>
      <trkpt lat="44.8068" lon="4.6499">
        <ele>448.59</ele>
        <time>2022-04-25T09:09:22Z</time>
      </trkpt>
      <trkpt lat="44.80686" lon="4.65002">
        <ele>448.59</ele>
        <time>2022-04-25T09:09:29Z</time>
      </trkpt>
      <trkpt lat="44.80687" lon="4.65005">
        <ele>448.59</ele>
        <time>2022-04-25T09:09:31Z</time>
      </trkpt>
      <trkpt lat="44.80689" lon="4.65006">
        <ele>448.59</ele>
        <time>2022-04-25T09:09:32Z</time>
      </trkpt>
      <trkpt lat="44.80697" lon="4.65024">
        <ele>450.03</ele>
        <time>2022-04-25T09:09:47Z</time>
      </trkpt>
      <trkpt lat="44.80701" lon="4.65037">
        <ele>451.48</ele>
        <time>2022-04-25T09:10:00Z</time>
      </trkpt>
      <trkpt lat="44.80706" lon="4.6505">
        <ele>451</ele>
        <time>2022-04-25T09:10:08Z</time>
      </trkpt>
      <trkpt lat="44.8072" lon="4.65072">
        <ele>450.03</ele>
        <time>2022-04-25T09:10:19Z</time>
      </trkpt>
      <trkpt lat="44.80731" lon="4.65096">
        <ele>446.67</ele>
        <time>2022-04-25T09:10:33Z</time>
      </trkpt>
      <trkpt lat="44.80736" lon="4.65107">
        <ele>441.86</ele>
        <time>2022-04-25T09:10:40Z</time>
      </trkpt>
      <trkpt lat="44.80743" lon="4.65121">
        <ele>433.69</ele>
        <time>2022-04-25T09:10:54Z</time>
      </trkpt>
      <trkpt lat="44.80738" lon="4.6513">
        <ele>427.44</ele>
        <time>2022-04-25T09:11:06Z</time>
      </trkpt>
      <trkpt lat="44.80739" lon="4.65146">
        <ele>427.44</ele>
        <time>2022-04-25T09:11:17Z</time>
      </trkpt>
      <trkpt lat="44.80736" lon="4.65162">
        <ele>428.89</ele>
        <time>2022-04-25T09:11:27Z</time>
      </trkpt>
      <trkpt lat="44.8073" lon="4.65182">
        <ele>428.89</ele>
        <time>2022-04-25T09:11:39Z</time>
      </trkpt>
      <trkpt lat="44.80729" lon="4.65186">
        <ele>428.89</ele>
        <time>2022-04-25T09:11:41Z</time>
      </trkpt>
      <trkpt lat="44.80728" lon="4.65188">
        <ele>428.4</ele>
        <time>2022-04-25T09:11:42Z</time>
      </trkpt>
      <trkpt lat="44.80727" lon="4.65207">
        <ele>427.92</ele>
        <time>2022-04-25T09:11:49Z</time>
      </trkpt>
      <trkpt lat="44.80727" lon="4.65211">
        <ele>427.44</ele>
        <time>2022-04-25T09:11:50Z</time>
      </trkpt>
      <trkpt lat="44.80727" lon="4.65214">
        <ele>427.44</ele>
        <time>2022-04-25T09:11:51Z</time>
      </trkpt>
      <trkpt lat="44.80728" lon="4.65218">
        <ele>426.96</ele>
        <time>2022-04-25T09:11:52Z</time>
      </trkpt>
      <trkpt lat="44.80728" lon="4.65221">
        <ele>426.96</ele>
        <time>2022-04-25T09:11:53Z</time>
      </trkpt>
      <trkpt lat="44.80729" lon="4.65223">
        <ele>426.96</ele>
        <time>2022-04-25T09:11:54Z</time>
      </trkpt>
      <trkpt lat="44.80729" lon="4.65225">
        <ele>426.96</ele>
        <time>2022-04-25T09:11:55Z</time>
      </trkpt>
      <trkpt lat="44.80729" lon="4.65227">
        <ele>426.96</ele>
        <time>2022-04-25T09:11:56Z</time>
      </trkpt>
      <trkpt lat="44.80738" lon="4.65258">
        <ele>438.98</ele>
        <time>2022-04-25T09:12:08Z</time>
      </trkpt>
      <trkpt lat="44.80741" lon="4.65282">
        <ele>441.86</ele>
        <time>2022-04-25T09:12:19Z</time>
      </trkpt>
      <trkpt lat="44.80741" lon="4.65284">
        <ele>441.86</ele>
        <time>2022-04-25T09:12:20Z</time>
      </trkpt>
      <trkpt lat="44.80745" lon="4.65292">
        <ele>441.86</ele>
        <time>2022-04-25T09:12:27Z</time>
      </trkpt>
      <trkpt lat="44.80746" lon="4.65293">
        <ele>441.86</ele>
        <time>2022-04-25T09:12:28Z</time>
      </trkpt>
      <trkpt lat="44.80749" lon="4.65296">
        <ele>441.86</ele>
        <time>2022-04-25T09:12:30Z</time>
      </trkpt>
      <trkpt lat="44.8075" lon="4.65298">
        <ele>441.86</ele>
        <time>2022-04-25T09:12:31Z</time>
      </trkpt>
      <trkpt lat="44.80751" lon="4.65299">
        <ele>441.86</ele>
        <time>2022-04-25T09:12:32Z</time>
      </trkpt>
      <trkpt lat="44.8076" lon="4.65317">
        <ele>441.38</ele>
        <time>2022-04-25T09:12:44Z</time>
      </trkpt>
      <trkpt lat="44.80761" lon="4.65319">
        <ele>441.38</ele>
        <time>2022-04-25T09:12:45Z</time>
      </trkpt>
      <trkpt lat="44.80763" lon="4.65321">
        <ele>441.38</ele>
        <time>2022-04-25T09:12:46Z</time>
      </trkpt>
      <trkpt lat="44.80764" lon="4.65323">
        <ele>441.38</ele>
        <time>2022-04-25T09:12:47Z</time>
      </trkpt>
      <trkpt lat="44.80764" lon="4.65325">
        <ele>441.38</ele>
        <time>2022-04-25T09:12:48Z</time>
      </trkpt>
      <trkpt lat="44.80765" lon="4.65327">
        <ele>441.38</ele>
        <time>2022-04-25T09:12:49Z</time>
      </trkpt>
      <trkpt lat="44.80767" lon="4.65329">
        <ele>441.38</ele>
        <time>2022-04-25T09:12:50Z</time>
      </trkpt>
      <trkpt lat="44.80768" lon="4.6533">
        <ele>441.86</ele>
        <time>2022-04-25T09:12:51Z</time>
      </trkpt>
      <trkpt lat="44.80768" lon="4.65332">
        <ele>441.86</ele>
        <time>2022-04-25T09:12:52Z</time>
      </trkpt>
      <trkpt lat="44.8077" lon="4.65339">
        <ele>442.34</ele>
        <time>2022-04-25T09:12:56Z</time>
      </trkpt>
      <trkpt lat="44.8077" lon="4.6534">
        <ele>442.34</ele>
        <time>2022-04-25T09:12:57Z</time>
      </trkpt>
      <trkpt lat="44.80773" lon="4.65358">
        <ele>445.23</ele>
        <time>2022-04-25T09:13:09Z</time>
      </trkpt>
      <trkpt lat="44.80776" lon="4.65382">
        <ele>448.11</ele>
        <time>2022-04-25T09:13:23Z</time>
      </trkpt>
      <trkpt lat="44.80776" lon="4.65409">
        <ele>446.67</ele>
        <time>2022-04-25T09:13:37Z</time>
      </trkpt>
      <trkpt lat="44.80778" lon="4.65417">
        <ele>447.63</ele>
        <time>2022-04-25T09:13:41Z</time>
      </trkpt>
      <trkpt lat="44.80782" lon="4.65442">
        <ele>447.15</ele>
        <time>2022-04-25T09:13:54Z</time>
      </trkpt>
      <trkpt lat="44.80783" lon="4.65454">
        <ele>445.23</ele>
        <time>2022-04-25T09:13:59Z</time>
      </trkpt>
      <trkpt lat="44.80791" lon="4.65472">
        <ele>446.19</ele>
        <time>2022-04-25T09:14:12Z</time>
      </trkpt>
      <trkpt lat="44.808" lon="4.65487">
        <ele>447.15</ele>
        <time>2022-04-25T09:14:27Z</time>
      </trkpt>
      <trkpt lat="44.8081" lon="4.65498">
        <ele>447.63</ele>
        <time>2022-04-25T09:14:41Z</time>
      </trkpt>
      <trkpt lat="44.80813" lon="4.65503">
        <ele>449.07</ele>
        <time>2022-04-25T09:14:48Z</time>
      </trkpt>
      <trkpt lat="44.80815" lon="4.65504">
        <ele>449.07</ele>
        <time>2022-04-25T09:14:49Z</time>
      </trkpt>
      <trkpt lat="44.80816" lon="4.65506">
        <ele>449.55</ele>
        <time>2022-04-25T09:14:51Z</time>
      </trkpt>
      <trkpt lat="44.80817" lon="4.65507">
        <ele>449.55</ele>
        <time>2022-04-25T09:14:52Z</time>
      </trkpt>
      <trkpt lat="44.80829" lon="4.6552">
        <ele>450.03</ele>
        <time>2022-04-25T09:15:04Z</time>
      </trkpt>
      <trkpt lat="44.80831" lon="4.65521">
        <ele>450.03</ele>
        <time>2022-04-25T09:15:06Z</time>
      </trkpt>
      <trkpt lat="44.80842" lon="4.65527">
        <ele>451</ele>
        <time>2022-04-25T09:15:17Z</time>
      </trkpt>
      <trkpt lat="44.80845" lon="4.65529">
        <ele>452.44</ele>
        <time>2022-04-25T09:15:37Z</time>
      </trkpt>
      <trkpt lat="44.80848" lon="4.6553">
        <ele>452.92</ele>
        <time>2022-04-25T09:15:39Z</time>
      </trkpt>
      <trkpt lat="44.8085" lon="4.65528">
        <ele>452.92</ele>
        <time>2022-04-25T09:15:41Z</time>
      </trkpt>
      <trkpt lat="44.80853" lon="4.65527">
        <ele>452.44</ele>
        <time>2022-04-25T09:15:44Z</time>
      </trkpt>
      <trkpt lat="44.80859" lon="4.65529">
        <ele>452.92</ele>
        <time>2022-04-25T09:15:49Z</time>
      </trkpt>
      <trkpt lat="44.8086" lon="4.6553">
        <ele>452.92</ele>
        <time>2022-04-25T09:15:50Z</time>
      </trkpt>
      <trkpt lat="44.80862" lon="4.6553">
        <ele>452.44</ele>
        <time>2022-04-25T09:15:51Z</time>
      </trkpt>
      <trkpt lat="44.80866" lon="4.65533">
        <ele>451.96</ele>
        <time>2022-04-25T09:15:54Z</time>
      </trkpt>
      <trkpt lat="44.80867" lon="4.65534">
        <ele>451.48</ele>
        <time>2022-04-25T09:15:55Z</time>
      </trkpt>
      <trkpt lat="44.80877" lon="4.65541">
        <ele>452.44</ele>
        <time>2022-04-25T09:16:07Z</time>
      </trkpt>
      <trkpt lat="44.80884" lon="4.65552">
        <ele>453.4</ele>
        <time>2022-04-25T09:16:18Z</time>
      </trkpt>
      <trkpt lat="44.80894" lon="4.65564">
        <ele>452.92</ele>
        <time>2022-04-25T09:16:29Z</time>
      </trkpt>
      <trkpt lat="44.809" lon="4.6557">
        <ele>451.96</ele>
        <time>2022-04-25T09:16:34Z</time>
      </trkpt>
      <trkpt lat="44.80917" lon="4.65575">
        <ele>451</ele>
        <time>2022-04-25T09:16:46Z</time>
      </trkpt>
      <trkpt lat="44.80925" lon="4.65581">
        <ele>450.03</ele>
        <time>2022-04-25T09:16:54Z</time>
      </trkpt>
      <trkpt lat="44.80926" lon="4.65582">
        <ele>450.52</ele>
        <time>2022-04-25T09:16:55Z</time>
      </trkpt>
      <trkpt lat="44.80927" lon="4.65582">
        <ele>450.52</ele>
        <time>2022-04-25T09:16:56Z</time>
      </trkpt>
      <trkpt lat="44.80943" lon="4.6559">
        <ele>449.07</ele>
        <time>2022-04-25T09:17:11Z</time>
      </trkpt>
      <trkpt lat="44.80951" lon="4.65596">
        <ele>451.96</ele>
        <time>2022-04-25T09:17:18Z</time>
      </trkpt>
      <trkpt lat="44.80953" lon="4.656">
        <ele>451.96</ele>
        <time>2022-04-25T09:17:21Z</time>
      </trkpt>
      <trkpt lat="44.8096" lon="4.65605">
        <ele>452.44</ele>
        <time>2022-04-25T09:17:28Z</time>
      </trkpt>
      <trkpt lat="44.80961" lon="4.65607">
        <ele>452.92</ele>
        <time>2022-04-25T09:17:29Z</time>
      </trkpt>
      <trkpt lat="44.80963" lon="4.65611">
        <ele>452.92</ele>
        <time>2022-04-25T09:17:32Z</time>
      </trkpt>
      <trkpt lat="44.80965" lon="4.65612">
        <ele>452.92</ele>
        <time>2022-04-25T09:17:33Z</time>
      </trkpt>
      <trkpt lat="44.80966" lon="4.65612">
        <ele>453.4</ele>
        <time>2022-04-25T09:17:34Z</time>
      </trkpt>
      <trkpt lat="44.80968" lon="4.65613">
        <ele>453.4</ele>
        <time>2022-04-25T09:17:35Z</time>
      </trkpt>
      <trkpt lat="44.80972" lon="4.65616">
        <ele>454.84</ele>
        <time>2022-04-25T09:17:39Z</time>
      </trkpt>
      <trkpt lat="44.80973" lon="4.65618">
        <ele>455.32</ele>
        <time>2022-04-25T09:17:40Z</time>
      </trkpt>
      <trkpt lat="44.80976" lon="4.65622">
        <ele>456.28</ele>
        <time>2022-04-25T09:17:44Z</time>
      </trkpt>
      <trkpt lat="44.8098" lon="4.65623">
        <ele>457.24</ele>
        <time>2022-04-25T09:17:47Z</time>
      </trkpt>
      <trkpt lat="44.80982" lon="4.65623">
        <ele>457.24</ele>
        <time>2022-04-25T09:17:48Z</time>
      </trkpt>
      <trkpt lat="44.80983" lon="4.65624">
        <ele>457.24</ele>
        <time>2022-04-25T09:17:49Z</time>
      </trkpt>
      <trkpt lat="44.80984" lon="4.65624">
        <ele>457.24</ele>
        <time>2022-04-25T09:17:50Z</time>
      </trkpt>
      <trkpt lat="44.80987" lon="4.65624">
        <ele>456.76</ele>
        <time>2022-04-25T09:17:52Z</time>
      </trkpt>
      <trkpt lat="44.80994" lon="4.65625">
        <ele>456.76</ele>
        <time>2022-04-25T09:17:59Z</time>
      </trkpt>
      <trkpt lat="44.80996" lon="4.65625">
        <ele>456.76</ele>
        <time>2022-04-25T09:18:01Z</time>
      </trkpt>
      <trkpt lat="44.80998" lon="4.65625">
        <ele>456.76</ele>
        <time>2022-04-25T09:18:02Z</time>
      </trkpt>
      <trkpt lat="44.80999" lon="4.65624">
        <ele>456.76</ele>
        <time>2022-04-25T09:18:03Z</time>
      </trkpt>
      <trkpt lat="44.81004" lon="4.65623">
        <ele>457.24</ele>
        <time>2022-04-25T09:18:09Z</time>
      </trkpt>
      <trkpt lat="44.8102" lon="4.65622">
        <ele>456.76</ele>
        <time>2022-04-25T09:18:20Z</time>
      </trkpt>
      <trkpt lat="44.81026" lon="4.65624">
        <ele>454.36</ele>
        <time>2022-04-25T09:18:29Z</time>
      </trkpt>
      <trkpt lat="44.8103" lon="4.65627">
        <ele>453.4</ele>
        <time>2022-04-25T09:18:33Z</time>
      </trkpt>
      <trkpt lat="44.81032" lon="4.65627">
        <ele>453.4</ele>
        <time>2022-04-25T09:18:34Z</time>
      </trkpt>
      <trkpt lat="44.81035" lon="4.6563">
        <ele>453.4</ele>
        <time>2022-04-25T09:18:37Z</time>
      </trkpt>
      <trkpt lat="44.81037" lon="4.65631">
        <ele>452.92</ele>
        <time>2022-04-25T09:18:38Z</time>
      </trkpt>
      <trkpt lat="44.81038" lon="4.65632">
        <ele>452.92</ele>
        <time>2022-04-25T09:18:39Z</time>
      </trkpt>
      <trkpt lat="44.8105" lon="4.65644">
        <ele>447.63</ele>
        <time>2022-04-25T09:18:50Z</time>
      </trkpt>
      <trkpt lat="44.81067" lon="4.65656">
        <ele>444.75</ele>
        <time>2022-04-25T09:19:03Z</time>
      </trkpt>
      <trkpt lat="44.81082" lon="4.65662">
        <ele>441.86</ele>
        <time>2022-04-25T09:19:13Z</time>
      </trkpt>
      <trkpt lat="44.81093" lon="4.6567">
        <ele>440.9</ele>
        <time>2022-04-25T09:19:23Z</time>
      </trkpt>
      <trkpt lat="44.81095" lon="4.65673">
        <ele>440.9</ele>
        <time>2022-04-25T09:19:26Z</time>
      </trkpt>
      <trkpt lat="44.81113" lon="4.65687">
        <ele>439.94</ele>
        <time>2022-04-25T09:19:39Z</time>
      </trkpt>
      <trkpt lat="44.81123" lon="4.65694">
        <ele>437.54</ele>
        <time>2022-04-25T09:19:52Z</time>
      </trkpt>
      <trkpt lat="44.81124" lon="4.65696">
        <ele>437.06</ele>
        <time>2022-04-25T09:19:53Z</time>
      </trkpt>
      <trkpt lat="44.81132" lon="4.65705">
        <ele>434.17</ele>
        <time>2022-04-25T09:20:05Z</time>
      </trkpt>
      <trkpt lat="44.81143" lon="4.65716">
        <ele>434.17</ele>
        <time>2022-04-25T09:20:16Z</time>
      </trkpt>
      <trkpt lat="44.81152" lon="4.65731">
        <ele>434.17</ele>
        <time>2022-04-25T09:20:26Z</time>
      </trkpt>
      <trkpt lat="44.81157" lon="4.65736">
        <ele>434.17</ele>
        <time>2022-04-25T09:20:30Z</time>
      </trkpt>
      <trkpt lat="44.81158" lon="4.65737">
        <ele>434.17</ele>
        <time>2022-04-25T09:20:31Z</time>
      </trkpt>
      <trkpt lat="44.81173" lon="4.65752">
        <ele>433.69</ele>
        <time>2022-04-25T09:20:45Z</time>
      </trkpt>
      <trkpt lat="44.81181" lon="4.65758">
        <ele>431.29</ele>
        <time>2022-04-25T09:20:57Z</time>
      </trkpt>
      <trkpt lat="44.81195" lon="4.65763">
        <ele>435.61</ele>
        <time>2022-04-25T09:21:12Z</time>
      </trkpt>
      <trkpt lat="44.81204" lon="4.65769">
        <ele>441.86</ele>
        <time>2022-04-25T09:21:26Z</time>
      </trkpt>
      <trkpt lat="44.81207" lon="4.65776">
        <ele>443.31</ele>
        <time>2022-04-25T09:21:39Z</time>
      </trkpt>
      <trkpt lat="44.81215" lon="4.65787">
        <ele>443.31</ele>
        <time>2022-04-25T09:21:51Z</time>
      </trkpt>
      <trkpt lat="44.81222" lon="4.65803">
        <ele>442.34</ele>
        <time>2022-04-25T09:22:05Z</time>
      </trkpt>
      <trkpt lat="44.81223" lon="4.65805">
        <ele>442.34</ele>
        <time>2022-04-25T09:22:06Z</time>
      </trkpt>
      <trkpt lat="44.81223" lon="4.65806">
        <ele>441.86</ele>
        <time>2022-04-25T09:22:07Z</time>
      </trkpt>
      <trkpt lat="44.8123" lon="4.65822">
        <ele>437.54</ele>
        <time>2022-04-25T09:22:18Z</time>
      </trkpt>
      <trkpt lat="44.81235" lon="4.65845">
        <ele>435.13</ele>
        <time>2022-04-25T09:22:33Z</time>
      </trkpt>
      <trkpt lat="44.81235" lon="4.65846">
        <ele>435.13</ele>
        <time>2022-04-25T09:22:34Z</time>
      </trkpt>
      <trkpt lat="44.81236" lon="4.65847">
        <ele>435.61</ele>
        <time>2022-04-25T09:22:35Z</time>
      </trkpt>
      <trkpt lat="44.81239" lon="4.65874">
        <ele>436.58</ele>
        <time>2022-04-25T09:22:50Z</time>
      </trkpt>
      <trkpt lat="44.81239" lon="4.65887">
        <ele>438.98</ele>
        <time>2022-04-25T09:22:58Z</time>
      </trkpt>
      <trkpt lat="44.81239" lon="4.65889">
        <ele>439.46</ele>
        <time>2022-04-25T09:22:59Z</time>
      </trkpt>
      <trkpt lat="44.81239" lon="4.65891">
        <ele>438.98</ele>
        <time>2022-04-25T09:23:00Z</time>
      </trkpt>
      <trkpt lat="44.81239" lon="4.65893">
        <ele>438.98</ele>
        <time>2022-04-25T09:23:01Z</time>
      </trkpt>
      <trkpt lat="44.81239" lon="4.65895">
        <ele>438.98</ele>
        <time>2022-04-25T09:23:02Z</time>
      </trkpt>
      <trkpt lat="44.8124" lon="4.65901">
        <ele>439.46</ele>
        <time>2022-04-25T09:23:06Z</time>
      </trkpt>
      <trkpt lat="44.8124" lon="4.65903">
        <ele>439.46</ele>
        <time>2022-04-25T09:23:07Z</time>
      </trkpt>
      <trkpt lat="44.8124" lon="4.65927">
        <ele>440.9</ele>
        <time>2022-04-25T09:23:20Z</time>
      </trkpt>
      <trkpt lat="44.81241" lon="4.65938">
        <ele>442.82</ele>
        <time>2022-04-25T09:23:26Z</time>
      </trkpt>
      <trkpt lat="44.81241" lon="4.65964">
        <ele>450.03</ele>
        <time>2022-04-25T09:23:42Z</time>
      </trkpt>
      <trkpt lat="44.81239" lon="4.65984">
        <ele>452.44</ele>
        <time>2022-04-25T09:23:53Z</time>
      </trkpt>
      <trkpt lat="44.81239" lon="4.65989">
        <ele>453.4</ele>
        <time>2022-04-25T09:23:56Z</time>
      </trkpt>
      <trkpt lat="44.81235" lon="4.66003">
        <ele>455.8</ele>
        <time>2022-04-25T09:24:04Z</time>
      </trkpt>
      <trkpt lat="44.81233" lon="4.66022">
        <ele>458.69</ele>
        <time>2022-04-25T09:24:14Z</time>
      </trkpt>
      <trkpt lat="44.81231" lon="4.66033">
        <ele>459.65</ele>
        <time>2022-04-25T09:24:19Z</time>
      </trkpt>
      <trkpt lat="44.81222" lon="4.6606">
        <ele>458.69</ele>
        <time>2022-04-25T09:24:34Z</time>
      </trkpt>
      <trkpt lat="44.81216" lon="4.66088">
        <ele>459.17</ele>
        <time>2022-04-25T09:24:46Z</time>
      </trkpt>
      <trkpt lat="44.81215" lon="4.66098">
        <ele>458.21</ele>
        <time>2022-04-25T09:24:51Z</time>
      </trkpt>
      <trkpt lat="44.81221" lon="4.66126">
        <ele>454.36</ele>
        <time>2022-04-25T09:25:03Z</time>
      </trkpt>
      <trkpt lat="44.81224" lon="4.66133">
        <ele>454.36</ele>
        <time>2022-04-25T09:25:05Z</time>
      </trkpt>
      <trkpt lat="44.81226" lon="4.66135">
        <ele>453.88</ele>
        <time>2022-04-25T09:25:06Z</time>
      </trkpt>
      <trkpt lat="44.81233" lon="4.66162">
        <ele>444.27</ele>
        <time>2022-04-25T09:25:19Z</time>
      </trkpt>
      <trkpt lat="44.81245" lon="4.66166">
        <ele>440.9</ele>
        <time>2022-04-25T09:25:31Z</time>
      </trkpt>
      <trkpt lat="44.81258" lon="4.66171">
        <ele>435.61</ele>
        <time>2022-04-25T09:25:46Z</time>
      </trkpt>
      <trkpt lat="44.81282" lon="4.66175">
        <ele>430.33</ele>
        <time>2022-04-25T09:26:02Z</time>
      </trkpt>
      <trkpt lat="44.81304" lon="4.66185">
        <ele>430.81</ele>
        <time>2022-04-25T09:26:19Z</time>
      </trkpt>
      <trkpt lat="44.81315" lon="4.66186">
        <ele>428.89</ele>
        <time>2022-04-25T09:26:33Z</time>
      </trkpt>
      <trkpt lat="44.81328" lon="4.66192">
        <ele>424.08</ele>
        <time>2022-04-25T09:26:51Z</time>
      </trkpt>
      <trkpt lat="44.81329" lon="4.66193">
        <ele>424.08</ele>
        <time>2022-04-25T09:26:52Z</time>
      </trkpt>
      <trkpt lat="44.81348" lon="4.66204">
        <ele>420.71</ele>
        <time>2022-04-25T09:27:09Z</time>
      </trkpt>
      <trkpt lat="44.81369" lon="4.66217">
        <ele>418.79</ele>
        <time>2022-04-25T09:27:25Z</time>
      </trkpt>
      <trkpt lat="44.81383" lon="4.66229">
        <ele>416.87</ele>
        <time>2022-04-25T09:27:36Z</time>
      </trkpt>
      <trkpt lat="44.81384" lon="4.66231">
        <ele>416.87</ele>
        <time>2022-04-25T09:27:37Z</time>
      </trkpt>
      <trkpt lat="44.81397" lon="4.66253">
        <ele>416.39</ele>
        <time>2022-04-25T09:27:51Z</time>
      </trkpt>
      <trkpt lat="44.81401" lon="4.66269">
        <ele>416.87</ele>
        <time>2022-04-25T09:28:01Z</time>
      </trkpt>
      <trkpt lat="44.81401" lon="4.66271">
        <ele>416.87</ele>
        <time>2022-04-25T09:28:02Z</time>
      </trkpt>
      <trkpt lat="44.81401" lon="4.66272">
        <ele>417.35</ele>
        <time>2022-04-25T09:28:03Z</time>
      </trkpt>
      <trkpt lat="44.814" lon="4.66298">
        <ele>421.68</ele>
        <time>2022-04-25T09:28:17Z</time>
      </trkpt>
      <trkpt lat="44.81406" lon="4.66329">
        <ele>423.12</ele>
        <time>2022-04-25T09:28:32Z</time>
      </trkpt>
      <trkpt lat="44.81421" lon="4.6635">
        <ele>419.27</ele>
        <time>2022-04-25T09:28:44Z</time>
      </trkpt>
      <trkpt lat="44.81431" lon="4.66356">
        <ele>421.68</ele>
        <time>2022-04-25T09:28:51Z</time>
      </trkpt>
      <trkpt lat="44.81431" lon="4.66357">
        <ele>422.64</ele>
        <time>2022-04-25T09:28:52Z</time>
      </trkpt>
      <trkpt lat="44.81447" lon="4.66371">
        <ele>434.65</ele>
        <time>2022-04-25T09:29:08Z</time>
      </trkpt>
      <trkpt lat="44.8145" lon="4.66375">
        <ele>437.06</ele>
        <time>2022-04-25T09:29:12Z</time>
      </trkpt>
      <trkpt lat="44.81451" lon="4.66377">
        <ele>437.54</ele>
        <time>2022-04-25T09:29:13Z</time>
      </trkpt>
      <trkpt lat="44.81451" lon="4.66378">
        <ele>438.02</ele>
        <time>2022-04-25T09:29:14Z</time>
      </trkpt>
      <trkpt lat="44.81465" lon="4.66395">
        <ele>444.27</ele>
        <time>2022-04-25T09:29:28Z</time>
      </trkpt>
      <trkpt lat="44.81484" lon="4.66403">
        <ele>441.38</ele>
        <time>2022-04-25T09:29:43Z</time>
      </trkpt>
      <trkpt lat="44.81497" lon="4.66406">
        <ele>433.69</ele>
        <time>2022-04-25T09:29:52Z</time>
      </trkpt>
      <trkpt lat="44.81499" lon="4.66405">
        <ele>432.73</ele>
        <time>2022-04-25T09:29:53Z</time>
      </trkpt>
      <trkpt lat="44.815" lon="4.66405">
        <ele>431.77</ele>
        <time>2022-04-25T09:29:54Z</time>
      </trkpt>
      <trkpt lat="44.81502" lon="4.66405">
        <ele>430.33</ele>
        <time>2022-04-25T09:29:55Z</time>
      </trkpt>
      <trkpt lat="44.81503" lon="4.66405">
        <ele>429.37</ele>
        <time>2022-04-25T09:29:56Z</time>
      </trkpt>
      <trkpt lat="44.81505" lon="4.66406">
        <ele>428.4</ele>
        <time>2022-04-25T09:29:57Z</time>
      </trkpt>
      <trkpt lat="44.81506" lon="4.66406">
        <ele>427.44</ele>
        <time>2022-04-25T09:29:58Z</time>
      </trkpt>
      <trkpt lat="44.81508" lon="4.66406">
        <ele>426.48</ele>
        <time>2022-04-25T09:29:59Z</time>
      </trkpt>
      <trkpt lat="44.81509" lon="4.66406">
        <ele>425.52</ele>
        <time>2022-04-25T09:30:00Z</time>
      </trkpt>
      <trkpt lat="44.81511" lon="4.66406">
        <ele>424.08</ele>
        <time>2022-04-25T09:30:01Z</time>
      </trkpt>
      <trkpt lat="44.81513" lon="4.66407">
        <ele>423.12</ele>
        <time>2022-04-25T09:30:02Z</time>
      </trkpt>
      <trkpt lat="44.81514" lon="4.66408">
        <ele>422.64</ele>
        <time>2022-04-25T09:30:03Z</time>
      </trkpt>
      <trkpt lat="44.81516" lon="4.66408">
        <ele>421.68</ele>
        <time>2022-04-25T09:30:04Z</time>
      </trkpt>
      <trkpt lat="44.81517" lon="4.66409">
        <ele>421.68</ele>
        <time>2022-04-25T09:30:05Z</time>
      </trkpt>
      <trkpt lat="44.81518" lon="4.6641">
        <ele>421.68</ele>
        <time>2022-04-25T09:30:06Z</time>
      </trkpt>
      <trkpt lat="44.81518" lon="4.66412">
        <ele>421.68</ele>
        <time>2022-04-25T09:30:07Z</time>
      </trkpt>
      <trkpt lat="44.8152" lon="4.66413">
        <ele>421.68</ele>
        <time>2022-04-25T09:30:08Z</time>
      </trkpt>
      <trkpt lat="44.81521" lon="4.66414">
        <ele>421.19</ele>
        <time>2022-04-25T09:30:09Z</time>
      </trkpt>
      <trkpt lat="44.81536" lon="4.66427">
        <ele>417.83</ele>
        <time>2022-04-25T09:30:21Z</time>
      </trkpt>
      <trkpt lat="44.81538" lon="4.66428">
        <ele>417.35</ele>
        <time>2022-04-25T09:30:22Z</time>
      </trkpt>
      <trkpt lat="44.81539" lon="4.66428">
        <ele>416.87</ele>
        <time>2022-04-25T09:30:23Z</time>
      </trkpt>
      <trkpt lat="44.81553" lon="4.66432">
        <ele>407.74</ele>
        <time>2022-04-25T09:30:37Z</time>
      </trkpt>
      <trkpt lat="44.81553" lon="4.66433">
        <ele>407.74</ele>
        <time>2022-04-25T09:31:00Z</time>
      </trkpt>
      <trkpt lat="44.81555" lon="4.66433">
        <ele>404.85</ele>
        <time>2022-04-25T09:31:14Z</time>
      </trkpt>
      <trkpt lat="44.81567" lon="4.66446">
        <ele>404.37</ele>
        <time>2022-04-25T09:31:27Z</time>
      </trkpt>
      <trkpt lat="44.81586" lon="4.66468">
        <ele>403.41</ele>
        <time>2022-04-25T09:31:44Z</time>
      </trkpt>
      <trkpt lat="44.81599" lon="4.66493">
        <ele>405.33</ele>
        <time>2022-04-25T09:32:01Z</time>
      </trkpt>
      <trkpt lat="44.81613" lon="4.66519">
        <ele>404.85</ele>
        <time>2022-04-25T09:32:17Z</time>
      </trkpt>
      <trkpt lat="44.8162" lon="4.66549">
        <ele>407.74</ele>
        <time>2022-04-25T09:32:32Z</time>
      </trkpt>
      <trkpt lat="44.81627" lon="4.66584">
        <ele>406.29</ele>
        <time>2022-04-25T09:32:50Z</time>
      </trkpt>
      <trkpt lat="44.81626" lon="4.66595">
        <ele>406.77</ele>
        <time>2022-04-25T09:32:56Z</time>
      </trkpt>
      <trkpt lat="44.81627" lon="4.66597">
        <ele>407.26</ele>
        <time>2022-04-25T09:32:57Z</time>
      </trkpt>
      <trkpt lat="44.81627" lon="4.66598">
        <ele>407.26</ele>
        <time>2022-04-25T09:32:58Z</time>
      </trkpt>
      <trkpt lat="44.81626" lon="4.666">
        <ele>407.26</ele>
        <time>2022-04-25T09:32:59Z</time>
      </trkpt>
      <trkpt lat="44.81626" lon="4.66602">
        <ele>407.26</ele>
        <time>2022-04-25T09:33:00Z</time>
      </trkpt>
      <trkpt lat="44.81627" lon="4.66614">
        <ele>408.7</ele>
        <time>2022-04-25T09:33:07Z</time>
      </trkpt>
      <trkpt lat="44.81632" lon="4.66641">
        <ele>412.54</ele>
        <time>2022-04-25T09:33:21Z</time>
      </trkpt>
      <trkpt lat="44.81635" lon="4.66657">
        <ele>412.06</ele>
        <time>2022-04-25T09:33:30Z</time>
      </trkpt>
      <trkpt lat="44.81635" lon="4.66659">
        <ele>412.06</ele>
        <time>2022-04-25T09:33:31Z</time>
      </trkpt>
      <trkpt lat="44.81636" lon="4.66661">
        <ele>412.54</ele>
        <time>2022-04-25T09:33:32Z</time>
      </trkpt>
      <trkpt lat="44.81637" lon="4.66663">
        <ele>412.06</ele>
        <time>2022-04-25T09:33:33Z</time>
      </trkpt>
      <trkpt lat="44.81637" lon="4.66665">
        <ele>412.06</ele>
        <time>2022-04-25T09:33:34Z</time>
      </trkpt>
      <trkpt lat="44.81638" lon="4.66667">
        <ele>412.06</ele>
        <time>2022-04-25T09:33:35Z</time>
      </trkpt>
      <trkpt lat="44.81646" lon="4.66702">
        <ele>413.5</ele>
        <time>2022-04-25T09:33:52Z</time>
      </trkpt>
      <trkpt lat="44.81652" lon="4.66732">
        <ele>409.18</ele>
        <time>2022-04-25T09:34:06Z</time>
      </trkpt>
      <trkpt lat="44.81658" lon="4.6675">
        <ele>405.81</ele>
        <time>2022-04-25T09:34:16Z</time>
      </trkpt>
      <trkpt lat="44.81658" lon="4.66753">
        <ele>405.33</ele>
        <time>2022-04-25T09:34:17Z</time>
      </trkpt>
      <trkpt lat="44.81662" lon="4.6677">
        <ele>404.37</ele>
        <time>2022-04-25T09:34:27Z</time>
      </trkpt>
      <trkpt lat="44.81663" lon="4.66772">
        <ele>404.37</ele>
        <time>2022-04-25T09:34:28Z</time>
      </trkpt>
      <trkpt lat="44.81663" lon="4.66774">
        <ele>403.89</ele>
        <time>2022-04-25T09:34:29Z</time>
      </trkpt>
      <trkpt lat="44.81663" lon="4.66776">
        <ele>403.89</ele>
        <time>2022-04-25T09:34:30Z</time>
      </trkpt>
      <trkpt lat="44.81664" lon="4.66778">
        <ele>403.41</ele>
        <time>2022-04-25T09:34:31Z</time>
      </trkpt>
      <trkpt lat="44.81676" lon="4.66805">
        <ele>402.45</ele>
        <time>2022-04-25T09:34:45Z</time>
      </trkpt>
      <trkpt lat="44.81681" lon="4.66838">
        <ele>403.89</ele>
        <time>2022-04-25T09:35:01Z</time>
      </trkpt>
      <trkpt lat="44.81685" lon="4.66865">
        <ele>403.89</ele>
        <time>2022-04-25T09:35:15Z</time>
      </trkpt>
      <trkpt lat="44.81685" lon="4.66867">
        <ele>403.89</ele>
        <time>2022-04-25T09:35:16Z</time>
      </trkpt>
      <trkpt lat="44.81686" lon="4.66869">
        <ele>403.89</ele>
        <time>2022-04-25T09:35:17Z</time>
      </trkpt>
      <trkpt lat="44.81686" lon="4.66871">
        <ele>403.89</ele>
        <time>2022-04-25T09:35:18Z</time>
      </trkpt>
      <trkpt lat="44.81687" lon="4.66874">
        <ele>403.41</ele>
        <time>2022-04-25T09:35:19Z</time>
      </trkpt>
      <trkpt lat="44.81688" lon="4.66876">
        <ele>403.41</ele>
        <time>2022-04-25T09:35:20Z</time>
      </trkpt>
      <trkpt lat="44.81687" lon="4.66878">
        <ele>402.45</ele>
        <time>2022-04-25T09:35:21Z</time>
      </trkpt>
      <trkpt lat="44.81687" lon="4.6688">
        <ele>401.97</ele>
        <time>2022-04-25T09:35:22Z</time>
      </trkpt>
      <trkpt lat="44.81686" lon="4.66911">
        <ele>398.6</ele>
        <time>2022-04-25T09:35:38Z</time>
      </trkpt>
      <trkpt lat="44.81686" lon="4.66913">
        <ele>398.6</ele>
        <time>2022-04-25T09:35:39Z</time>
      </trkpt>
      <trkpt lat="44.81685" lon="4.66915">
        <ele>398.6</ele>
        <time>2022-04-25T09:35:40Z</time>
      </trkpt>
      <trkpt lat="44.81683" lon="4.66932">
        <ele>396.68</ele>
        <time>2022-04-25T09:35:48Z</time>
      </trkpt>
      <trkpt lat="44.81683" lon="4.66935">
        <ele>396.2</ele>
        <time>2022-04-25T09:35:50Z</time>
      </trkpt>
      <trkpt lat="44.81683" lon="4.66936">
        <ele>396.2</ele>
        <time>2022-04-25T09:35:51Z</time>
      </trkpt>
      <trkpt lat="44.81684" lon="4.66938">
        <ele>396.2</ele>
        <time>2022-04-25T09:35:52Z</time>
      </trkpt>
      <trkpt lat="44.81684" lon="4.66941">
        <ele>396.2</ele>
        <time>2022-04-25T09:35:53Z</time>
      </trkpt>
      <trkpt lat="44.81684" lon="4.66943">
        <ele>396.2</ele>
        <time>2022-04-25T09:35:54Z</time>
      </trkpt>
      <trkpt lat="44.81685" lon="4.66945">
        <ele>396.2</ele>
        <time>2022-04-25T09:35:55Z</time>
      </trkpt>
      <trkpt lat="44.81691" lon="4.66976">
        <ele>392.36</ele>
        <time>2022-04-25T09:36:10Z</time>
      </trkpt>
      <trkpt lat="44.81696" lon="4.67004">
        <ele>391.39</ele>
        <time>2022-04-25T09:36:25Z</time>
      </trkpt>
      <trkpt lat="44.81698" lon="4.67013">
        <ele>390.43</ele>
        <time>2022-04-25T09:36:30Z</time>
      </trkpt>
      <trkpt lat="44.81699" lon="4.67014">
        <ele>390.43</ele>
        <time>2022-04-25T09:36:31Z</time>
      </trkpt>
      <trkpt lat="44.81701" lon="4.67016">
        <ele>389.95</ele>
        <time>2022-04-25T09:36:32Z</time>
      </trkpt>
      <trkpt lat="44.81703" lon="4.67017">
        <ele>389.95</ele>
        <time>2022-04-25T09:36:33Z</time>
      </trkpt>
      <trkpt lat="44.81704" lon="4.67021">
        <ele>388.99</ele>
        <time>2022-04-25T09:36:36Z</time>
      </trkpt>
      <trkpt lat="44.81704" lon="4.67023">
        <ele>388.51</ele>
        <time>2022-04-25T09:36:37Z</time>
      </trkpt>
      <trkpt lat="44.81705" lon="4.67026">
        <ele>385.15</ele>
        <time>2022-04-25T09:36:51Z</time>
      </trkpt>
      <trkpt lat="44.81704" lon="4.67028">
        <ele>385.15</ele>
        <time>2022-04-25T09:36:53Z</time>
      </trkpt>
      <trkpt lat="44.81704" lon="4.67029">
        <ele>385.15</ele>
        <time>2022-04-25T09:36:54Z</time>
      </trkpt>
      <trkpt lat="44.81703" lon="4.6703">
        <ele>385.15</ele>
        <time>2022-04-25T09:36:55Z</time>
      </trkpt>
      <trkpt lat="44.81702" lon="4.67031">
        <ele>385.63</ele>
        <time>2022-04-25T09:36:56Z</time>
      </trkpt>
      <trkpt lat="44.81698" lon="4.67055">
        <ele>386.59</ele>
        <time>2022-04-25T09:37:12Z</time>
      </trkpt>
      <trkpt lat="44.81697" lon="4.6708">
        <ele>385.63</ele>
        <time>2022-04-25T09:37:27Z</time>
      </trkpt>
      <trkpt lat="44.81699" lon="4.67095">
        <ele>386.11</ele>
        <time>2022-04-25T09:37:37Z</time>
      </trkpt>
      <trkpt lat="44.81703" lon="4.67129">
        <ele>391.87</ele>
        <time>2022-04-25T09:37:53Z</time>
      </trkpt>
      <trkpt lat="44.81704" lon="4.67154">
        <ele>396.68</ele>
        <time>2022-04-25T09:38:07Z</time>
      </trkpt>
      <trkpt lat="44.81702" lon="4.6716">
        <ele>392.84</ele>
        <time>2022-04-25T09:38:08Z</time>
      </trkpt>
      <trkpt lat="44.81702" lon="4.67162">
        <ele>392.36</ele>
        <time>2022-04-25T09:38:09Z</time>
      </trkpt>
      <trkpt lat="44.81702" lon="4.67164">
        <ele>392.36</ele>
        <time>2022-04-25T09:38:10Z</time>
      </trkpt>
      <trkpt lat="44.81703" lon="4.67166">
        <ele>391.87</ele>
        <time>2022-04-25T09:38:11Z</time>
      </trkpt>
      <trkpt lat="44.8171" lon="4.67197">
        <ele>389.47</ele>
        <time>2022-04-25T09:38:26Z</time>
      </trkpt>
      <trkpt lat="44.8171" lon="4.6722">
        <ele>391.39</ele>
        <time>2022-04-25T09:38:40Z</time>
      </trkpt>
      <trkpt lat="44.81707" lon="4.67253">
        <ele>392.84</ele>
        <time>2022-04-25T09:38:58Z</time>
      </trkpt>
      <trkpt lat="44.81705" lon="4.67291">
        <ele>388.03</ele>
        <time>2022-04-25T09:39:13Z</time>
      </trkpt>
      <trkpt lat="44.81711" lon="4.67329">
        <ele>380.34</ele>
        <time>2022-04-25T09:39:30Z</time>
      </trkpt>
      <trkpt lat="44.81721" lon="4.67361">
        <ele>375.53</ele>
        <time>2022-04-25T09:39:47Z</time>
      </trkpt>
      <trkpt lat="44.8173" lon="4.67392">
        <ele>373.13</ele>
        <time>2022-04-25T09:40:04Z</time>
      </trkpt>
      <trkpt lat="44.8174" lon="4.67423">
        <ele>369.76</ele>
        <time>2022-04-25T09:40:20Z</time>
      </trkpt>
      <trkpt lat="44.81744" lon="4.67455">
        <ele>370.24</ele>
        <time>2022-04-25T09:40:37Z</time>
      </trkpt>
      <trkpt lat="44.8174" lon="4.67475">
        <ele>370.24</ele>
        <time>2022-04-25T09:40:49Z</time>
      </trkpt>
      <trkpt lat="44.8174" lon="4.67478">
        <ele>370.24</ele>
        <time>2022-04-25T09:40:51Z</time>
      </trkpt>
      <trkpt lat="44.81742" lon="4.67498">
        <ele>371.69</ele>
        <time>2022-04-25T09:41:04Z</time>
      </trkpt>
      <trkpt lat="44.81749" lon="4.67511">
        <ele>373.13</ele>
        <time>2022-04-25T09:41:16Z</time>
      </trkpt>
      <trkpt lat="44.8176" lon="4.67533">
        <ele>373.13</ele>
        <time>2022-04-25T09:41:30Z</time>
      </trkpt>
      <trkpt lat="44.81776" lon="4.67553">
        <ele>372.17</ele>
        <time>2022-04-25T09:41:44Z</time>
      </trkpt>
      <trkpt lat="44.81791" lon="4.67571">
        <ele>374.09</ele>
        <time>2022-04-25T09:41:59Z</time>
      </trkpt>
      <trkpt lat="44.81809" lon="4.6759">
        <ele>370.73</ele>
        <time>2022-04-25T09:42:14Z</time>
      </trkpt>
      <trkpt lat="44.81811" lon="4.67592">
        <ele>370.73</ele>
        <time>2022-04-25T09:42:16Z</time>
      </trkpt>
      <trkpt lat="44.81812" lon="4.67594">
        <ele>370.73</ele>
        <time>2022-04-25T09:42:17Z</time>
      </trkpt>
      <trkpt lat="44.8183" lon="4.67617">
        <ele>369.76</ele>
        <time>2022-04-25T09:42:31Z</time>
      </trkpt>
      <trkpt lat="44.81845" lon="4.67634">
        <ele>366.88</ele>
        <time>2022-04-25T09:42:46Z</time>
      </trkpt>
      <trkpt lat="44.81859" lon="4.67648">
        <ele>366.4</ele>
        <time>2022-04-25T09:42:58Z</time>
      </trkpt>
      <trkpt lat="44.81876" lon="4.67659">
        <ele>366.88</ele>
        <time>2022-04-25T09:43:13Z</time>
      </trkpt>
      <trkpt lat="44.81896" lon="4.67677">
        <ele>363.04</ele>
        <time>2022-04-25T09:43:26Z</time>
      </trkpt>
      <trkpt lat="44.81898" lon="4.67678">
        <ele>363.04</ele>
        <time>2022-04-25T09:43:27Z</time>
      </trkpt>
      <trkpt lat="44.819" lon="4.67679">
        <ele>362.55</ele>
        <time>2022-04-25T09:43:28Z</time>
      </trkpt>
      <trkpt lat="44.81901" lon="4.6768">
        <ele>362.55</ele>
        <time>2022-04-25T09:43:29Z</time>
      </trkpt>
      <trkpt lat="44.81903" lon="4.6768">
        <ele>362.07</ele>
        <time>2022-04-25T09:43:30Z</time>
      </trkpt>
      <trkpt lat="44.81923" lon="4.67689">
        <ele>361.59</ele>
        <time>2022-04-25T09:43:46Z</time>
      </trkpt>
      <trkpt lat="44.8194" lon="4.67699">
        <ele>364</ele>
        <time>2022-04-25T09:43:59Z</time>
      </trkpt>
      <trkpt lat="44.81953" lon="4.67725">
        <ele>367.36</ele>
        <time>2022-04-25T09:44:14Z</time>
      </trkpt>
      <trkpt lat="44.81965" lon="4.67745">
        <ele>366.88</ele>
        <time>2022-04-25T09:44:27Z</time>
      </trkpt>
      <trkpt lat="44.81966" lon="4.67746">
        <ele>366.88</ele>
        <time>2022-04-25T09:44:28Z</time>
      </trkpt>
      <trkpt lat="44.81967" lon="4.67747">
        <ele>366.88</ele>
        <time>2022-04-25T09:44:29Z</time>
      </trkpt>
      <trkpt lat="44.81978" lon="4.67771">
        <ele>364</ele>
        <time>2022-04-25T09:44:44Z</time>
      </trkpt>
      <trkpt lat="44.81978" lon="4.67776">
        <ele>361.11</ele>
        <time>2022-04-25T09:44:52Z</time>
      </trkpt>
      <trkpt lat="44.81979" lon="4.67778">
        <ele>361.11</ele>
        <time>2022-04-25T09:44:53Z</time>
      </trkpt>
      <trkpt lat="44.81979" lon="4.67779">
        <ele>360.63</ele>
        <time>2022-04-25T09:44:54Z</time>
      </trkpt>
      <trkpt lat="44.8198" lon="4.6778">
        <ele>360.63</ele>
        <time>2022-04-25T09:44:55Z</time>
      </trkpt>
      <trkpt lat="44.8198" lon="4.67781">
        <ele>360.15</ele>
        <time>2022-04-25T09:44:56Z</time>
      </trkpt>
      <trkpt lat="44.81982" lon="4.67786">
        <ele>356.79</ele>
        <time>2022-04-25T09:45:07Z</time>
      </trkpt>
      <trkpt lat="44.81989" lon="4.67785">
        <ele>351.98</ele>
        <time>2022-04-25T09:45:20Z</time>
      </trkpt>
      <trkpt lat="44.81995" lon="4.67771">
        <ele>347.65</ele>
        <time>2022-04-25T09:45:33Z</time>
      </trkpt>
      <trkpt lat="44.81996" lon="4.67769">
        <ele>346.69</ele>
        <time>2022-04-25T09:45:37Z</time>
      </trkpt>
      <trkpt lat="44.81998" lon="4.67768">
        <ele>346.21</ele>
        <time>2022-04-25T09:45:40Z</time>
      </trkpt>
      <trkpt lat="44.82008" lon="4.67761">
        <ele>342.37</ele>
        <time>2022-04-25T09:45:53Z</time>
      </trkpt>
      <trkpt lat="44.82012" lon="4.6776">
        <ele>340.44</ele>
        <time>2022-04-25T09:46:04Z</time>
      </trkpt>
      <trkpt lat="44.82014" lon="4.67761">
        <ele>339.96</ele>
        <time>2022-04-25T09:46:06Z</time>
      </trkpt>
      <trkpt lat="44.8202" lon="4.6776">
        <ele>338.04</ele>
        <time>2022-04-25T09:46:17Z</time>
      </trkpt>
      <trkpt lat="44.82026" lon="4.67766">
        <ele>335.64</ele>
        <time>2022-04-25T09:46:29Z</time>
      </trkpt>
      <trkpt lat="44.82035" lon="4.67766">
        <ele>333.71</ele>
        <time>2022-04-25T09:46:43Z</time>
      </trkpt>
      <trkpt lat="44.82038" lon="4.67765">
        <ele>332.75</ele>
        <time>2022-04-25T09:46:50Z</time>
      </trkpt>
      <trkpt lat="44.8204" lon="4.67766">
        <ele>331.31</ele>
        <time>2022-04-25T09:46:52Z</time>
      </trkpt>
      <trkpt lat="44.82043" lon="4.67761">
        <ele>330.35</ele>
        <time>2022-04-25T09:46:56Z</time>
      </trkpt>
      <trkpt lat="44.82054" lon="4.6774">
        <ele>328.43</ele>
        <time>2022-04-25T09:47:10Z</time>
      </trkpt>
      <trkpt lat="44.82047" lon="4.67714">
        <ele>324.58</ele>
        <time>2022-04-25T09:47:22Z</time>
      </trkpt>
      <trkpt lat="44.82047" lon="4.67708">
        <ele>324.1</ele>
        <time>2022-04-25T09:47:26Z</time>
      </trkpt>
      <trkpt lat="44.82039" lon="4.67698">
        <ele>321.7</ele>
        <time>2022-04-25T09:47:32Z</time>
      </trkpt>
      <trkpt lat="44.82033" lon="4.67687">
        <ele>319.3</ele>
        <time>2022-04-25T09:47:40Z</time>
      </trkpt>
      <trkpt lat="44.82034" lon="4.67664">
        <ele>320.74</ele>
        <time>2022-04-25T09:47:55Z</time>
      </trkpt>
      <trkpt lat="44.82033" lon="4.67663">
        <ele>320.74</ele>
        <time>2022-04-25T09:47:56Z</time>
      </trkpt>
      <trkpt lat="44.82023" lon="4.67651">
        <ele>324.1</ele>
        <time>2022-04-25T09:48:07Z</time>
      </trkpt>
      <trkpt lat="44.82004" lon="4.67635">
        <ele>320.74</ele>
        <time>2022-04-25T09:48:18Z</time>
      </trkpt>
      <trkpt lat="44.82004" lon="4.67626">
        <ele>320.26</ele>
        <time>2022-04-25T09:48:31Z</time>
      </trkpt>
      <trkpt lat="44.82008" lon="4.67632">
        <ele>323.62</ele>
        <time>2022-04-25T09:48:59Z</time>
      </trkpt>
      <trkpt lat="44.82008" lon="4.67631">
        <ele>325.06</ele>
        <time>2022-04-25T09:49:21Z</time>
      </trkpt>
      <trkpt lat="44.82009" lon="4.67634">
        <ele>324.58</ele>
        <time>2022-04-25T09:49:26Z</time>
      </trkpt>
      <trkpt lat="44.82013" lon="4.67636">
        <ele>322.66</ele>
        <time>2022-04-25T09:49:32Z</time>
      </trkpt>
      <trkpt lat="44.82025" lon="4.67642">
        <ele>317.37</ele>
        <time>2022-04-25T09:49:42Z</time>
      </trkpt>
      <trkpt lat="44.82038" lon="4.67659">
        <ele>311.12</ele>
        <time>2022-04-25T09:49:58Z</time>
      </trkpt>
      <trkpt lat="44.8205" lon="4.67671">
        <ele>315.45</ele>
        <time>2022-04-25T09:50:12Z</time>
      </trkpt>
      <trkpt lat="44.82055" lon="4.67674">
        <ele>318.33</ele>
        <time>2022-04-25T09:50:18Z</time>
      </trkpt>
      <trkpt lat="44.82063" lon="4.67679">
        <ele>319.78</ele>
        <time>2022-04-25T09:50:25Z</time>
      </trkpt>
      <trkpt lat="44.82066" lon="4.67681">
        <ele>319.78</ele>
        <time>2022-04-25T09:50:27Z</time>
      </trkpt>
      <trkpt lat="44.8207" lon="4.67684">
        <ele>320.26</ele>
        <time>2022-04-25T09:50:30Z</time>
      </trkpt>
      <trkpt lat="44.82074" lon="4.67692">
        <ele>320.26</ele>
        <time>2022-04-25T09:50:36Z</time>
      </trkpt>
      <trkpt lat="44.82086" lon="4.6772">
        <ele>321.22</ele>
        <time>2022-04-25T09:50:52Z</time>
      </trkpt>
      <trkpt lat="44.82098" lon="4.67731">
        <ele>320.74</ele>
        <time>2022-04-25T09:51:06Z</time>
      </trkpt>
      <trkpt lat="44.82112" lon="4.67746">
        <ele>319.3</ele>
        <time>2022-04-25T09:51:20Z</time>
      </trkpt>
      <trkpt lat="44.82121" lon="4.67759">
        <ele>316.89</ele>
        <time>2022-04-25T09:51:29Z</time>
      </trkpt>
      <trkpt lat="44.82133" lon="4.67769">
        <ele>314.49</ele>
        <time>2022-04-25T09:51:43Z</time>
      </trkpt>
      <trkpt lat="44.82139" lon="4.67758">
        <ele>314.97</ele>
        <time>2022-04-25T09:51:55Z</time>
      </trkpt>
      <trkpt lat="44.8214" lon="4.67747">
        <ele>314.49</ele>
        <time>2022-04-25T09:52:03Z</time>
      </trkpt>
      <trkpt lat="44.82148" lon="4.67726">
        <ele>313.05</ele>
        <time>2022-04-25T09:52:17Z</time>
      </trkpt>
      <trkpt lat="44.82158" lon="4.67715">
        <ele>311.6</ele>
        <time>2022-04-25T09:52:31Z</time>
      </trkpt>
      <trkpt lat="44.82168" lon="4.67699">
        <ele>309.68</ele>
        <time>2022-04-25T09:52:45Z</time>
      </trkpt>
      <trkpt lat="44.82176" lon="4.67678">
        <ele>307.76</ele>
        <time>2022-04-25T09:52:59Z</time>
      </trkpt>
      <trkpt lat="44.82189" lon="4.67666">
        <ele>306.8</ele>
        <time>2022-04-25T09:53:10Z</time>
      </trkpt>
      <trkpt lat="44.82195" lon="4.67656">
        <ele>303.91</ele>
        <time>2022-04-25T09:53:22Z</time>
      </trkpt>
      <trkpt lat="44.822" lon="4.67651">
        <ele>301.51</ele>
        <time>2022-04-25T09:53:35Z</time>
      </trkpt>
      <trkpt lat="44.82205" lon="4.67646">
        <ele>300.07</ele>
        <time>2022-04-25T09:53:44Z</time>
      </trkpt>
      <trkpt lat="44.82219" lon="4.67635">
        <ele>302.47</ele>
        <time>2022-04-25T09:53:57Z</time>
      </trkpt>
      <trkpt lat="44.82228" lon="4.67621">
        <ele>300.55</ele>
        <time>2022-04-25T09:54:10Z</time>
      </trkpt>
      <trkpt lat="44.82229" lon="4.67619">
        <ele>300.55</ele>
        <time>2022-04-25T09:54:11Z</time>
      </trkpt>
      <trkpt lat="44.82238" lon="4.6761">
        <ele>298.15</ele>
        <time>2022-04-25T09:54:24Z</time>
      </trkpt>
      <trkpt lat="44.82249" lon="4.67606">
        <ele>295.74</ele>
        <time>2022-04-25T09:54:39Z</time>
      </trkpt>
      <trkpt lat="44.82254" lon="4.676">
        <ele>289.49</ele>
        <time>2022-04-25T09:54:51Z</time>
      </trkpt>
      <trkpt lat="44.82258" lon="4.67598">
        <ele>287.09</ele>
        <time>2022-04-25T09:54:56Z</time>
      </trkpt>
      <trkpt lat="44.82267" lon="4.67595">
        <ele>283.25</ele>
        <time>2022-04-25T09:55:09Z</time>
      </trkpt>
      <trkpt lat="44.82269" lon="4.67586">
        <ele>277</ele>
        <time>2022-04-25T09:55:20Z</time>
      </trkpt>
      <trkpt lat="44.82272" lon="4.67578">
        <ele>274.11</ele>
        <time>2022-04-25T09:55:34Z</time>
      </trkpt>
      <trkpt lat="44.82283" lon="4.67577">
        <ele>274.11</ele>
        <time>2022-04-25T09:55:45Z</time>
      </trkpt>
      <trkpt lat="44.82294" lon="4.67569">
        <ele>273.15</ele>
        <time>2022-04-25T09:55:56Z</time>
      </trkpt>
      <trkpt lat="44.82297" lon="4.67569">
        <ele>273.15</ele>
        <time>2022-04-25T09:55:58Z</time>
      </trkpt>
      <trkpt lat="44.82309" lon="4.67565">
        <ele>272.19</ele>
        <time>2022-04-25T09:56:09Z</time>
      </trkpt>
      <trkpt lat="44.82317" lon="4.67562">
        <ele>270.75</ele>
        <time>2022-04-25T09:56:21Z</time>
      </trkpt>
      <trkpt lat="44.82323" lon="4.67555">
        <ele>267.86</ele>
        <time>2022-04-25T09:56:34Z</time>
      </trkpt>
      <trkpt lat="44.82327" lon="4.67553">
        <ele>265.46</ele>
        <time>2022-04-25T09:56:46Z</time>
      </trkpt>
      <trkpt lat="44.82329" lon="4.67554">
        <ele>264.98</ele>
        <time>2022-04-25T09:56:56Z</time>
      </trkpt>
      <trkpt lat="44.82335" lon="4.67551">
        <ele>264.02</ele>
        <time>2022-04-25T09:57:08Z</time>
      </trkpt>
      <trkpt lat="44.82351" lon="4.67544">
        <ele>263.06</ele>
        <time>2022-04-25T09:57:20Z</time>
      </trkpt>
      <trkpt lat="44.82356" lon="4.67542">
        <ele>262.58</ele>
        <time>2022-04-25T09:57:23Z</time>
      </trkpt>
      <trkpt lat="44.82363" lon="4.67538">
        <ele>261.14</ele>
        <time>2022-04-25T09:57:28Z</time>
      </trkpt>
      <trkpt lat="44.82365" lon="4.6754">
        <ele>259.69</ele>
        <time>2022-04-25T09:57:32Z</time>
      </trkpt>
      <trkpt lat="44.8237" lon="4.67547">
        <ele>259.21</ele>
        <time>2022-04-25T09:57:37Z</time>
      </trkpt>
      <trkpt lat="44.82381" lon="4.67561">
        <ele>258.25</ele>
        <time>2022-04-25T09:57:49Z</time>
      </trkpt>
      <trkpt lat="44.82394" lon="4.67572">
        <ele>257.77</ele>
        <time>2022-04-25T09:58:01Z</time>
      </trkpt>
      <trkpt lat="44.82394" lon="4.67572">
        <ele>256.81</ele>
        <time>2022-04-25T09:58:03Z</time>
      </trkpt>
      <trkpt lat="44.82389" lon="4.67571">
        <ele>246.23</ele>
        <time>2022-04-25T09:58:15Z</time>
      </trkpt>
      <trkpt lat="44.8239" lon="4.67574">
        <ele>245.75</ele>
        <time>2022-04-25T09:58:19Z</time>
      </trkpt>
      <trkpt lat="44.82397" lon="4.67581">
        <ele>243.83</ele>
        <time>2022-04-25T09:58:26Z</time>
      </trkpt>
      <trkpt lat="44.82407" lon="4.67593">
        <ele>241.91</ele>
        <time>2022-04-25T09:58:39Z</time>
      </trkpt>
      <trkpt lat="44.82419" lon="4.67603">
        <ele>239.99</ele>
        <time>2022-04-25T09:58:52Z</time>
      </trkpt>
      <trkpt lat="44.82428" lon="4.6761">
        <ele>238.54</ele>
        <time>2022-04-25T09:59:03Z</time>
      </trkpt>
      <trkpt lat="44.8244" lon="4.6762">
        <ele>235.66</ele>
        <time>2022-04-25T09:59:15Z</time>
      </trkpt>
      <trkpt lat="44.82453" lon="4.67627">
        <ele>233.26</ele>
        <time>2022-04-25T09:59:27Z</time>
      </trkpt>
      <trkpt lat="44.82458" lon="4.67635">
        <ele>229.41</ele>
        <time>2022-04-25T09:59:38Z</time>
      </trkpt>
      <trkpt lat="44.82469" lon="4.67649">
        <ele>226.53</ele>
        <time>2022-04-25T09:59:55Z</time>
      </trkpt>
      <trkpt lat="44.82469" lon="4.67657">
        <ele>226.05</ele>
        <time>2022-04-25T10:00:01Z</time>
      </trkpt>
      <trkpt lat="44.82459" lon="4.67683">
        <ele>223.64</ele>
        <time>2022-04-25T10:00:19Z</time>
      </trkpt>
      <trkpt lat="44.8245" lon="4.67707">
        <ele>221.72</ele>
        <time>2022-04-25T10:00:34Z</time>
      </trkpt>
      <trkpt lat="44.82448" lon="4.67722">
        <ele>219.32</ele>
        <time>2022-04-25T10:00:44Z</time>
      </trkpt>
      <trkpt lat="44.8246" lon="4.67737">
        <ele>214.51</ele>
        <time>2022-04-25T10:00:58Z</time>
      </trkpt>
      <trkpt lat="44.8247" lon="4.67746">
        <ele>212.59</ele>
        <time>2022-04-25T10:01:08Z</time>
      </trkpt>
      <trkpt lat="44.82483" lon="4.67765">
        <ele>211.63</ele>
        <time>2022-04-25T10:01:22Z</time>
      </trkpt>
      <trkpt lat="44.82491" lon="4.67797">
        <ele>210.67</ele>
        <time>2022-04-25T10:01:41Z</time>
      </trkpt>
      <trkpt lat="44.82493" lon="4.67809">
        <ele>209.7</ele>
        <time>2022-04-25T10:01:50Z</time>
      </trkpt>
      <trkpt lat="44.82508" lon="4.67816">
        <ele>209.7</ele>
        <time>2022-04-25T10:02:03Z</time>
      </trkpt>
      <trkpt lat="44.82509" lon="4.67818">
        <ele>209.7</ele>
        <time>2022-04-25T10:02:04Z</time>
      </trkpt>
      <trkpt lat="44.82509" lon="4.67819">
        <ele>209.22</ele>
        <time>2022-04-25T10:02:05Z</time>
      </trkpt>
      <trkpt lat="44.82507" lon="4.67833">
        <ele>209.22</ele>
        <time>2022-04-25T10:02:13Z</time>
      </trkpt>
      <trkpt lat="44.82507" lon="4.67835">
        <ele>209.22</ele>
        <time>2022-04-25T10:02:14Z</time>
      </trkpt>
      <trkpt lat="44.82524" lon="4.67859">
        <ele>198.17</ele>
        <time>2022-04-25T10:02:25Z</time>
      </trkpt>
      <trkpt lat="44.82522" lon="4.67877">
        <ele>178.94</ele>
        <time>2022-04-25T10:02:29Z</time>
      </trkpt>
      <trkpt lat="44.82529" lon="4.67882">
        <ele>171.73</ele>
        <time>2022-04-25T10:02:39Z</time>
      </trkpt>
      <trkpt lat="44.82529" lon="4.67885">
        <ele>172.69</ele>
        <time>2022-04-25T10:02:44Z</time>
      </trkpt>
      <trkpt lat="44.8253" lon="4.67909">
        <ele>175.58</ele>
        <time>2022-04-25T10:02:57Z</time>
      </trkpt>
      <trkpt lat="44.82526" lon="4.67933">
        <ele>177.98</ele>
        <time>2022-04-25T10:03:11Z</time>
      </trkpt>
      <trkpt lat="44.82527" lon="4.6795">
        <ele>178.46</ele>
        <time>2022-04-25T10:03:21Z</time>
      </trkpt>
      <trkpt lat="44.82546" lon="4.67969">
        <ele>173.17</ele>
        <time>2022-04-25T10:03:35Z</time>
      </trkpt>
      <trkpt lat="44.82549" lon="4.67972">
        <ele>168.37</ele>
        <time>2022-04-25T10:03:41Z</time>
      </trkpt>
      <trkpt lat="44.82562" lon="4.67981">
        <ele>164.52</ele>
        <time>2022-04-25T10:03:53Z</time>
      </trkpt>
      <trkpt lat="44.8257" lon="4.67995">
        <ele>160.68</ele>
        <time>2022-04-25T10:04:07Z</time>
      </trkpt>
      <trkpt lat="44.82571" lon="4.67997">
        <ele>159.72</ele>
        <time>2022-04-25T10:04:09Z</time>
      </trkpt>
      <trkpt lat="44.82574" lon="4.68005">
        <ele>157.31</ele>
        <time>2022-04-25T10:04:15Z</time>
      </trkpt>
      <trkpt lat="44.82577" lon="4.68012">
        <ele>155.39</ele>
        <time>2022-04-25T10:04:29Z</time>
      </trkpt>
      <trkpt lat="44.8258" lon="4.68018">
        <ele>154.43</ele>
        <time>2022-04-25T10:04:39Z</time>
      </trkpt>
      <trkpt lat="44.82585" lon="4.68019">
        <ele>153.95</ele>
        <time>2022-04-25T10:04:48Z</time>
      </trkpt>
      <trkpt lat="44.826" lon="4.68016">
        <ele>152.51</ele>
        <time>2022-04-25T10:05:03Z</time>
      </trkpt>
      <trkpt lat="44.82599" lon="4.68013">
        <ele>151.54</ele>
        <time>2022-04-25T10:05:14Z</time>
      </trkpt>
      <trkpt lat="44.82613" lon="4.68008">
        <ele>151.06</ele>
        <time>2022-04-25T10:05:33Z</time>
      </trkpt>
      <trkpt lat="44.82624" lon="4.67996">
        <ele>151.54</ele>
        <time>2022-04-25T10:05:45Z</time>
      </trkpt>
      <trkpt lat="44.82628" lon="4.67974">
        <ele>153.95</ele>
        <time>2022-04-25T10:05:59Z</time>
      </trkpt>
      <trkpt lat="44.82634" lon="4.67946">
        <ele>161.16</ele>
        <time>2022-04-25T10:06:15Z</time>
      </trkpt>
      <trkpt lat="44.82635" lon="4.67942">
        <ele>161.64</ele>
        <time>2022-04-25T10:06:17Z</time>
      </trkpt>
      <trkpt lat="44.82631" lon="4.67931">
        <ele>159.72</ele>
        <time>2022-04-25T10:06:31Z</time>
      </trkpt>
      <trkpt lat="44.82632" lon="4.67932">
        <ele>158.75</ele>
        <time>2022-04-25T10:06:35Z</time>
      </trkpt>
      <trkpt lat="44.82634" lon="4.67934">
        <ele>158.27</ele>
        <time>2022-04-25T10:06:38Z</time>
      </trkpt>
      <trkpt lat="44.82639" lon="4.67959">
        <ele>155.87</ele>
        <time>2022-04-25T10:06:54Z</time>
      </trkpt>
      <trkpt lat="44.8264" lon="4.67975">
        <ele>157.31</ele>
        <time>2022-04-25T10:07:06Z</time>
      </trkpt>
      <trkpt lat="44.8264" lon="4.67993">
        <ele>158.75</ele>
        <time>2022-04-25T10:07:20Z</time>
      </trkpt>
      <trkpt lat="44.8264" lon="4.67994">
        <ele>158.75</ele>
        <time>2022-04-25T10:07:21Z</time>
      </trkpt>
      <trkpt lat="44.82639" lon="4.67999">
        <ele>159.24</ele>
        <time>2022-04-25T10:07:25Z</time>
      </trkpt>
      <trkpt lat="44.82642" lon="4.68026">
        <ele>164.52</ele>
        <time>2022-04-25T10:07:42Z</time>
      </trkpt>
      <trkpt lat="44.82641" lon="4.68038">
        <ele>164.04</ele>
        <time>2022-04-25T10:07:51Z</time>
      </trkpt>
      <trkpt lat="44.82638" lon="4.68042">
        <ele>163.56</ele>
        <time>2022-04-25T10:07:55Z</time>
      </trkpt>
      <trkpt lat="44.82632" lon="4.68039">
        <ele>162.6</ele>
        <time>2022-04-25T10:08:01Z</time>
      </trkpt>
      <trkpt lat="44.82628" lon="4.68038">
        <ele>161.64</ele>
        <time>2022-04-25T10:08:04Z</time>
      </trkpt>
      <trkpt lat="44.82625" lon="4.68034">
        <ele>160.68</ele>
        <time>2022-04-25T10:08:08Z</time>
      </trkpt>
      <trkpt lat="44.82619" lon="4.68026">
        <ele>157.79</ele>
        <time>2022-04-25T10:08:16Z</time>
      </trkpt>
      <trkpt lat="44.82618" lon="4.68021">
        <ele>157.79</ele>
        <time>2022-04-25T10:08:28Z</time>
      </trkpt>
      <trkpt lat="44.82619" lon="4.68021">
        <ele>157.79</ele>
        <time>2022-04-25T10:08:51Z</time>
      </trkpt>
      <trkpt lat="44.82617" lon="4.68019">
        <ele>156.83</ele>
        <time>2022-04-25T10:09:06Z</time>
      </trkpt>
      <trkpt lat="44.82616" lon="4.68021">
        <ele>153.95</ele>
        <time>2022-04-25T10:09:20Z</time>
      </trkpt>
      <trkpt lat="44.82615" lon="4.68018">
        <ele>154.43</ele>
        <time>2022-04-25T10:09:44Z</time>
      </trkpt>
      <trkpt lat="44.82616" lon="4.68018">
        <ele>154.43</ele>
        <time>2022-04-25T10:10:15Z</time>
      </trkpt>
      <trkpt lat="44.82618" lon="4.68018">
        <ele>155.87</ele>
        <time>2022-04-25T10:10:34Z</time>
      </trkpt>
      <trkpt lat="44.8262" lon="4.68019">
        <ele>157.79</ele>
        <time>2022-04-25T10:10:46Z</time>
      </trkpt>
      <trkpt lat="44.82619" lon="4.68022">
        <ele>161.64</ele>
        <time>2022-04-25T10:11:05Z</time>
      </trkpt>
    </trkseg>
  </trk>
</gpx>